<?xml version="1.0" encoding="UTF-8"?>
<gpx version="1.1" creator="https://www.youtrack.es" xsi:schemaLocation="http://www.topografix.com/GPX/1/1 http://www.topografix.com/GPX/1/1/gpx.xsd http://www.garmin.com/xmlschemas/GpxExtensions/v3 http://www.garmin.com/xmlschemas/GpxExtensionsv3.xsd http://www.garmin.com/xmlschemas/TrackPointExtension/v1 http://www.garmin.com/xmlschemas/TrackPointExtensionv1.xsd" xmlns:gpxtpx="http://www.garmin.com/xmlschemas/TrackPointExtension/v1" xmlns:gpxx="http://www.garmin.com/xmlschemas/GpxExtensions/v3" xmlns:xsi="http://www.w3.org/2001/XMLSchema-instance">
  <metadata>
    <author>
      <name>Alejandro Roqué</name>
      <email id="cc-aroqrod" domain="canarias.org"/>
    </author>
    <link href="https://www.youtrack.es">
      <text>YouTrack.es</text>
    </link>
    <time>2026-05-08T06:57:32Z</time>
  </metadata>
  <trk>
    <src>https://www.youtrack.es</src>
    <link href="https://www.youtrack.es/ruta/8882-ruta-la-laguna">
      <text>YouTrack.es</text>
    </link>
    <trkseg>
      <trkpt lat="28.490117" lon="-16.328497">
        <ele>47.6</ele>
        <time>1970-01-01T12:00:00.000Z</time>
      </trkpt>
      <trkpt lat="28.490117" lon="-16.328497">
        <ele>262.2</ele>
        <time>1970-01-01T12:00:01.000Z</time>
      </trkpt>
      <trkpt lat="28.490117" lon="-16.328497">
        <ele>395.2</ele>
        <time>1970-01-01T12:00:02.000Z</time>
      </trkpt>
      <trkpt lat="28.490117" lon="-16.328497">
        <ele>462.0</ele>
        <time>1970-01-01T12:00:03.000Z</time>
      </trkpt>
      <trkpt lat="28.490117" lon="-16.328497">
        <ele>495.2</ele>
        <time>1970-01-01T12:00:04.000Z</time>
      </trkpt>
      <trkpt lat="28.490117" lon="-16.328497">
        <ele>512.0</ele>
        <time>1970-01-01T12:00:05.000Z</time>
      </trkpt>
      <trkpt lat="28.490117" lon="-16.328497">
        <ele>520.2</ele>
        <time>1970-01-01T12:00:07.000Z</time>
      </trkpt>
      <trkpt lat="28.490226" lon="-16.328444">
        <ele>524.2</ele>
        <time>1970-01-01T12:00:08.000Z</time>
      </trkpt>
      <trkpt lat="28.490265" lon="-16.328419">
        <ele>525.8</ele>
        <time>1970-01-01T12:00:09.000Z</time>
      </trkpt>
      <trkpt lat="28.490269" lon="-16.32838">
        <ele>526.8</ele>
        <time>1970-01-01T12:00:10.000Z</time>
      </trkpt>
      <trkpt lat="28.490273" lon="-16.328309">
        <ele>527.6</ele>
        <time>1970-01-01T12:00:12.000Z</time>
      </trkpt>
      <trkpt lat="28.490294" lon="-16.328216">
        <ele>528.0</ele>
        <time>1970-01-01T12:00:15.000Z</time>
      </trkpt>
      <trkpt lat="28.490363" lon="-16.328159">
        <ele>527.2</ele>
        <time>1970-01-01T12:00:19.000Z</time>
      </trkpt>
      <trkpt lat="28.490407" lon="-16.32818">
        <ele>527.8</ele>
        <time>1970-01-01T12:00:21.000Z</time>
      </trkpt>
      <trkpt lat="28.490487" lon="-16.328232">
        <ele>527.6</ele>
        <time>1970-01-01T12:00:24.000Z</time>
      </trkpt>
      <trkpt lat="28.490594" lon="-16.328305">
        <ele>527.2</ele>
        <time>1970-01-01T12:00:28.000Z</time>
      </trkpt>
      <trkpt lat="28.490664" lon="-16.328361">
        <ele>526.8</ele>
        <time>1970-01-01T12:00:31.000Z</time>
      </trkpt>
      <trkpt lat="28.490685" lon="-16.328369">
        <ele>526.6</ele>
        <time>1970-01-01T12:00:33.000Z</time>
      </trkpt>
      <trkpt lat="28.490644" lon="-16.328362">
        <ele>527.0</ele>
        <time>1970-01-01T12:00:35.000Z</time>
      </trkpt>
      <trkpt lat="28.490504" lon="-16.32825">
        <ele>527.6</ele>
        <time>1970-01-01T12:00:41.000Z</time>
      </trkpt>
      <trkpt lat="28.49048" lon="-16.32823">
        <ele>527.8</ele>
        <time>1970-01-01T12:00:42.000Z</time>
      </trkpt>
      <trkpt lat="28.490456" lon="-16.328211">
        <ele>528.2</ele>
        <time>1970-01-01T12:00:43.000Z</time>
      </trkpt>
      <trkpt lat="28.490433" lon="-16.328194">
        <ele>527.8</ele>
        <time>1970-01-01T12:00:44.000Z</time>
      </trkpt>
      <trkpt lat="28.490409" lon="-16.328179">
        <ele>528.0</ele>
        <time>1970-01-01T12:00:45.000Z</time>
      </trkpt>
      <trkpt lat="28.490377" lon="-16.328171">
        <ele>527.6</ele>
        <time>1970-01-01T12:00:46.000Z</time>
      </trkpt>
      <trkpt lat="28.490344" lon="-16.328173">
        <ele>528.0</ele>
        <time>1970-01-01T12:00:47.000Z</time>
      </trkpt>
      <trkpt lat="28.490314" lon="-16.328185">
        <ele>528.2</ele>
        <time>1970-01-01T12:00:48.000Z</time>
      </trkpt>
      <trkpt lat="28.490289" lon="-16.328204">
        <ele>528.8</ele>
        <time>1970-01-01T12:00:49.000Z</time>
      </trkpt>
      <trkpt lat="28.490268" lon="-16.328231">
        <ele>527.4</ele>
        <time>1970-01-01T12:00:50.000Z</time>
      </trkpt>
      <trkpt lat="28.490254" lon="-16.328264">
        <ele>527.6</ele>
        <time>1970-01-01T12:00:51.000Z</time>
      </trkpt>
      <trkpt lat="28.490246" lon="-16.328297">
        <ele>527.2</ele>
        <time>1970-01-01T12:00:52.000Z</time>
      </trkpt>
      <trkpt lat="28.490238" lon="-16.328432">
        <ele>527.4</ele>
        <time>1970-01-01T12:00:56.000Z</time>
      </trkpt>
      <trkpt lat="28.490239" lon="-16.328464">
        <ele>527.8</ele>
        <time>1970-01-01T12:00:57.000Z</time>
      </trkpt>
      <trkpt lat="28.490244" lon="-16.328528">
        <ele>527.8</ele>
        <time>1970-01-01T12:00:59.000Z</time>
      </trkpt>
      <trkpt lat="28.490247" lon="-16.328593">
        <ele>527.8</ele>
        <time>1970-01-01T12:01:01.000Z</time>
      </trkpt>
      <trkpt lat="28.49025" lon="-16.328622">
        <ele>527.6</ele>
        <time>1970-01-01T12:01:02.000Z</time>
      </trkpt>
      <trkpt lat="28.490256" lon="-16.328651">
        <ele>528.0</ele>
        <time>1970-01-01T12:01:03.000Z</time>
      </trkpt>
      <trkpt lat="28.490261" lon="-16.328681">
        <ele>527.8</ele>
        <time>1970-01-01T12:01:04.000Z</time>
      </trkpt>
      <trkpt lat="28.490264" lon="-16.328711">
        <ele>528.2</ele>
        <time>1970-01-01T12:01:05.000Z</time>
      </trkpt>
      <trkpt lat="28.490266" lon="-16.328739">
        <ele>527.8</ele>
        <time>1970-01-01T12:01:06.000Z</time>
      </trkpt>
      <trkpt lat="28.490265" lon="-16.328794">
        <ele>528.0</ele>
        <time>1970-01-01T12:01:08.000Z</time>
      </trkpt>
      <trkpt lat="28.490264" lon="-16.328823">
        <ele>527.8</ele>
        <time>1970-01-01T12:01:09.000Z</time>
      </trkpt>
      <trkpt lat="28.490263" lon="-16.328856">
        <ele>527.8</ele>
        <time>1970-01-01T12:01:10.000Z</time>
      </trkpt>
      <trkpt lat="28.490265" lon="-16.328887">
        <ele>528.0</ele>
        <time>1970-01-01T12:01:11.000Z</time>
      </trkpt>
      <trkpt lat="28.490274" lon="-16.328917">
        <ele>528.0</ele>
        <time>1970-01-01T12:01:12.000Z</time>
      </trkpt>
      <trkpt lat="28.490302" lon="-16.328972">
        <ele>528.0</ele>
        <time>1970-01-01T12:01:14.000Z</time>
      </trkpt>
      <trkpt lat="28.490321" lon="-16.328997">
        <ele>528.0</ele>
        <time>1970-01-01T12:01:15.000Z</time>
      </trkpt>
      <trkpt lat="28.490379" lon="-16.329066">
        <ele>528.2</ele>
        <time>1970-01-01T12:01:18.000Z</time>
      </trkpt>
      <trkpt lat="28.490537" lon="-16.329205">
        <ele>528.2</ele>
        <time>1970-01-01T12:01:25.000Z</time>
      </trkpt>
      <trkpt lat="28.49056" lon="-16.329228">
        <ele>528.2</ele>
        <time>1970-01-01T12:01:26.000Z</time>
      </trkpt>
      <trkpt lat="28.490628" lon="-16.329302">
        <ele>528.4</ele>
        <time>1970-01-01T12:01:29.000Z</time>
      </trkpt>
      <trkpt lat="28.490768" lon="-16.329433">
        <ele>528.4</ele>
        <time>1970-01-01T12:01:35.000Z</time>
      </trkpt>
      <trkpt lat="28.490914" lon="-16.329577">
        <ele>528.4</ele>
        <time>1970-01-01T12:01:42.000Z</time>
      </trkpt>
      <trkpt lat="28.490942" lon="-16.329602">
        <ele>528.6</ele>
        <time>1970-01-01T12:01:44.000Z</time>
      </trkpt>
      <trkpt lat="28.490953" lon="-16.329649">
        <ele>529.8</ele>
        <time>1970-01-01T12:02:35.000Z</time>
      </trkpt>
      <trkpt lat="28.490914" lon="-16.329611">
        <ele>529.8</ele>
        <time>1970-01-01T12:02:38.000Z</time>
      </trkpt>
      <trkpt lat="28.490838" lon="-16.329536">
        <ele>529.8</ele>
        <time>1970-01-01T12:02:42.000Z</time>
      </trkpt>
      <trkpt lat="28.490732" lon="-16.329429">
        <ele>528.4</ele>
        <time>1970-01-01T12:02:47.000Z</time>
      </trkpt>
      <trkpt lat="28.490578" lon="-16.329279">
        <ele>529.2</ele>
        <time>1970-01-01T12:02:54.000Z</time>
      </trkpt>
      <trkpt lat="28.490539" lon="-16.329236">
        <ele>529.4</ele>
        <time>1970-01-01T12:02:56.000Z</time>
      </trkpt>
      <trkpt lat="28.490502" lon="-16.329194">
        <ele>528.8</ele>
        <time>1970-01-01T12:02:58.000Z</time>
      </trkpt>
      <trkpt lat="28.490484" lon="-16.329172">
        <ele>528.2</ele>
        <time>1970-01-01T12:02:59.000Z</time>
      </trkpt>
      <trkpt lat="28.490425" lon="-16.32911">
        <ele>527.8</ele>
        <time>1970-01-01T12:03:02.000Z</time>
      </trkpt>
      <trkpt lat="28.490405" lon="-16.329093">
        <ele>528.2</ele>
        <time>1970-01-01T12:03:03.000Z</time>
      </trkpt>
      <trkpt lat="28.490383" lon="-16.329076">
        <ele>528.0</ele>
        <time>1970-01-01T12:03:04.000Z</time>
      </trkpt>
      <trkpt lat="28.490339" lon="-16.329038">
        <ele>528.2</ele>
        <time>1970-01-01T12:03:06.000Z</time>
      </trkpt>
      <trkpt lat="28.490317" lon="-16.329021">
        <ele>528.2</ele>
        <time>1970-01-01T12:03:07.000Z</time>
      </trkpt>
      <trkpt lat="28.490293" lon="-16.329011">
        <ele>528.6</ele>
        <time>1970-01-01T12:03:08.000Z</time>
      </trkpt>
      <trkpt lat="28.490271" lon="-16.329007">
        <ele>528.4</ele>
        <time>1970-01-01T12:03:09.000Z</time>
      </trkpt>
      <trkpt lat="28.490253" lon="-16.329017">
        <ele>528.8</ele>
        <time>1970-01-01T12:03:10.000Z</time>
      </trkpt>
      <trkpt lat="28.490248" lon="-16.329037">
        <ele>528.4</ele>
        <time>1970-01-01T12:03:11.000Z</time>
      </trkpt>
      <trkpt lat="28.490248" lon="-16.329061">
        <ele>528.6</ele>
        <time>1970-01-01T12:03:12.000Z</time>
      </trkpt>
      <trkpt lat="28.490248" lon="-16.329087">
        <ele>528.4</ele>
        <time>1970-01-01T12:03:13.000Z</time>
      </trkpt>
      <trkpt lat="28.490248" lon="-16.329113">
        <ele>528.4</ele>
        <time>1970-01-01T12:03:14.000Z</time>
      </trkpt>
      <trkpt lat="28.49024" lon="-16.32932">
        <ele>528.8</ele>
        <time>1970-01-01T12:03:21.000Z</time>
      </trkpt>
      <trkpt lat="28.490236" lon="-16.32935">
        <ele>528.6</ele>
        <time>1970-01-01T12:03:22.000Z</time>
      </trkpt>
      <trkpt lat="28.490236" lon="-16.329404">
        <ele>528.4</ele>
        <time>1970-01-01T12:03:24.000Z</time>
      </trkpt>
      <trkpt lat="28.490284" lon="-16.329546">
        <ele>528.6</ele>
        <time>1970-01-01T12:03:29.000Z</time>
      </trkpt>
      <trkpt lat="28.490358" lon="-16.329634">
        <ele>529.0</ele>
        <time>1970-01-01T12:03:33.000Z</time>
      </trkpt>
      <trkpt lat="28.490374" lon="-16.329656">
        <ele>529.2</ele>
        <time>1970-01-01T12:03:34.000Z</time>
      </trkpt>
      <trkpt lat="28.490392" lon="-16.329681">
        <ele>529.2</ele>
        <time>1970-01-01T12:03:35.000Z</time>
      </trkpt>
      <trkpt lat="28.490412" lon="-16.329706">
        <ele>529.2</ele>
        <time>1970-01-01T12:03:36.000Z</time>
      </trkpt>
      <trkpt lat="28.490534" lon="-16.329854">
        <ele>529.4</ele>
        <time>1970-01-01T12:03:43.000Z</time>
      </trkpt>
      <trkpt lat="28.490635" lon="-16.329948">
        <ele>529.6</ele>
        <time>1970-01-01T12:03:48.000Z</time>
      </trkpt>
      <trkpt lat="28.49078" lon="-16.33008">
        <ele>530.4</ele>
        <time>1970-01-01T12:03:55.000Z</time>
      </trkpt>
      <trkpt lat="28.490853" lon="-16.330157">
        <ele>530.6</ele>
        <time>1970-01-01T12:03:59.000Z</time>
      </trkpt>
      <trkpt lat="28.490973" lon="-16.330269">
        <ele>531.0</ele>
        <time>1970-01-01T12:04:05.000Z</time>
      </trkpt>
      <trkpt lat="28.491129" lon="-16.330401">
        <ele>531.0</ele>
        <time>1970-01-01T12:04:12.000Z</time>
      </trkpt>
      <trkpt lat="28.491281" lon="-16.330544">
        <ele>531.0</ele>
        <time>1970-01-01T12:04:19.000Z</time>
      </trkpt>
      <trkpt lat="28.491361" lon="-16.330621">
        <ele>531.0</ele>
        <time>1970-01-01T12:04:23.000Z</time>
      </trkpt>
      <trkpt lat="28.491418" lon="-16.330674">
        <ele>531.0</ele>
        <time>1970-01-01T12:04:26.000Z</time>
      </trkpt>
      <trkpt lat="28.491532" lon="-16.330779">
        <ele>531.4</ele>
        <time>1970-01-01T12:04:32.000Z</time>
      </trkpt>
      <trkpt lat="28.491677" lon="-16.330922">
        <ele>531.6</ele>
        <time>1970-01-01T12:04:40.000Z</time>
      </trkpt>
      <trkpt lat="28.491832" lon="-16.331069">
        <ele>531.6</ele>
        <time>1970-01-01T12:04:48.000Z</time>
      </trkpt>
      <trkpt lat="28.491971" lon="-16.331212">
        <ele>531.6</ele>
        <time>1970-01-01T12:04:55.000Z</time>
      </trkpt>
      <trkpt lat="28.492117" lon="-16.331361">
        <ele>531.6</ele>
        <time>1970-01-01T12:05:02.000Z</time>
      </trkpt>
      <trkpt lat="28.492277" lon="-16.331502">
        <ele>531.6</ele>
        <time>1970-01-01T12:05:09.000Z</time>
      </trkpt>
      <trkpt lat="28.492432" lon="-16.331633">
        <ele>531.8</ele>
        <time>1970-01-01T12:05:16.000Z</time>
      </trkpt>
      <trkpt lat="28.492599" lon="-16.331758">
        <ele>532.2</ele>
        <time>1970-01-01T12:05:23.000Z</time>
      </trkpt>
      <trkpt lat="28.492662" lon="-16.331825">
        <ele>532.4</ele>
        <time>1970-01-01T12:05:26.000Z</time>
      </trkpt>
      <trkpt lat="28.492805" lon="-16.331969">
        <ele>533.0</ele>
        <time>1970-01-01T12:05:34.000Z</time>
      </trkpt>
      <trkpt lat="28.492926" lon="-16.332064">
        <ele>533.4</ele>
        <time>1970-01-01T12:05:40.000Z</time>
      </trkpt>
      <trkpt lat="28.493089" lon="-16.33219">
        <ele>533.8</ele>
        <time>1970-01-01T12:05:48.000Z</time>
      </trkpt>
      <trkpt lat="28.493248" lon="-16.332322">
        <ele>534.4</ele>
        <time>1970-01-01T12:05:57.000Z</time>
      </trkpt>
      <trkpt lat="28.493348" lon="-16.332402">
        <ele>535.2</ele>
        <time>1970-01-01T12:06:02.000Z</time>
      </trkpt>
      <trkpt lat="28.493366" lon="-16.332417">
        <ele>535.4</ele>
        <time>1970-01-01T12:06:03.000Z</time>
      </trkpt>
      <trkpt lat="28.493384" lon="-16.332433">
        <ele>535.8</ele>
        <time>1970-01-01T12:06:04.000Z</time>
      </trkpt>
      <trkpt lat="28.493402" lon="-16.332448">
        <ele>535.8</ele>
        <time>1970-01-01T12:06:05.000Z</time>
      </trkpt>
      <trkpt lat="28.49342" lon="-16.332461">
        <ele>536.0</ele>
        <time>1970-01-01T12:06:06.000Z</time>
      </trkpt>
      <trkpt lat="28.493438" lon="-16.332478">
        <ele>536.4</ele>
        <time>1970-01-01T12:06:07.000Z</time>
      </trkpt>
      <trkpt lat="28.493459" lon="-16.332492">
        <ele>536.6</ele>
        <time>1970-01-01T12:06:08.000Z</time>
      </trkpt>
      <trkpt lat="28.493479" lon="-16.332508">
        <ele>536.8</ele>
        <time>1970-01-01T12:06:09.000Z</time>
      </trkpt>
      <trkpt lat="28.493496" lon="-16.332529">
        <ele>537.0</ele>
        <time>1970-01-01T12:06:10.000Z</time>
      </trkpt>
      <trkpt lat="28.493513" lon="-16.33255">
        <ele>537.2</ele>
        <time>1970-01-01T12:06:11.000Z</time>
      </trkpt>
      <trkpt lat="28.493552" lon="-16.332581">
        <ele>537.6</ele>
        <time>1970-01-01T12:06:13.000Z</time>
      </trkpt>
      <trkpt lat="28.493571" lon="-16.332598">
        <ele>537.6</ele>
        <time>1970-01-01T12:06:14.000Z</time>
      </trkpt>
      <trkpt lat="28.493591" lon="-16.332615">
        <ele>537.8</ele>
        <time>1970-01-01T12:06:15.000Z</time>
      </trkpt>
      <trkpt lat="28.49361" lon="-16.332632">
        <ele>537.8</ele>
        <time>1970-01-01T12:06:16.000Z</time>
      </trkpt>
      <trkpt lat="28.493629" lon="-16.332648">
        <ele>538.0</ele>
        <time>1970-01-01T12:06:17.000Z</time>
      </trkpt>
      <trkpt lat="28.493647" lon="-16.332665">
        <ele>538.2</ele>
        <time>1970-01-01T12:06:18.000Z</time>
      </trkpt>
      <trkpt lat="28.493665" lon="-16.332682">
        <ele>538.4</ele>
        <time>1970-01-01T12:06:19.000Z</time>
      </trkpt>
      <trkpt lat="28.493682" lon="-16.332702">
        <ele>538.6</ele>
        <time>1970-01-01T12:06:20.000Z</time>
      </trkpt>
      <trkpt lat="28.493712" lon="-16.332744">
        <ele>539.0</ele>
        <time>1970-01-01T12:06:22.000Z</time>
      </trkpt>
      <trkpt lat="28.493745" lon="-16.332784">
        <ele>539.4</ele>
        <time>1970-01-01T12:06:24.000Z</time>
      </trkpt>
      <trkpt lat="28.493819" lon="-16.332857">
        <ele>540.0</ele>
        <time>1970-01-01T12:06:28.000Z</time>
      </trkpt>
      <trkpt lat="28.493898" lon="-16.33293">
        <ele>541.2</ele>
        <time>1970-01-01T12:06:32.000Z</time>
      </trkpt>
      <trkpt lat="28.493987" lon="-16.33309">
        <ele>542.2</ele>
        <time>1970-01-01T12:06:39.000Z</time>
      </trkpt>
      <trkpt lat="28.49394" lon="-16.333304">
        <ele>542.6</ele>
        <time>1970-01-01T12:06:47.000Z</time>
      </trkpt>
      <trkpt lat="28.493937" lon="-16.333492">
        <ele>543.2</ele>
        <time>1970-01-01T12:06:53.000Z</time>
      </trkpt>
      <trkpt lat="28.494004" lon="-16.333694">
        <ele>544.0</ele>
        <time>1970-01-01T12:07:00.000Z</time>
      </trkpt>
      <trkpt lat="28.494042" lon="-16.333772">
        <ele>544.2</ele>
        <time>1970-01-01T12:07:03.000Z</time>
      </trkpt>
      <trkpt lat="28.494082" lon="-16.333851">
        <ele>544.6</ele>
        <time>1970-01-01T12:07:06.000Z</time>
      </trkpt>
      <trkpt lat="28.494165" lon="-16.334039">
        <ele>545.0</ele>
        <time>1970-01-01T12:07:13.000Z</time>
      </trkpt>
      <trkpt lat="28.494199" lon="-16.334117">
        <ele>545.4</ele>
        <time>1970-01-01T12:07:16.000Z</time>
      </trkpt>
      <trkpt lat="28.494252" lon="-16.334327">
        <ele>545.8</ele>
        <time>1970-01-01T12:07:24.000Z</time>
      </trkpt>
      <trkpt lat="28.494288" lon="-16.334549">
        <ele>546.4</ele>
        <time>1970-01-01T12:07:32.000Z</time>
      </trkpt>
      <trkpt lat="28.494294" lon="-16.334576">
        <ele>546.4</ele>
        <time>1970-01-01T12:07:33.000Z</time>
      </trkpt>
      <trkpt lat="28.494319" lon="-16.334793">
        <ele>547.4</ele>
        <time>1970-01-01T12:07:41.000Z</time>
      </trkpt>
      <trkpt lat="28.494322" lon="-16.33482">
        <ele>547.4</ele>
        <time>1970-01-01T12:07:42.000Z</time>
      </trkpt>
      <trkpt lat="28.494358" lon="-16.335025">
        <ele>548.6</ele>
        <time>1970-01-01T12:07:50.000Z</time>
      </trkpt>
      <trkpt lat="28.494368" lon="-16.335078">
        <ele>548.8</ele>
        <time>1970-01-01T12:07:52.000Z</time>
      </trkpt>
      <trkpt lat="28.494376" lon="-16.335218">
        <ele>549.6</ele>
        <time>1970-01-01T12:07:57.000Z</time>
      </trkpt>
      <trkpt lat="28.4944" lon="-16.335297">
        <ele>550.0</ele>
        <time>1970-01-01T12:08:00.000Z</time>
      </trkpt>
      <trkpt lat="28.494421" lon="-16.335409">
        <ele>550.8</ele>
        <time>1970-01-01T12:08:04.000Z</time>
      </trkpt>
      <trkpt lat="28.494427" lon="-16.335439">
        <ele>550.8</ele>
        <time>1970-01-01T12:08:05.000Z</time>
      </trkpt>
      <trkpt lat="28.494452" lon="-16.335667">
        <ele>551.4</ele>
        <time>1970-01-01T12:08:13.000Z</time>
      </trkpt>
      <trkpt lat="28.494436" lon="-16.335878">
        <ele>551.6</ele>
        <time>1970-01-01T12:08:20.000Z</time>
      </trkpt>
      <trkpt lat="28.494426" lon="-16.335975">
        <ele>551.8</ele>
        <time>1970-01-01T12:08:23.000Z</time>
      </trkpt>
      <trkpt lat="28.49441" lon="-16.336128">
        <ele>552.2</ele>
        <time>1970-01-01T12:08:28.000Z</time>
      </trkpt>
      <trkpt lat="28.494409" lon="-16.336325">
        <ele>552.8</ele>
        <time>1970-01-01T12:08:35.000Z</time>
      </trkpt>
      <trkpt lat="28.494391" lon="-16.33655">
        <ele>553.8</ele>
        <time>1970-01-01T12:08:43.000Z</time>
      </trkpt>
      <trkpt lat="28.494386" lon="-16.336604">
        <ele>553.8</ele>
        <time>1970-01-01T12:08:45.000Z</time>
      </trkpt>
      <trkpt lat="28.494393" lon="-16.336825">
        <ele>555.0</ele>
        <time>1970-01-01T12:08:54.000Z</time>
      </trkpt>
      <trkpt lat="28.494385" lon="-16.337056">
        <ele>555.8</ele>
        <time>1970-01-01T12:09:02.000Z</time>
      </trkpt>
      <trkpt lat="28.49438" lon="-16.337114">
        <ele>556.0</ele>
        <time>1970-01-01T12:09:04.000Z</time>
      </trkpt>
      <trkpt lat="28.494375" lon="-16.337283">
        <ele>556.8</ele>
        <time>1970-01-01T12:09:10.000Z</time>
      </trkpt>
      <trkpt lat="28.494373" lon="-16.337342">
        <ele>557.0</ele>
        <time>1970-01-01T12:09:12.000Z</time>
      </trkpt>
      <trkpt lat="28.49436" lon="-16.337575">
        <ele>557.4</ele>
        <time>1970-01-01T12:09:20.000Z</time>
      </trkpt>
      <trkpt lat="28.494367" lon="-16.337785">
        <ele>557.8</ele>
        <time>1970-01-01T12:09:27.000Z</time>
      </trkpt>
      <trkpt lat="28.494373" lon="-16.337868">
        <ele>558.0</ele>
        <time>1970-01-01T12:09:30.000Z</time>
      </trkpt>
      <trkpt lat="28.494379" lon="-16.337952">
        <ele>558.2</ele>
        <time>1970-01-01T12:09:33.000Z</time>
      </trkpt>
      <trkpt lat="28.494341" lon="-16.338156">
        <ele>559.0</ele>
        <time>1970-01-01T12:09:40.000Z</time>
      </trkpt>
      <trkpt lat="28.494363" lon="-16.338306">
        <ele>559.6</ele>
        <time>1970-01-01T12:09:45.000Z</time>
      </trkpt>
      <trkpt lat="28.494401" lon="-16.338516">
        <ele>560.0</ele>
        <time>1970-01-01T12:09:53.000Z</time>
      </trkpt>
      <trkpt lat="28.494457" lon="-16.338714">
        <ele>560.2</ele>
        <time>1970-01-01T12:10:01.000Z</time>
      </trkpt>
      <trkpt lat="28.494566" lon="-16.338879">
        <ele>560.6</ele>
        <time>1970-01-01T12:10:07.000Z</time>
      </trkpt>
      <trkpt lat="28.494638" lon="-16.339005">
        <ele>561.0</ele>
        <time>1970-01-01T12:10:12.000Z</time>
      </trkpt>
      <trkpt lat="28.494669" lon="-16.339053">
        <ele>561.2</ele>
        <time>1970-01-01T12:10:14.000Z</time>
      </trkpt>
      <trkpt lat="28.494787" lon="-16.339239">
        <ele>561.4</ele>
        <time>1970-01-01T12:10:22.000Z</time>
      </trkpt>
      <trkpt lat="28.494818" lon="-16.339283">
        <ele>561.6</ele>
        <time>1970-01-01T12:10:24.000Z</time>
      </trkpt>
      <trkpt lat="28.494926" lon="-16.339427">
        <ele>562.2</ele>
        <time>1970-01-01T12:10:31.000Z</time>
      </trkpt>
      <trkpt lat="28.495047" lon="-16.339586">
        <ele>563.0</ele>
        <time>1970-01-01T12:10:39.000Z</time>
      </trkpt>
      <trkpt lat="28.495074" lon="-16.339628">
        <ele>563.2</ele>
        <time>1970-01-01T12:10:41.000Z</time>
      </trkpt>
      <trkpt lat="28.495192" lon="-16.339798">
        <ele>564.2</ele>
        <time>1970-01-01T12:10:49.000Z</time>
      </trkpt>
      <trkpt lat="28.495206" lon="-16.339819">
        <ele>564.2</ele>
        <time>1970-01-01T12:10:50.000Z</time>
      </trkpt>
      <trkpt lat="28.495278" lon="-16.339922">
        <ele>564.8</ele>
        <time>1970-01-01T12:10:55.000Z</time>
      </trkpt>
      <trkpt lat="28.495329" lon="-16.340008">
        <ele>565.4</ele>
        <time>1970-01-01T12:10:59.000Z</time>
      </trkpt>
      <trkpt lat="28.495425" lon="-16.340179">
        <ele>566.4</ele>
        <time>1970-01-01T12:11:07.000Z</time>
      </trkpt>
      <trkpt lat="28.495494" lon="-16.340309">
        <ele>567.6</ele>
        <time>1970-01-01T12:11:13.000Z</time>
      </trkpt>
      <trkpt lat="28.495559" lon="-16.340459">
        <ele>568.6</ele>
        <time>1970-01-01T12:11:20.000Z</time>
      </trkpt>
      <trkpt lat="28.495616" lon="-16.340593">
        <ele>569.8</ele>
        <time>1970-01-01T12:11:27.000Z</time>
      </trkpt>
      <trkpt lat="28.495672" lon="-16.340724">
        <ele>570.8</ele>
        <time>1970-01-01T12:11:33.000Z</time>
      </trkpt>
      <trkpt lat="28.495763" lon="-16.340923">
        <ele>572.2</ele>
        <time>1970-01-01T12:11:42.000Z</time>
      </trkpt>
      <trkpt lat="28.495789" lon="-16.341051">
        <ele>573.2</ele>
        <time>1970-01-01T12:11:47.000Z</time>
      </trkpt>
      <trkpt lat="28.495829" lon="-16.341195">
        <ele>574.2</ele>
        <time>1970-01-01T12:11:53.000Z</time>
      </trkpt>
      <trkpt lat="28.495883" lon="-16.341409">
        <ele>575.2</ele>
        <time>1970-01-01T12:12:02.000Z</time>
      </trkpt>
      <trkpt lat="28.495886" lon="-16.341433">
        <ele>575.2</ele>
        <time>1970-01-01T12:12:03.000Z</time>
      </trkpt>
      <trkpt lat="28.495895" lon="-16.341589">
        <ele>576.4</ele>
        <time>1970-01-01T12:12:10.000Z</time>
      </trkpt>
      <trkpt lat="28.495889" lon="-16.341747">
        <ele>577.6</ele>
        <time>1970-01-01T12:12:18.000Z</time>
      </trkpt>
      <trkpt lat="28.495872" lon="-16.341836">
        <ele>579.0</ele>
        <time>1970-01-01T12:12:23.000Z</time>
      </trkpt>
      <trkpt lat="28.495857" lon="-16.341897">
        <ele>580.0</ele>
        <time>1970-01-01T12:12:27.000Z</time>
      </trkpt>
      <trkpt lat="28.495842" lon="-16.341969">
        <ele>581.2</ele>
        <time>1970-01-01T12:12:31.000Z</time>
      </trkpt>
      <trkpt lat="28.495845" lon="-16.342042">
        <ele>582.2</ele>
        <time>1970-01-01T12:12:35.000Z</time>
      </trkpt>
      <trkpt lat="28.495866" lon="-16.342112">
        <ele>583.4</ele>
        <time>1970-01-01T12:12:39.000Z</time>
      </trkpt>
      <trkpt lat="28.495897" lon="-16.342192">
        <ele>584.4</ele>
        <time>1970-01-01T12:12:44.000Z</time>
      </trkpt>
      <trkpt lat="28.49595" lon="-16.342259">
        <ele>585.8</ele>
        <time>1970-01-01T12:12:49.000Z</time>
      </trkpt>
      <trkpt lat="28.496012" lon="-16.342297">
        <ele>587.0</ele>
        <time>1970-01-01T12:12:54.000Z</time>
      </trkpt>
      <trkpt lat="28.49606" lon="-16.342349">
        <ele>588.4</ele>
        <time>1970-01-01T12:12:59.000Z</time>
      </trkpt>
      <trkpt lat="28.496108" lon="-16.342397">
        <ele>589.6</ele>
        <time>1970-01-01T12:13:03.000Z</time>
      </trkpt>
      <trkpt lat="28.49614" lon="-16.342429">
        <ele>590.4</ele>
        <time>1970-01-01T12:13:06.000Z</time>
      </trkpt>
      <trkpt lat="28.496149" lon="-16.342441">
        <ele>590.8</ele>
        <time>1970-01-01T12:13:07.000Z</time>
      </trkpt>
      <trkpt lat="28.496187" lon="-16.342495">
        <ele>591.8</ele>
        <time>1970-01-01T12:13:11.000Z</time>
      </trkpt>
      <trkpt lat="28.496206" lon="-16.342525">
        <ele>592.6</ele>
        <time>1970-01-01T12:13:13.000Z</time>
      </trkpt>
      <trkpt lat="28.496214" lon="-16.342538">
        <ele>592.8</ele>
        <time>1970-01-01T12:13:14.000Z</time>
      </trkpt>
      <trkpt lat="28.496221" lon="-16.34255">
        <ele>593.0</ele>
        <time>1970-01-01T12:13:15.000Z</time>
      </trkpt>
      <trkpt lat="28.496254" lon="-16.342597">
        <ele>594.2</ele>
        <time>1970-01-01T12:13:19.000Z</time>
      </trkpt>
      <trkpt lat="28.496314" lon="-16.342656">
        <ele>595.2</ele>
        <time>1970-01-01T12:13:26.000Z</time>
      </trkpt>
      <trkpt lat="28.496334" lon="-16.342683">
        <ele>596.4</ele>
        <time>1970-01-01T12:13:29.000Z</time>
      </trkpt>
      <trkpt lat="28.496361" lon="-16.342713">
        <ele>597.4</ele>
        <time>1970-01-01T12:13:33.000Z</time>
      </trkpt>
      <trkpt lat="28.496399" lon="-16.342754">
        <ele>598.6</ele>
        <time>1970-01-01T12:13:38.000Z</time>
      </trkpt>
      <trkpt lat="28.496435" lon="-16.342799">
        <ele>600.0</ele>
        <time>1970-01-01T12:13:43.000Z</time>
      </trkpt>
      <trkpt lat="28.496472" lon="-16.342832">
        <ele>601.2</ele>
        <time>1970-01-01T12:13:48.000Z</time>
      </trkpt>
      <trkpt lat="28.496505" lon="-16.342876">
        <ele>602.2</ele>
        <time>1970-01-01T12:13:52.000Z</time>
      </trkpt>
      <trkpt lat="28.496553" lon="-16.342928">
        <ele>603.4</ele>
        <time>1970-01-01T12:13:57.000Z</time>
      </trkpt>
      <trkpt lat="28.49658" lon="-16.342965">
        <ele>604.4</ele>
        <time>1970-01-01T12:14:01.000Z</time>
      </trkpt>
      <trkpt lat="28.496594" lon="-16.342983">
        <ele>604.8</ele>
        <time>1970-01-01T12:14:03.000Z</time>
      </trkpt>
      <trkpt lat="28.496618" lon="-16.343009">
        <ele>605.6</ele>
        <time>1970-01-01T12:14:06.000Z</time>
      </trkpt>
      <trkpt lat="28.496655" lon="-16.343064">
        <ele>606.6</ele>
        <time>1970-01-01T12:14:12.000Z</time>
      </trkpt>
      <trkpt lat="28.496673" lon="-16.343094">
        <ele>607.8</ele>
        <time>1970-01-01T12:14:15.000Z</time>
      </trkpt>
      <trkpt lat="28.496706" lon="-16.343142">
        <ele>608.8</ele>
        <time>1970-01-01T12:14:20.000Z</time>
      </trkpt>
      <trkpt lat="28.496727" lon="-16.343189">
        <ele>610.0</ele>
        <time>1970-01-01T12:14:25.000Z</time>
      </trkpt>
      <trkpt lat="28.496731" lon="-16.343197">
        <ele>610.2</ele>
        <time>1970-01-01T12:14:26.000Z</time>
      </trkpt>
      <trkpt lat="28.496746" lon="-16.343229">
        <ele>611.0</ele>
        <time>1970-01-01T12:14:29.000Z</time>
      </trkpt>
      <trkpt lat="28.496773" lon="-16.343274">
        <ele>612.0</ele>
        <time>1970-01-01T12:14:34.000Z</time>
      </trkpt>
      <trkpt lat="28.496787" lon="-16.343286">
        <ele>612.2</ele>
        <time>1970-01-01T12:14:36.000Z</time>
      </trkpt>
      <trkpt lat="28.496806" lon="-16.343339">
        <ele>613.2</ele>
        <time>1970-01-01T12:14:42.000Z</time>
      </trkpt>
      <trkpt lat="28.496802" lon="-16.34338">
        <ele>614.0</ele>
        <time>1970-01-01T12:14:46.000Z</time>
      </trkpt>
      <trkpt lat="28.496803" lon="-16.34339">
        <ele>614.2</ele>
        <time>1970-01-01T12:14:47.000Z</time>
      </trkpt>
      <trkpt lat="28.496801" lon="-16.343421">
        <ele>615.0</ele>
        <time>1970-01-01T12:14:51.000Z</time>
      </trkpt>
      <trkpt lat="28.496805" lon="-16.343442">
        <ele>615.4</ele>
        <time>1970-01-01T12:14:53.000Z</time>
      </trkpt>
      <trkpt lat="28.496811" lon="-16.343477">
        <ele>616.8</ele>
        <time>1970-01-01T12:14:57.000Z</time>
      </trkpt>
      <trkpt lat="28.496818" lon="-16.343519">
        <ele>618.0</ele>
        <time>1970-01-01T12:15:02.000Z</time>
      </trkpt>
      <trkpt lat="28.496824" lon="-16.34355">
        <ele>619.2</ele>
        <time>1970-01-01T12:15:06.000Z</time>
      </trkpt>
      <trkpt lat="28.496828" lon="-16.343599">
        <ele>620.2</ele>
        <time>1970-01-01T12:15:11.000Z</time>
      </trkpt>
      <trkpt lat="28.496846" lon="-16.343693">
        <ele>621.2</ele>
        <time>1970-01-01T12:15:16.000Z</time>
      </trkpt>
      <trkpt lat="28.496868" lon="-16.343759">
        <ele>622.2</ele>
        <time>1970-01-01T12:15:19.000Z</time>
      </trkpt>
      <trkpt lat="28.496884" lon="-16.343828">
        <ele>623.6</ele>
        <time>1970-01-01T12:15:22.000Z</time>
      </trkpt>
      <trkpt lat="28.496909" lon="-16.34395">
        <ele>624.6</ele>
        <time>1970-01-01T12:15:27.000Z</time>
      </trkpt>
      <trkpt lat="28.496912" lon="-16.344056">
        <ele>625.6</ele>
        <time>1970-01-01T12:15:31.000Z</time>
      </trkpt>
      <trkpt lat="28.49691" lon="-16.344083">
        <ele>626.0</ele>
        <time>1970-01-01T12:15:32.000Z</time>
      </trkpt>
      <trkpt lat="28.496908" lon="-16.344109">
        <ele>626.2</ele>
        <time>1970-01-01T12:15:33.000Z</time>
      </trkpt>
      <trkpt lat="28.496903" lon="-16.344155">
        <ele>626.4</ele>
        <time>1970-01-01T12:15:35.000Z</time>
      </trkpt>
      <trkpt lat="28.496894" lon="-16.344203">
        <ele>626.6</ele>
        <time>1970-01-01T12:15:37.000Z</time>
      </trkpt>
      <trkpt lat="28.49689" lon="-16.344227">
        <ele>626.6</ele>
        <time>1970-01-01T12:15:38.000Z</time>
      </trkpt>
      <trkpt lat="28.496875" lon="-16.344269">
        <ele>627.2</ele>
        <time>1970-01-01T12:15:40.000Z</time>
      </trkpt>
      <trkpt lat="28.496866" lon="-16.34429">
        <ele>627.4</ele>
        <time>1970-01-01T12:15:41.000Z</time>
      </trkpt>
      <trkpt lat="28.496813" lon="-16.344404">
        <ele>628.2</ele>
        <time>1970-01-01T12:15:47.000Z</time>
      </trkpt>
      <trkpt lat="28.496793" lon="-16.34444">
        <ele>628.6</ele>
        <time>1970-01-01T12:15:49.000Z</time>
      </trkpt>
      <trkpt lat="28.496769" lon="-16.344497">
        <ele>629.2</ele>
        <time>1970-01-01T12:15:52.000Z</time>
      </trkpt>
      <trkpt lat="28.496731" lon="-16.344592">
        <ele>630.4</ele>
        <time>1970-01-01T12:15:56.000Z</time>
      </trkpt>
      <trkpt lat="28.496722" lon="-16.344641">
        <ele>630.6</ele>
        <time>1970-01-01T12:15:58.000Z</time>
      </trkpt>
      <trkpt lat="28.496701" lon="-16.344711">
        <ele>631.2</ele>
        <time>1970-01-01T12:16:01.000Z</time>
      </trkpt>
      <trkpt lat="28.496691" lon="-16.344734">
        <ele>631.6</ele>
        <time>1970-01-01T12:16:02.000Z</time>
      </trkpt>
      <trkpt lat="28.496673" lon="-16.344804">
        <ele>632.0</ele>
        <time>1970-01-01T12:16:05.000Z</time>
      </trkpt>
      <trkpt lat="28.496661" lon="-16.34486">
        <ele>632.6</ele>
        <time>1970-01-01T12:16:07.000Z</time>
      </trkpt>
      <trkpt lat="28.496666" lon="-16.344944">
        <ele>633.2</ele>
        <time>1970-01-01T12:16:10.000Z</time>
      </trkpt>
      <trkpt lat="28.496667" lon="-16.344999">
        <ele>633.6</ele>
        <time>1970-01-01T12:16:12.000Z</time>
      </trkpt>
      <trkpt lat="28.496676" lon="-16.345148">
        <ele>634.0</ele>
        <time>1970-01-01T12:16:18.000Z</time>
      </trkpt>
      <trkpt lat="28.496687" lon="-16.345191">
        <ele>634.2</ele>
        <time>1970-01-01T12:16:20.000Z</time>
      </trkpt>
      <trkpt lat="28.496697" lon="-16.345212">
        <ele>634.2</ele>
        <time>1970-01-01T12:16:21.000Z</time>
      </trkpt>
      <trkpt lat="28.496707" lon="-16.345231">
        <ele>634.4</ele>
        <time>1970-01-01T12:16:22.000Z</time>
      </trkpt>
      <trkpt lat="28.496718" lon="-16.345251">
        <ele>634.6</ele>
        <time>1970-01-01T12:16:23.000Z</time>
      </trkpt>
      <trkpt lat="28.496724" lon="-16.34527">
        <ele>635.0</ele>
        <time>1970-01-01T12:16:24.000Z</time>
      </trkpt>
      <trkpt lat="28.496725" lon="-16.34529">
        <ele>635.2</ele>
        <time>1970-01-01T12:16:25.000Z</time>
      </trkpt>
      <trkpt lat="28.496723" lon="-16.34533">
        <ele>635.6</ele>
        <time>1970-01-01T12:16:27.000Z</time>
      </trkpt>
      <trkpt lat="28.496717" lon="-16.345387">
        <ele>636.6</ele>
        <time>1970-01-01T12:16:30.000Z</time>
      </trkpt>
      <trkpt lat="28.496713" lon="-16.345407">
        <ele>636.8</ele>
        <time>1970-01-01T12:16:31.000Z</time>
      </trkpt>
      <trkpt lat="28.496683" lon="-16.34551">
        <ele>637.8</ele>
        <time>1970-01-01T12:16:36.000Z</time>
      </trkpt>
      <trkpt lat="28.496683" lon="-16.345533">
        <ele>638.0</ele>
        <time>1970-01-01T12:16:37.000Z</time>
      </trkpt>
      <trkpt lat="28.496712" lon="-16.345564">
        <ele>638.6</ele>
        <time>1970-01-01T12:16:39.000Z</time>
      </trkpt>
      <trkpt lat="28.496759" lon="-16.345574">
        <ele>639.2</ele>
        <time>1970-01-01T12:16:41.000Z</time>
      </trkpt>
      <trkpt lat="28.496861" lon="-16.345575">
        <ele>640.4</ele>
        <time>1970-01-01T12:16:45.000Z</time>
      </trkpt>
      <trkpt lat="28.496946" lon="-16.345601">
        <ele>641.4</ele>
        <time>1970-01-01T12:16:49.000Z</time>
      </trkpt>
      <trkpt lat="28.496955" lon="-16.345618">
        <ele>641.6</ele>
        <time>1970-01-01T12:16:50.000Z</time>
      </trkpt>
      <trkpt lat="28.497088" lon="-16.345743">
        <ele>641.8</ele>
        <time>1970-01-01T12:16:56.000Z</time>
      </trkpt>
      <trkpt lat="28.497204" lon="-16.345931">
        <ele>640.8</ele>
        <time>1970-01-01T12:17:03.000Z</time>
      </trkpt>
      <trkpt lat="28.497235" lon="-16.346048">
        <ele>640.4</ele>
        <time>1970-01-01T12:17:07.000Z</time>
      </trkpt>
      <trkpt lat="28.497233" lon="-16.346141">
        <ele>639.4</ele>
        <time>1970-01-01T12:17:10.000Z</time>
      </trkpt>
      <trkpt lat="28.497215" lon="-16.346255">
        <ele>638.2</ele>
        <time>1970-01-01T12:17:14.000Z</time>
      </trkpt>
      <trkpt lat="28.497279" lon="-16.346423">
        <ele>637.4</ele>
        <time>1970-01-01T12:17:20.000Z</time>
      </trkpt>
      <trkpt lat="28.497296" lon="-16.346448">
        <ele>637.2</ele>
        <time>1970-01-01T12:17:21.000Z</time>
      </trkpt>
      <trkpt lat="28.497363" lon="-16.346563">
        <ele>635.2</ele>
        <time>1970-01-01T12:17:25.000Z</time>
      </trkpt>
      <trkpt lat="28.49741" lon="-16.34661">
        <ele>633.8</ele>
        <time>1970-01-01T12:17:27.000Z</time>
      </trkpt>
      <trkpt lat="28.497496" lon="-16.346649">
        <ele>632.2</ele>
        <time>1970-01-01T12:17:30.000Z</time>
      </trkpt>
      <trkpt lat="28.49756" lon="-16.346673">
        <ele>631.2</ele>
        <time>1970-01-01T12:17:32.000Z</time>
      </trkpt>
      <trkpt lat="28.497592" lon="-16.346693">
        <ele>630.0</ele>
        <time>1970-01-01T12:17:33.000Z</time>
      </trkpt>
      <trkpt lat="28.497676" lon="-16.346765">
        <ele>628.6</ele>
        <time>1970-01-01T12:17:36.000Z</time>
      </trkpt>
      <trkpt lat="28.497741" lon="-16.346835">
        <ele>627.4</ele>
        <time>1970-01-01T12:17:39.000Z</time>
      </trkpt>
      <trkpt lat="28.497844" lon="-16.346895">
        <ele>626.4</ele>
        <time>1970-01-01T12:17:43.000Z</time>
      </trkpt>
      <trkpt lat="28.497915" lon="-16.346956">
        <ele>625.2</ele>
        <time>1970-01-01T12:17:46.000Z</time>
      </trkpt>
      <trkpt lat="28.498011" lon="-16.346994">
        <ele>624.0</ele>
        <time>1970-01-01T12:17:49.000Z</time>
      </trkpt>
      <trkpt lat="28.498067" lon="-16.347013">
        <ele>622.8</ele>
        <time>1970-01-01T12:17:51.000Z</time>
      </trkpt>
      <trkpt lat="28.498122" lon="-16.347052">
        <ele>621.6</ele>
        <time>1970-01-01T12:17:54.000Z</time>
      </trkpt>
      <trkpt lat="28.498192" lon="-16.347162">
        <ele>621.2</ele>
        <time>1970-01-01T12:18:01.000Z</time>
      </trkpt>
      <trkpt lat="28.498295" lon="-16.347309">
        <ele>621.8</ele>
        <time>1970-01-01T12:18:09.000Z</time>
      </trkpt>
      <trkpt lat="28.498475" lon="-16.347357">
        <ele>622.0</ele>
        <time>1970-01-01T12:18:17.000Z</time>
      </trkpt>
      <trkpt lat="28.498607" lon="-16.347371">
        <ele>621.6</ele>
        <time>1970-01-01T12:18:23.000Z</time>
      </trkpt>
      <trkpt lat="28.498611" lon="-16.34734">
        <ele>619.8</ele>
        <time>1970-01-01T12:18:59.000Z</time>
      </trkpt>
      <trkpt lat="28.498624" lon="-16.347341">
        <ele>619.8</ele>
        <time>1970-01-01T12:19:00.000Z</time>
      </trkpt>
      <trkpt lat="28.498702" lon="-16.347354">
        <ele>619.8</ele>
        <time>1970-01-01T12:19:03.000Z</time>
      </trkpt>
      <trkpt lat="28.498883" lon="-16.347392">
        <ele>619.6</ele>
        <time>1970-01-01T12:19:08.000Z</time>
      </trkpt>
      <trkpt lat="28.499021" lon="-16.347429">
        <ele>618.8</ele>
        <time>1970-01-01T12:19:12.000Z</time>
      </trkpt>
      <trkpt lat="28.499052" lon="-16.347437">
        <ele>618.4</ele>
        <time>1970-01-01T12:19:13.000Z</time>
      </trkpt>
      <trkpt lat="28.499082" lon="-16.347447">
        <ele>618.2</ele>
        <time>1970-01-01T12:19:14.000Z</time>
      </trkpt>
      <trkpt lat="28.499111" lon="-16.347455">
        <ele>618.0</ele>
        <time>1970-01-01T12:19:15.000Z</time>
      </trkpt>
      <trkpt lat="28.499238" lon="-16.347479">
        <ele>617.6</ele>
        <time>1970-01-01T12:19:19.000Z</time>
      </trkpt>
      <trkpt lat="28.499429" lon="-16.347514">
        <ele>617.4</ele>
        <time>1970-01-01T12:19:25.000Z</time>
      </trkpt>
      <trkpt lat="28.499493" lon="-16.347507">
        <ele>617.2</ele>
        <time>1970-01-01T12:19:27.000Z</time>
      </trkpt>
      <trkpt lat="28.499523" lon="-16.347502">
        <ele>617.2</ele>
        <time>1970-01-01T12:19:28.000Z</time>
      </trkpt>
      <trkpt lat="28.499612" lon="-16.347518">
        <ele>617.2</ele>
        <time>1970-01-01T12:19:31.000Z</time>
      </trkpt>
      <trkpt lat="28.499642" lon="-16.347528">
        <ele>616.8</ele>
        <time>1970-01-01T12:19:32.000Z</time>
      </trkpt>
      <trkpt lat="28.49967" lon="-16.347536">
        <ele>616.2</ele>
        <time>1970-01-01T12:19:33.000Z</time>
      </trkpt>
      <trkpt lat="28.499725" lon="-16.347548">
        <ele>615.0</ele>
        <time>1970-01-01T12:19:35.000Z</time>
      </trkpt>
      <trkpt lat="28.499779" lon="-16.347554">
        <ele>613.8</ele>
        <time>1970-01-01T12:19:37.000Z</time>
      </trkpt>
      <trkpt lat="28.499833" lon="-16.347559">
        <ele>612.4</ele>
        <time>1970-01-01T12:19:39.000Z</time>
      </trkpt>
      <trkpt lat="28.499885" lon="-16.347559">
        <ele>610.8</ele>
        <time>1970-01-01T12:19:41.000Z</time>
      </trkpt>
      <trkpt lat="28.499906" lon="-16.347557">
        <ele>610.0</ele>
        <time>1970-01-01T12:19:42.000Z</time>
      </trkpt>
      <trkpt lat="28.499927" lon="-16.347554">
        <ele>609.2</ele>
        <time>1970-01-01T12:19:43.000Z</time>
      </trkpt>
      <trkpt lat="28.499949" lon="-16.347549">
        <ele>608.0</ele>
        <time>1970-01-01T12:19:44.000Z</time>
      </trkpt>
      <trkpt lat="28.499973" lon="-16.347548">
        <ele>607.2</ele>
        <time>1970-01-01T12:19:45.000Z</time>
      </trkpt>
      <trkpt lat="28.499998" lon="-16.347548">
        <ele>606.4</ele>
        <time>1970-01-01T12:19:46.000Z</time>
      </trkpt>
      <trkpt lat="28.500054" lon="-16.347549">
        <ele>604.8</ele>
        <time>1970-01-01T12:19:48.000Z</time>
      </trkpt>
      <trkpt lat="28.500084" lon="-16.347551">
        <ele>603.8</ele>
        <time>1970-01-01T12:19:49.000Z</time>
      </trkpt>
      <trkpt lat="28.500141" lon="-16.347566">
        <ele>602.6</ele>
        <time>1970-01-01T12:19:51.000Z</time>
      </trkpt>
      <trkpt lat="28.500194" lon="-16.347597">
        <ele>601.0</ele>
        <time>1970-01-01T12:19:53.000Z</time>
      </trkpt>
      <trkpt lat="28.500244" lon="-16.347636">
        <ele>599.6</ele>
        <time>1970-01-01T12:19:55.000Z</time>
      </trkpt>
      <trkpt lat="28.500283" lon="-16.347689">
        <ele>598.4</ele>
        <time>1970-01-01T12:19:57.000Z</time>
      </trkpt>
      <trkpt lat="28.500305" lon="-16.34775">
        <ele>597.2</ele>
        <time>1970-01-01T12:19:59.000Z</time>
      </trkpt>
      <trkpt lat="28.500308" lon="-16.347819">
        <ele>595.8</ele>
        <time>1970-01-01T12:20:01.000Z</time>
      </trkpt>
      <trkpt lat="28.50028" lon="-16.34788">
        <ele>594.2</ele>
        <time>1970-01-01T12:20:03.000Z</time>
      </trkpt>
      <trkpt lat="28.500227" lon="-16.347921">
        <ele>593.0</ele>
        <time>1970-01-01T12:20:05.000Z</time>
      </trkpt>
      <trkpt lat="28.500178" lon="-16.347956">
        <ele>592.0</ele>
        <time>1970-01-01T12:20:07.000Z</time>
      </trkpt>
      <trkpt lat="28.500127" lon="-16.347987">
        <ele>590.8</ele>
        <time>1970-01-01T12:20:09.000Z</time>
      </trkpt>
      <trkpt lat="28.500039" lon="-16.348007">
        <ele>589.8</ele>
        <time>1970-01-01T12:20:12.000Z</time>
      </trkpt>
      <trkpt lat="28.499863" lon="-16.348031">
        <ele>588.6</ele>
        <time>1970-01-01T12:20:18.000Z</time>
      </trkpt>
      <trkpt lat="28.499835" lon="-16.348034">
        <ele>588.6</ele>
        <time>1970-01-01T12:20:19.000Z</time>
      </trkpt>
      <trkpt lat="28.499732" lon="-16.348078">
        <ele>588.0</ele>
        <time>1970-01-01T12:20:23.000Z</time>
      </trkpt>
      <trkpt lat="28.499708" lon="-16.348094">
        <ele>587.8</ele>
        <time>1970-01-01T12:20:24.000Z</time>
      </trkpt>
      <trkpt lat="28.499665" lon="-16.348142">
        <ele>587.6</ele>
        <time>1970-01-01T12:20:26.000Z</time>
      </trkpt>
      <trkpt lat="28.499592" lon="-16.3483">
        <ele>587.0</ele>
        <time>1970-01-01T12:20:31.000Z</time>
      </trkpt>
      <trkpt lat="28.499557" lon="-16.348368">
        <ele>586.4</ele>
        <time>1970-01-01T12:20:33.000Z</time>
      </trkpt>
      <trkpt lat="28.499534" lon="-16.348439">
        <ele>584.8</ele>
        <time>1970-01-01T12:20:35.000Z</time>
      </trkpt>
      <trkpt lat="28.499518" lon="-16.348574">
        <ele>583.8</ele>
        <time>1970-01-01T12:20:39.000Z</time>
      </trkpt>
      <trkpt lat="28.499518" lon="-16.348608">
        <ele>583.2</ele>
        <time>1970-01-01T12:20:40.000Z</time>
      </trkpt>
      <trkpt lat="28.499518" lon="-16.348644">
        <ele>582.8</ele>
        <time>1970-01-01T12:20:41.000Z</time>
      </trkpt>
      <trkpt lat="28.499521" lon="-16.34868">
        <ele>582.4</ele>
        <time>1970-01-01T12:20:42.000Z</time>
      </trkpt>
      <trkpt lat="28.499545" lon="-16.348849">
        <ele>581.8</ele>
        <time>1970-01-01T12:20:47.000Z</time>
      </trkpt>
      <trkpt lat="28.499595" lon="-16.349056">
        <ele>581.4</ele>
        <time>1970-01-01T12:20:53.000Z</time>
      </trkpt>
      <trkpt lat="28.499695" lon="-16.34924">
        <ele>580.2</ele>
        <time>1970-01-01T12:20:59.000Z</time>
      </trkpt>
      <trkpt lat="28.499827" lon="-16.349338">
        <ele>578.8</ele>
        <time>1970-01-01T12:21:04.000Z</time>
      </trkpt>
      <trkpt lat="28.499911" lon="-16.349389">
        <ele>577.8</ele>
        <time>1970-01-01T12:21:07.000Z</time>
      </trkpt>
      <trkpt lat="28.499999" lon="-16.349418">
        <ele>576.4</ele>
        <time>1970-01-01T12:21:10.000Z</time>
      </trkpt>
      <trkpt lat="28.500108" lon="-16.349335">
        <ele>574.6</ele>
        <time>1970-01-01T12:21:15.000Z</time>
      </trkpt>
      <trkpt lat="28.500127" lon="-16.349276">
        <ele>573.4</ele>
        <time>1970-01-01T12:21:17.000Z</time>
      </trkpt>
      <trkpt lat="28.500143" lon="-16.349212">
        <ele>572.4</ele>
        <time>1970-01-01T12:21:19.000Z</time>
      </trkpt>
      <trkpt lat="28.500163" lon="-16.349112">
        <ele>571.0</ele>
        <time>1970-01-01T12:21:22.000Z</time>
      </trkpt>
      <trkpt lat="28.500173" lon="-16.349022">
        <ele>569.6</ele>
        <time>1970-01-01T12:21:25.000Z</time>
      </trkpt>
      <trkpt lat="28.500182" lon="-16.348961">
        <ele>568.4</ele>
        <time>1970-01-01T12:21:27.000Z</time>
      </trkpt>
      <trkpt lat="28.500214" lon="-16.348835">
        <ele>567.4</ele>
        <time>1970-01-01T12:21:31.000Z</time>
      </trkpt>
      <trkpt lat="28.500295" lon="-16.348647">
        <ele>566.8</ele>
        <time>1970-01-01T12:21:37.000Z</time>
      </trkpt>
      <trkpt lat="28.500331" lon="-16.34859">
        <ele>566.4</ele>
        <time>1970-01-01T12:21:39.000Z</time>
      </trkpt>
      <trkpt lat="28.500448" lon="-16.348413">
        <ele>565.4</ele>
        <time>1970-01-01T12:21:46.000Z</time>
      </trkpt>
      <trkpt lat="28.50049" lon="-16.348382">
        <ele>565.2</ele>
        <time>1970-01-01T12:21:48.000Z</time>
      </trkpt>
      <trkpt lat="28.500602" lon="-16.348307">
        <ele>564.2</ele>
        <time>1970-01-01T12:21:53.000Z</time>
      </trkpt>
      <trkpt lat="28.500718" lon="-16.348277">
        <ele>563.0</ele>
        <time>1970-01-01T12:21:57.000Z</time>
      </trkpt>
      <trkpt lat="28.500741" lon="-16.348274">
        <ele>562.8</ele>
        <time>1970-01-01T12:21:58.000Z</time>
      </trkpt>
      <trkpt lat="28.50076" lon="-16.348292">
        <ele>558.0</ele>
        <time>1970-01-01T12:22:35.000Z</time>
      </trkpt>
      <trkpt lat="28.500775" lon="-16.348303">
        <ele>558.2</ele>
        <time>1970-01-01T12:22:36.000Z</time>
      </trkpt>
      <trkpt lat="28.500843" lon="-16.348447">
        <ele>557.8</ele>
        <time>1970-01-01T12:22:42.000Z</time>
      </trkpt>
      <trkpt lat="28.500854" lon="-16.348527">
        <ele>557.2</ele>
        <time>1970-01-01T12:22:45.000Z</time>
      </trkpt>
      <trkpt lat="28.500848" lon="-16.348554">
        <ele>556.4</ele>
        <time>1970-01-01T12:22:46.000Z</time>
      </trkpt>
      <trkpt lat="28.500835" lon="-16.348623">
        <ele>555.2</ele>
        <time>1970-01-01T12:22:48.000Z</time>
      </trkpt>
      <trkpt lat="28.500819" lon="-16.348688">
        <ele>552.8</ele>
        <time>1970-01-01T12:22:50.000Z</time>
      </trkpt>
      <trkpt lat="28.50081" lon="-16.348747">
        <ele>551.8</ele>
        <time>1970-01-01T12:22:52.000Z</time>
      </trkpt>
      <trkpt lat="28.500804" lon="-16.348811">
        <ele>550.4</ele>
        <time>1970-01-01T12:22:54.000Z</time>
      </trkpt>
      <trkpt lat="28.500804" lon="-16.348878">
        <ele>549.4</ele>
        <time>1970-01-01T12:22:56.000Z</time>
      </trkpt>
      <trkpt lat="28.500849" lon="-16.348972">
        <ele>548.2</ele>
        <time>1970-01-01T12:22:59.000Z</time>
      </trkpt>
      <trkpt lat="28.500878" lon="-16.348977">
        <ele>548.0</ele>
        <time>1970-01-01T12:23:00.000Z</time>
      </trkpt>
      <trkpt lat="28.500933" lon="-16.348943">
        <ele>547.6</ele>
        <time>1970-01-01T12:23:02.000Z</time>
      </trkpt>
      <trkpt lat="28.500951" lon="-16.348915">
        <ele>546.8</ele>
        <time>1970-01-01T12:23:03.000Z</time>
      </trkpt>
      <trkpt lat="28.500976" lon="-16.34885">
        <ele>545.6</ele>
        <time>1970-01-01T12:23:05.000Z</time>
      </trkpt>
      <trkpt lat="28.500988" lon="-16.348817">
        <ele>545.2</ele>
        <time>1970-01-01T12:23:06.000Z</time>
      </trkpt>
      <trkpt lat="28.501001" lon="-16.348788">
        <ele>544.4</ele>
        <time>1970-01-01T12:23:07.000Z</time>
      </trkpt>
      <trkpt lat="28.50103" lon="-16.348732">
        <ele>543.2</ele>
        <time>1970-01-01T12:23:09.000Z</time>
      </trkpt>
      <trkpt lat="28.501045" lon="-16.348705">
        <ele>542.8</ele>
        <time>1970-01-01T12:23:10.000Z</time>
      </trkpt>
      <trkpt lat="28.501054" lon="-16.348675">
        <ele>542.4</ele>
        <time>1970-01-01T12:23:11.000Z</time>
      </trkpt>
      <trkpt lat="28.501061" lon="-16.348645">
        <ele>542.2</ele>
        <time>1970-01-01T12:23:12.000Z</time>
      </trkpt>
      <trkpt lat="28.501112" lon="-16.348538">
        <ele>540.8</ele>
        <time>1970-01-01T12:23:16.000Z</time>
      </trkpt>
      <trkpt lat="28.501156" lon="-16.348462">
        <ele>539.6</ele>
        <time>1970-01-01T12:23:19.000Z</time>
      </trkpt>
      <trkpt lat="28.501198" lon="-16.34839">
        <ele>538.2</ele>
        <time>1970-01-01T12:23:22.000Z</time>
      </trkpt>
      <trkpt lat="28.501236" lon="-16.348358">
        <ele>536.8</ele>
        <time>1970-01-01T12:23:24.000Z</time>
      </trkpt>
      <trkpt lat="28.501278" lon="-16.348329">
        <ele>535.2</ele>
        <time>1970-01-01T12:23:26.000Z</time>
      </trkpt>
      <trkpt lat="28.501314" lon="-16.348295">
        <ele>533.4</ele>
        <time>1970-01-01T12:23:28.000Z</time>
      </trkpt>
      <trkpt lat="28.501364" lon="-16.348264">
        <ele>532.2</ele>
        <time>1970-01-01T12:23:30.000Z</time>
      </trkpt>
      <trkpt lat="28.501409" lon="-16.348237">
        <ele>531.0</ele>
        <time>1970-01-01T12:23:32.000Z</time>
      </trkpt>
      <trkpt lat="28.501453" lon="-16.348207">
        <ele>529.8</ele>
        <time>1970-01-01T12:23:34.000Z</time>
      </trkpt>
      <trkpt lat="28.501534" lon="-16.348194">
        <ele>528.8</ele>
        <time>1970-01-01T12:23:37.000Z</time>
      </trkpt>
      <trkpt lat="28.501623" lon="-16.34819">
        <ele>527.2</ele>
        <time>1970-01-01T12:23:40.000Z</time>
      </trkpt>
      <trkpt lat="28.501707" lon="-16.348154">
        <ele>525.2</ele>
        <time>1970-01-01T12:23:43.000Z</time>
      </trkpt>
      <trkpt lat="28.50176" lon="-16.348137">
        <ele>524.2</ele>
        <time>1970-01-01T12:23:45.000Z</time>
      </trkpt>
      <trkpt lat="28.501884" lon="-16.348111">
        <ele>523.2</ele>
        <time>1970-01-01T12:23:49.000Z</time>
      </trkpt>
      <trkpt lat="28.501932" lon="-16.348122">
        <ele>522.6</ele>
        <time>1970-01-01T12:23:51.000Z</time>
      </trkpt>
      <trkpt lat="28.501943" lon="-16.348142">
        <ele>522.0</ele>
        <time>1970-01-01T12:23:52.000Z</time>
      </trkpt>
      <trkpt lat="28.501935" lon="-16.348169">
        <ele>521.8</ele>
        <time>1970-01-01T12:23:53.000Z</time>
      </trkpt>
      <trkpt lat="28.501864" lon="-16.348231">
        <ele>521.0</ele>
        <time>1970-01-01T12:23:56.000Z</time>
      </trkpt>
      <trkpt lat="28.501709" lon="-16.348364">
        <ele>520.0</ele>
        <time>1970-01-01T12:24:02.000Z</time>
      </trkpt>
      <trkpt lat="28.501644" lon="-16.348441">
        <ele>518.6</ele>
        <time>1970-01-01T12:24:05.000Z</time>
      </trkpt>
      <trkpt lat="28.501573" lon="-16.348559">
        <ele>517.2</ele>
        <time>1970-01-01T12:24:09.000Z</time>
      </trkpt>
      <trkpt lat="28.501556" lon="-16.348616">
        <ele>516.0</ele>
        <time>1970-01-01T12:24:11.000Z</time>
      </trkpt>
      <trkpt lat="28.501536" lon="-16.348701">
        <ele>515.0</ele>
        <time>1970-01-01T12:24:14.000Z</time>
      </trkpt>
      <trkpt lat="28.501557" lon="-16.348829">
        <ele>514.0</ele>
        <time>1970-01-01T12:24:18.000Z</time>
      </trkpt>
      <trkpt lat="28.501595" lon="-16.348911">
        <ele>512.6</ele>
        <time>1970-01-01T12:24:21.000Z</time>
      </trkpt>
      <trkpt lat="28.501637" lon="-16.348997">
        <ele>511.0</ele>
        <time>1970-01-01T12:24:24.000Z</time>
      </trkpt>
      <trkpt lat="28.501673" lon="-16.349074">
        <ele>509.8</ele>
        <time>1970-01-01T12:24:27.000Z</time>
      </trkpt>
      <trkpt lat="28.501708" lon="-16.34911">
        <ele>508.4</ele>
        <time>1970-01-01T12:24:29.000Z</time>
      </trkpt>
      <trkpt lat="28.501735" lon="-16.34911">
        <ele>507.8</ele>
        <time>1970-01-01T12:24:30.000Z</time>
      </trkpt>
      <trkpt lat="28.501764" lon="-16.349102">
        <ele>507.2</ele>
        <time>1970-01-01T12:24:31.000Z</time>
      </trkpt>
      <trkpt lat="28.501812" lon="-16.349067">
        <ele>506.2</ele>
        <time>1970-01-01T12:24:33.000Z</time>
      </trkpt>
      <trkpt lat="28.50185" lon="-16.349018">
        <ele>505.2</ele>
        <time>1970-01-01T12:24:35.000Z</time>
      </trkpt>
      <trkpt lat="28.50192" lon="-16.348911">
        <ele>504.0</ele>
        <time>1970-01-01T12:24:39.000Z</time>
      </trkpt>
      <trkpt lat="28.502012" lon="-16.34886">
        <ele>502.4</ele>
        <time>1970-01-01T12:24:43.000Z</time>
      </trkpt>
      <trkpt lat="28.502059" lon="-16.34885">
        <ele>501.4</ele>
        <time>1970-01-01T12:24:45.000Z</time>
      </trkpt>
      <trkpt lat="28.502105" lon="-16.348842">
        <ele>500.0</ele>
        <time>1970-01-01T12:24:47.000Z</time>
      </trkpt>
      <trkpt lat="28.502173" lon="-16.348842">
        <ele>498.8</ele>
        <time>1970-01-01T12:24:50.000Z</time>
      </trkpt>
      <trkpt lat="28.502227" lon="-16.348854">
        <ele>497.4</ele>
        <time>1970-01-01T12:24:52.000Z</time>
      </trkpt>
      <trkpt lat="28.502302" lon="-16.348868">
        <ele>496.0</ele>
        <time>1970-01-01T12:24:55.000Z</time>
      </trkpt>
      <trkpt lat="28.502355" lon="-16.348883">
        <ele>494.8</ele>
        <time>1970-01-01T12:24:57.000Z</time>
      </trkpt>
      <trkpt lat="28.502387" lon="-16.348921">
        <ele>494.0</ele>
        <time>1970-01-01T12:24:59.000Z</time>
      </trkpt>
      <trkpt lat="28.502379" lon="-16.348945">
        <ele>493.2</ele>
        <time>1970-01-01T12:25:00.000Z</time>
      </trkpt>
      <trkpt lat="28.502345" lon="-16.348976">
        <ele>491.6</ele>
        <time>1970-01-01T12:25:02.000Z</time>
      </trkpt>
      <trkpt lat="28.502269" lon="-16.349003">
        <ele>490.4</ele>
        <time>1970-01-01T12:25:05.000Z</time>
      </trkpt>
      <trkpt lat="28.502194" lon="-16.349093">
        <ele>489.2</ele>
        <time>1970-01-01T12:25:09.000Z</time>
      </trkpt>
      <trkpt lat="28.502195" lon="-16.349187">
        <ele>488.2</ele>
        <time>1970-01-01T12:25:12.000Z</time>
      </trkpt>
      <trkpt lat="28.502212" lon="-16.349211">
        <ele>487.8</ele>
        <time>1970-01-01T12:25:13.000Z</time>
      </trkpt>
      <trkpt lat="28.50226" lon="-16.349235">
        <ele>487.0</ele>
        <time>1970-01-01T12:25:15.000Z</time>
      </trkpt>
      <trkpt lat="28.502289" lon="-16.349234">
        <ele>486.6</ele>
        <time>1970-01-01T12:25:16.000Z</time>
      </trkpt>
      <trkpt lat="28.502418" lon="-16.349168">
        <ele>485.4</ele>
        <time>1970-01-01T12:25:21.000Z</time>
      </trkpt>
      <trkpt lat="28.502529" lon="-16.349102">
        <ele>483.6</ele>
        <time>1970-01-01T12:25:25.000Z</time>
      </trkpt>
      <trkpt lat="28.502587" lon="-16.349069">
        <ele>482.4</ele>
        <time>1970-01-01T12:25:27.000Z</time>
      </trkpt>
      <trkpt lat="28.502637" lon="-16.34903">
        <ele>481.2</ele>
        <time>1970-01-01T12:25:29.000Z</time>
      </trkpt>
      <trkpt lat="28.502701" lon="-16.348934">
        <ele>480.2</ele>
        <time>1970-01-01T12:25:33.000Z</time>
      </trkpt>
      <trkpt lat="28.502749" lon="-16.348864">
        <ele>479.6</ele>
        <time>1970-01-01T12:25:38.000Z</time>
      </trkpt>
      <trkpt lat="28.502748" lon="-16.34887">
        <ele>479.4</ele>
        <time>1970-01-01T12:25:39.000Z</time>
      </trkpt>
      <trkpt lat="28.502709" lon="-16.348894">
        <ele>479.2</ele>
        <time>1970-01-01T12:25:41.000Z</time>
      </trkpt>
      <trkpt lat="28.502625" lon="-16.348977">
        <ele>479.2</ele>
        <time>1970-01-01T12:25:45.000Z</time>
      </trkpt>
      <trkpt lat="28.502517" lon="-16.349105">
        <ele>479.2</ele>
        <time>1970-01-01T12:25:53.000Z</time>
      </trkpt>
      <trkpt lat="28.502512" lon="-16.349105">
        <ele>479.4</ele>
        <time>1970-01-01T12:25:59.000Z</time>
      </trkpt>
      <trkpt lat="28.50251" lon="-16.349082">
        <ele>479.4</ele>
        <time>1970-01-01T12:26:03.000Z</time>
      </trkpt>
      <trkpt lat="28.502643" lon="-16.348934">
        <ele>479.4</ele>
        <time>1970-01-01T12:26:12.000Z</time>
      </trkpt>
      <trkpt lat="28.502771" lon="-16.34878">
        <ele>479.4</ele>
        <time>1970-01-01T12:26:19.000Z</time>
      </trkpt>
      <trkpt lat="28.502871" lon="-16.348741">
        <ele>479.0</ele>
        <time>1970-01-01T12:26:23.000Z</time>
      </trkpt>
      <trkpt lat="28.503022" lon="-16.348733">
        <ele>477.8</ele>
        <time>1970-01-01T12:26:28.000Z</time>
      </trkpt>
      <trkpt lat="28.503084" lon="-16.348735">
        <ele>476.8</ele>
        <time>1970-01-01T12:26:30.000Z</time>
      </trkpt>
      <trkpt lat="28.503181" lon="-16.348748">
        <ele>475.2</ele>
        <time>1970-01-01T12:26:33.000Z</time>
      </trkpt>
      <trkpt lat="28.503237" lon="-16.348754">
        <ele>474.2</ele>
        <time>1970-01-01T12:26:35.000Z</time>
      </trkpt>
      <trkpt lat="28.503328" lon="-16.348735">
        <ele>473.2</ele>
        <time>1970-01-01T12:26:38.000Z</time>
      </trkpt>
      <trkpt lat="28.503405" lon="-16.34875">
        <ele>471.8</ele>
        <time>1970-01-01T12:26:41.000Z</time>
      </trkpt>
      <trkpt lat="28.503489" lon="-16.348763">
        <ele>470.8</ele>
        <time>1970-01-01T12:26:44.000Z</time>
      </trkpt>
      <trkpt lat="28.503548" lon="-16.348774">
        <ele>469.4</ele>
        <time>1970-01-01T12:26:46.000Z</time>
      </trkpt>
      <trkpt lat="28.503613" lon="-16.34877">
        <ele>468.8</ele>
        <time>1970-01-01T12:26:48.000Z</time>
      </trkpt>
      <trkpt lat="28.503645" lon="-16.348759">
        <ele>468.4</ele>
        <time>1970-01-01T12:26:49.000Z</time>
      </trkpt>
      <trkpt lat="28.503673" lon="-16.348753">
        <ele>468.2</ele>
        <time>1970-01-01T12:26:50.000Z</time>
      </trkpt>
      <trkpt lat="28.503758" lon="-16.348737">
        <ele>467.2</ele>
        <time>1970-01-01T12:26:53.000Z</time>
      </trkpt>
      <trkpt lat="28.503785" lon="-16.348734">
        <ele>466.8</ele>
        <time>1970-01-01T12:26:54.000Z</time>
      </trkpt>
      <trkpt lat="28.503867" lon="-16.348727">
        <ele>465.8</ele>
        <time>1970-01-01T12:26:57.000Z</time>
      </trkpt>
      <trkpt lat="28.503896" lon="-16.348725">
        <ele>465.6</ele>
        <time>1970-01-01T12:26:58.000Z</time>
      </trkpt>
      <trkpt lat="28.503955" lon="-16.348725">
        <ele>464.6</ele>
        <time>1970-01-01T12:27:00.000Z</time>
      </trkpt>
      <trkpt lat="28.504033" lon="-16.348751">
        <ele>463.0</ele>
        <time>1970-01-01T12:27:03.000Z</time>
      </trkpt>
      <trkpt lat="28.504093" lon="-16.348762">
        <ele>462.0</ele>
        <time>1970-01-01T12:27:05.000Z</time>
      </trkpt>
      <trkpt lat="28.504222" lon="-16.348751">
        <ele>460.6</ele>
        <time>1970-01-01T12:27:09.000Z</time>
      </trkpt>
      <trkpt lat="28.504281" lon="-16.34873">
        <ele>459.6</ele>
        <time>1970-01-01T12:27:11.000Z</time>
      </trkpt>
      <trkpt lat="28.504332" lon="-16.348699">
        <ele>458.4</ele>
        <time>1970-01-01T12:27:13.000Z</time>
      </trkpt>
      <trkpt lat="28.504374" lon="-16.348679">
        <ele>457.8</ele>
        <time>1970-01-01T12:27:15.000Z</time>
      </trkpt>
      <trkpt lat="28.50439" lon="-16.348686">
        <ele>457.4</ele>
        <time>1970-01-01T12:27:16.000Z</time>
      </trkpt>
      <trkpt lat="28.5044" lon="-16.348706">
        <ele>456.8</ele>
        <time>1970-01-01T12:27:17.000Z</time>
      </trkpt>
      <trkpt lat="28.504381" lon="-16.348752">
        <ele>456.0</ele>
        <time>1970-01-01T12:27:19.000Z</time>
      </trkpt>
      <trkpt lat="28.504258" lon="-16.348822">
        <ele>454.6</ele>
        <time>1970-01-01T12:27:23.000Z</time>
      </trkpt>
      <trkpt lat="28.504137" lon="-16.348887">
        <ele>453.4</ele>
        <time>1970-01-01T12:27:27.000Z</time>
      </trkpt>
      <trkpt lat="28.504079" lon="-16.348927">
        <ele>452.2</ele>
        <time>1970-01-01T12:27:29.000Z</time>
      </trkpt>
      <trkpt lat="28.504029" lon="-16.348974">
        <ele>451.2</ele>
        <time>1970-01-01T12:27:31.000Z</time>
      </trkpt>
      <trkpt lat="28.503921" lon="-16.349064">
        <ele>450.0</ele>
        <time>1970-01-01T12:27:35.000Z</time>
      </trkpt>
      <trkpt lat="28.503783" lon="-16.34917">
        <ele>448.8</ele>
        <time>1970-01-01T12:27:40.000Z</time>
      </trkpt>
      <trkpt lat="28.503704" lon="-16.349235">
        <ele>447.8</ele>
        <time>1970-01-01T12:27:43.000Z</time>
      </trkpt>
      <trkpt lat="28.503621" lon="-16.349297">
        <ele>446.6</ele>
        <time>1970-01-01T12:27:46.000Z</time>
      </trkpt>
      <trkpt lat="28.503539" lon="-16.349406">
        <ele>445.2</ele>
        <time>1970-01-01T12:27:50.000Z</time>
      </trkpt>
      <trkpt lat="28.503521" lon="-16.349638">
        <ele>444.6</ele>
        <time>1970-01-01T12:27:57.000Z</time>
      </trkpt>
      <trkpt lat="28.50359" lon="-16.349845">
        <ele>444.8</ele>
        <time>1970-01-01T12:28:04.000Z</time>
      </trkpt>
      <trkpt lat="28.503683" lon="-16.350049">
        <ele>445.0</ele>
        <time>1970-01-01T12:28:12.000Z</time>
      </trkpt>
      <trkpt lat="28.503765" lon="-16.350258">
        <ele>445.4</ele>
        <time>1970-01-01T12:28:20.000Z</time>
      </trkpt>
      <trkpt lat="28.503799" lon="-16.35034">
        <ele>445.8</ele>
        <time>1970-01-01T12:28:23.000Z</time>
      </trkpt>
      <trkpt lat="28.503882" lon="-16.350539">
        <ele>445.8</ele>
        <time>1970-01-01T12:28:30.000Z</time>
      </trkpt>
      <trkpt lat="28.504029" lon="-16.350688">
        <ele>445.2</ele>
        <time>1970-01-01T12:28:37.000Z</time>
      </trkpt>
      <trkpt lat="28.504088" lon="-16.350762">
        <ele>443.8</ele>
        <time>1970-01-01T12:28:40.000Z</time>
      </trkpt>
      <trkpt lat="28.504148" lon="-16.350828">
        <ele>442.6</ele>
        <time>1970-01-01T12:28:43.000Z</time>
      </trkpt>
      <trkpt lat="28.504213" lon="-16.350895">
        <ele>441.6</ele>
        <time>1970-01-01T12:28:46.000Z</time>
      </trkpt>
      <trkpt lat="28.504272" lon="-16.350967">
        <ele>440.4</ele>
        <time>1970-01-01T12:28:49.000Z</time>
      </trkpt>
      <trkpt lat="28.504315" lon="-16.351004">
        <ele>439.2</ele>
        <time>1970-01-01T12:28:51.000Z</time>
      </trkpt>
      <trkpt lat="28.504406" lon="-16.351089">
        <ele>438.0</ele>
        <time>1970-01-01T12:28:55.000Z</time>
      </trkpt>
      <trkpt lat="28.504493" lon="-16.351177">
        <ele>436.8</ele>
        <time>1970-01-01T12:28:59.000Z</time>
      </trkpt>
      <trkpt lat="28.504529" lon="-16.351224">
        <ele>435.6</ele>
        <time>1970-01-01T12:29:01.000Z</time>
      </trkpt>
      <trkpt lat="28.504592" lon="-16.351297">
        <ele>434.2</ele>
        <time>1970-01-01T12:29:04.000Z</time>
      </trkpt>
      <trkpt lat="28.504655" lon="-16.351358">
        <ele>432.8</ele>
        <time>1970-01-01T12:29:07.000Z</time>
      </trkpt>
      <trkpt lat="28.504698" lon="-16.351388">
        <ele>431.8</ele>
        <time>1970-01-01T12:29:09.000Z</time>
      </trkpt>
      <trkpt lat="28.50476" lon="-16.351419">
        <ele>430.6</ele>
        <time>1970-01-01T12:29:12.000Z</time>
      </trkpt>
      <trkpt lat="28.504839" lon="-16.351487">
        <ele>429.0</ele>
        <time>1970-01-01T12:29:16.000Z</time>
      </trkpt>
      <trkpt lat="28.504906" lon="-16.351534">
        <ele>427.6</ele>
        <time>1970-01-01T12:29:19.000Z</time>
      </trkpt>
      <trkpt lat="28.504974" lon="-16.351585">
        <ele>426.4</ele>
        <time>1970-01-01T12:29:22.000Z</time>
      </trkpt>
      <trkpt lat="28.505022" lon="-16.351623">
        <ele>425.4</ele>
        <time>1970-01-01T12:29:24.000Z</time>
      </trkpt>
      <trkpt lat="28.505098" lon="-16.351677">
        <ele>424.4</ele>
        <time>1970-01-01T12:29:27.000Z</time>
      </trkpt>
      <trkpt lat="28.505152" lon="-16.351709">
        <ele>423.2</ele>
        <time>1970-01-01T12:29:29.000Z</time>
      </trkpt>
      <trkpt lat="28.505207" lon="-16.351753">
        <ele>422.2</ele>
        <time>1970-01-01T12:29:31.000Z</time>
      </trkpt>
      <trkpt lat="28.505282" lon="-16.351817">
        <ele>421.2</ele>
        <time>1970-01-01T12:29:34.000Z</time>
      </trkpt>
      <trkpt lat="28.505432" lon="-16.351864">
        <ele>420.0</ele>
        <time>1970-01-01T12:29:39.000Z</time>
      </trkpt>
      <trkpt lat="28.505617" lon="-16.351943">
        <ele>419.0</ele>
        <time>1970-01-01T12:29:45.000Z</time>
      </trkpt>
      <trkpt lat="28.505742" lon="-16.351962">
        <ele>417.8</ele>
        <time>1970-01-01T12:29:49.000Z</time>
      </trkpt>
      <trkpt lat="28.505925" lon="-16.35188">
        <ele>416.6</ele>
        <time>1970-01-01T12:29:55.000Z</time>
      </trkpt>
      <trkpt lat="28.506046" lon="-16.351815">
        <ele>415.4</ele>
        <time>1970-01-01T12:29:59.000Z</time>
      </trkpt>
      <trkpt lat="28.506127" lon="-16.351771">
        <ele>414.2</ele>
        <time>1970-01-01T12:30:02.000Z</time>
      </trkpt>
      <trkpt lat="28.506213" lon="-16.351725">
        <ele>413.0</ele>
        <time>1970-01-01T12:30:05.000Z</time>
      </trkpt>
      <trkpt lat="28.506295" lon="-16.351665">
        <ele>411.6</ele>
        <time>1970-01-01T12:30:08.000Z</time>
      </trkpt>
      <trkpt lat="28.506344" lon="-16.351627">
        <ele>410.6</ele>
        <time>1970-01-01T12:30:10.000Z</time>
      </trkpt>
      <trkpt lat="28.506438" lon="-16.35155">
        <ele>409.0</ele>
        <time>1970-01-01T12:30:14.000Z</time>
      </trkpt>
      <trkpt lat="28.506513" lon="-16.351474">
        <ele>408.0</ele>
        <time>1970-01-01T12:30:17.000Z</time>
      </trkpt>
      <trkpt lat="28.506593" lon="-16.351399">
        <ele>406.4</ele>
        <time>1970-01-01T12:30:20.000Z</time>
      </trkpt>
      <trkpt lat="28.506674" lon="-16.351338">
        <ele>405.0</ele>
        <time>1970-01-01T12:30:23.000Z</time>
      </trkpt>
      <trkpt lat="28.506756" lon="-16.351276">
        <ele>403.4</ele>
        <time>1970-01-01T12:30:26.000Z</time>
      </trkpt>
      <trkpt lat="28.506807" lon="-16.351237">
        <ele>402.4</ele>
        <time>1970-01-01T12:30:28.000Z</time>
      </trkpt>
      <trkpt lat="28.506878" lon="-16.351173">
        <ele>400.8</ele>
        <time>1970-01-01T12:30:31.000Z</time>
      </trkpt>
      <trkpt lat="28.506951" lon="-16.351104">
        <ele>399.8</ele>
        <time>1970-01-01T12:30:34.000Z</time>
      </trkpt>
      <trkpt lat="28.507043" lon="-16.351007">
        <ele>398.8</ele>
        <time>1970-01-01T12:30:38.000Z</time>
      </trkpt>
      <trkpt lat="28.50713" lon="-16.350899">
        <ele>397.4</ele>
        <time>1970-01-01T12:30:42.000Z</time>
      </trkpt>
      <trkpt lat="28.507223" lon="-16.350804">
        <ele>395.8</ele>
        <time>1970-01-01T12:30:46.000Z</time>
      </trkpt>
      <trkpt lat="28.507288" lon="-16.350735">
        <ele>394.6</ele>
        <time>1970-01-01T12:30:49.000Z</time>
      </trkpt>
      <trkpt lat="28.507345" lon="-16.350665">
        <ele>393.2</ele>
        <time>1970-01-01T12:30:52.000Z</time>
      </trkpt>
      <trkpt lat="28.50743" lon="-16.35058">
        <ele>391.6</ele>
        <time>1970-01-01T12:30:56.000Z</time>
      </trkpt>
      <trkpt lat="28.507511" lon="-16.35054">
        <ele>390.6</ele>
        <time>1970-01-01T12:30:59.000Z</time>
      </trkpt>
      <trkpt lat="28.507636" lon="-16.350515">
        <ele>389.6</ele>
        <time>1970-01-01T12:31:03.000Z</time>
      </trkpt>
      <trkpt lat="28.507762" lon="-16.350509">
        <ele>388.2</ele>
        <time>1970-01-01T12:31:07.000Z</time>
      </trkpt>
      <trkpt lat="28.507792" lon="-16.350505">
        <ele>387.8</ele>
        <time>1970-01-01T12:31:08.000Z</time>
      </trkpt>
      <trkpt lat="28.507853" lon="-16.350492">
        <ele>387.2</ele>
        <time>1970-01-01T12:31:10.000Z</time>
      </trkpt>
      <trkpt lat="28.507943" lon="-16.350475">
        <ele>385.6</ele>
        <time>1970-01-01T12:31:13.000Z</time>
      </trkpt>
      <trkpt lat="28.508001" lon="-16.350469">
        <ele>384.6</ele>
        <time>1970-01-01T12:31:15.000Z</time>
      </trkpt>
      <trkpt lat="28.508089" lon="-16.350462">
        <ele>383.4</ele>
        <time>1970-01-01T12:31:18.000Z</time>
      </trkpt>
      <trkpt lat="28.508182" lon="-16.350449">
        <ele>381.8</ele>
        <time>1970-01-01T12:31:21.000Z</time>
      </trkpt>
      <trkpt lat="28.508238" lon="-16.350441">
        <ele>380.8</ele>
        <time>1970-01-01T12:31:23.000Z</time>
      </trkpt>
      <trkpt lat="28.508297" lon="-16.350437">
        <ele>379.8</ele>
        <time>1970-01-01T12:31:25.000Z</time>
      </trkpt>
      <trkpt lat="28.508392" lon="-16.35043">
        <ele>378.4</ele>
        <time>1970-01-01T12:31:28.000Z</time>
      </trkpt>
      <trkpt lat="28.508454" lon="-16.350439">
        <ele>377.2</ele>
        <time>1970-01-01T12:31:30.000Z</time>
      </trkpt>
      <trkpt lat="28.508509" lon="-16.350467">
        <ele>376.0</ele>
        <time>1970-01-01T12:31:32.000Z</time>
      </trkpt>
      <trkpt lat="28.508591" lon="-16.350518">
        <ele>375.0</ele>
        <time>1970-01-01T12:31:35.000Z</time>
      </trkpt>
      <trkpt lat="28.508692" lon="-16.350592">
        <ele>373.8</ele>
        <time>1970-01-01T12:31:39.000Z</time>
      </trkpt>
      <trkpt lat="28.508795" lon="-16.350676">
        <ele>372.6</ele>
        <time>1970-01-01T12:31:43.000Z</time>
      </trkpt>
      <trkpt lat="28.5089" lon="-16.350746">
        <ele>371.6</ele>
        <time>1970-01-01T12:31:47.000Z</time>
      </trkpt>
      <trkpt lat="28.508975" lon="-16.350798">
        <ele>370.2</ele>
        <time>1970-01-01T12:31:50.000Z</time>
      </trkpt>
      <trkpt lat="28.509085" lon="-16.350851">
        <ele>369.2</ele>
        <time>1970-01-01T12:31:54.000Z</time>
      </trkpt>
      <trkpt lat="28.509141" lon="-16.350845">
        <ele>368.2</ele>
        <time>1970-01-01T12:31:56.000Z</time>
      </trkpt>
      <trkpt lat="28.509266" lon="-16.350806">
        <ele>367.2</ele>
        <time>1970-01-01T12:32:01.000Z</time>
      </trkpt>
      <trkpt lat="28.509353" lon="-16.350739">
        <ele>367.0</ele>
        <time>1970-01-01T12:32:06.000Z</time>
      </trkpt>
      <trkpt lat="28.509434" lon="-16.350674">
        <ele>368.4</ele>
        <time>1970-01-01T12:32:13.000Z</time>
      </trkpt>
      <trkpt lat="28.509456" lon="-16.350659">
        <ele>368.8</ele>
        <time>1970-01-01T12:32:15.000Z</time>
      </trkpt>
      <trkpt lat="28.509477" lon="-16.35064">
        <ele>369.6</ele>
        <time>1970-01-01T12:32:17.000Z</time>
      </trkpt>
      <trkpt lat="28.509555" lon="-16.350608">
        <ele>370.6</ele>
        <time>1970-01-01T12:32:23.000Z</time>
      </trkpt>
      <trkpt lat="28.509612" lon="-16.350607">
        <ele>371.6</ele>
        <time>1970-01-01T12:32:27.000Z</time>
      </trkpt>
      <trkpt lat="28.510257" lon="-16.350868">
        <ele>455.8</ele>
        <time>1970-01-01T12:00:00.000Z</time>
      </trkpt>
      <trkpt lat="28.510257" lon="-16.350868">
        <ele>456.2</ele>
        <time>1970-01-01T12:00:05.000Z</time>
      </trkpt>
      <trkpt lat="28.510306" lon="-16.350891">
        <ele>456.4</ele>
        <time>1970-01-01T12:00:07.000Z</time>
      </trkpt>
      <trkpt lat="28.510484" lon="-16.350958">
        <ele>456.4</ele>
        <time>1970-01-01T12:00:13.000Z</time>
      </trkpt>
      <trkpt lat="28.510685" lon="-16.351025">
        <ele>456.2</ele>
        <time>1970-01-01T12:00:20.000Z</time>
      </trkpt>
      <trkpt lat="28.510751" lon="-16.351017">
        <ele>456.2</ele>
        <time>1970-01-01T12:00:22.000Z</time>
      </trkpt>
      <trkpt lat="28.510823" lon="-16.350937">
        <ele>456.2</ele>
        <time>1970-01-01T12:00:26.000Z</time>
      </trkpt>
      <trkpt lat="28.510875" lon="-16.350859">
        <ele>456.2</ele>
        <time>1970-01-01T12:00:31.000Z</time>
      </trkpt>
      <trkpt lat="28.510908" lon="-16.350838">
        <ele>457.0</ele>
        <time>1970-01-01T12:00:34.000Z</time>
      </trkpt>
      <trkpt lat="28.51092" lon="-16.350837">
        <ele>457.6</ele>
        <time>1970-01-01T12:00:36.000Z</time>
      </trkpt>
      <trkpt lat="28.510907" lon="-16.350832">
        <ele>461.0</ele>
        <time>1970-01-01T12:01:31.000Z</time>
      </trkpt>
      <trkpt lat="28.510916" lon="-16.350832">
        <ele>461.0</ele>
        <time>1970-01-01T12:01:32.000Z</time>
      </trkpt>
      <trkpt lat="28.51111" lon="-16.350841">
        <ele>461.8</ele>
        <time>1970-01-01T12:01:42.000Z</time>
      </trkpt>
      <trkpt lat="28.511128" lon="-16.350839">
        <ele>462.2</ele>
        <time>1970-01-01T12:01:43.000Z</time>
      </trkpt>
      <trkpt lat="28.511147" lon="-16.350839">
        <ele>462.4</ele>
        <time>1970-01-01T12:01:44.000Z</time>
      </trkpt>
      <trkpt lat="28.511187" lon="-16.350831">
        <ele>463.0</ele>
        <time>1970-01-01T12:01:46.000Z</time>
      </trkpt>
      <trkpt lat="28.511222" lon="-16.350821">
        <ele>463.4</ele>
        <time>1970-01-01T12:01:48.000Z</time>
      </trkpt>
      <trkpt lat="28.511284" lon="-16.350799">
        <ele>464.8</ele>
        <time>1970-01-01T12:01:52.000Z</time>
      </trkpt>
      <trkpt lat="28.5113" lon="-16.350793">
        <ele>465.0</ele>
        <time>1970-01-01T12:01:53.000Z</time>
      </trkpt>
      <trkpt lat="28.511313" lon="-16.350786">
        <ele>465.4</ele>
        <time>1970-01-01T12:01:54.000Z</time>
      </trkpt>
      <trkpt lat="28.511326" lon="-16.350779">
        <ele>465.8</ele>
        <time>1970-01-01T12:01:55.000Z</time>
      </trkpt>
      <trkpt lat="28.511339" lon="-16.350773">
        <ele>466.0</ele>
        <time>1970-01-01T12:01:56.000Z</time>
      </trkpt>
      <trkpt lat="28.511352" lon="-16.350767">
        <ele>466.4</ele>
        <time>1970-01-01T12:01:57.000Z</time>
      </trkpt>
      <trkpt lat="28.511366" lon="-16.350759">
        <ele>466.8</ele>
        <time>1970-01-01T12:01:58.000Z</time>
      </trkpt>
      <trkpt lat="28.51138" lon="-16.350753">
        <ele>467.2</ele>
        <time>1970-01-01T12:01:59.000Z</time>
      </trkpt>
      <trkpt lat="28.511394" lon="-16.350744">
        <ele>467.4</ele>
        <time>1970-01-01T12:02:00.000Z</time>
      </trkpt>
      <trkpt lat="28.511409" lon="-16.350737">
        <ele>467.8</ele>
        <time>1970-01-01T12:02:01.000Z</time>
      </trkpt>
      <trkpt lat="28.511425" lon="-16.350732">
        <ele>468.2</ele>
        <time>1970-01-01T12:02:02.000Z</time>
      </trkpt>
      <trkpt lat="28.511438" lon="-16.350725">
        <ele>468.6</ele>
        <time>1970-01-01T12:02:03.000Z</time>
      </trkpt>
      <trkpt lat="28.511464" lon="-16.35071">
        <ele>469.2</ele>
        <time>1970-01-01T12:02:05.000Z</time>
      </trkpt>
      <trkpt lat="28.511478" lon="-16.350701">
        <ele>469.4</ele>
        <time>1970-01-01T12:02:06.000Z</time>
      </trkpt>
      <trkpt lat="28.511562" lon="-16.350663">
        <ele>470.4</ele>
        <time>1970-01-01T12:02:11.000Z</time>
      </trkpt>
      <trkpt lat="28.511614" lon="-16.350638">
        <ele>471.2</ele>
        <time>1970-01-01T12:02:14.000Z</time>
      </trkpt>
      <trkpt lat="28.511644" lon="-16.350618">
        <ele>471.6</ele>
        <time>1970-01-01T12:02:16.000Z</time>
      </trkpt>
      <trkpt lat="28.511681" lon="-16.350602">
        <ele>472.2</ele>
        <time>1970-01-01T12:02:18.000Z</time>
      </trkpt>
      <trkpt lat="28.511716" lon="-16.350581">
        <ele>472.6</ele>
        <time>1970-01-01T12:02:20.000Z</time>
      </trkpt>
      <trkpt lat="28.511802" lon="-16.350536">
        <ele>473.6</ele>
        <time>1970-01-01T12:02:25.000Z</time>
      </trkpt>
      <trkpt lat="28.511815" lon="-16.350526">
        <ele>473.6</ele>
        <time>1970-01-01T12:02:26.000Z</time>
      </trkpt>
      <trkpt lat="28.511827" lon="-16.350518">
        <ele>473.8</ele>
        <time>1970-01-01T12:02:27.000Z</time>
      </trkpt>
      <trkpt lat="28.511867" lon="-16.350492">
        <ele>474.4</ele>
        <time>1970-01-01T12:02:30.000Z</time>
      </trkpt>
      <trkpt lat="28.511889" lon="-16.350478">
        <ele>474.8</ele>
        <time>1970-01-01T12:02:32.000Z</time>
      </trkpt>
      <trkpt lat="28.51195" lon="-16.35043">
        <ele>475.8</ele>
        <time>1970-01-01T12:02:37.000Z</time>
      </trkpt>
      <trkpt lat="28.512029" lon="-16.350365">
        <ele>476.8</ele>
        <time>1970-01-01T12:02:44.000Z</time>
      </trkpt>
      <trkpt lat="28.512083" lon="-16.350333">
        <ele>478.2</ele>
        <time>1970-01-01T12:02:48.000Z</time>
      </trkpt>
      <trkpt lat="28.512144" lon="-16.350286">
        <ele>479.4</ele>
        <time>1970-01-01T12:02:53.000Z</time>
      </trkpt>
      <trkpt lat="28.512215" lon="-16.350219">
        <ele>481.0</ele>
        <time>1970-01-01T12:02:58.000Z</time>
      </trkpt>
      <trkpt lat="28.512285" lon="-16.350165">
        <ele>482.2</ele>
        <time>1970-01-01T12:03:02.000Z</time>
      </trkpt>
      <trkpt lat="28.512447" lon="-16.350087">
        <ele>483.2</ele>
        <time>1970-01-01T12:03:09.000Z</time>
      </trkpt>
      <trkpt lat="28.512612" lon="-16.349998">
        <ele>483.8</ele>
        <time>1970-01-01T12:03:16.000Z</time>
      </trkpt>
      <trkpt lat="28.512717" lon="-16.349918">
        <ele>484.0</ele>
        <time>1970-01-01T12:03:21.000Z</time>
      </trkpt>
      <trkpt lat="28.512817" lon="-16.349803">
        <ele>484.4</ele>
        <time>1970-01-01T12:03:27.000Z</time>
      </trkpt>
      <trkpt lat="28.512832" lon="-16.349781">
        <ele>484.4</ele>
        <time>1970-01-01T12:03:28.000Z</time>
      </trkpt>
      <trkpt lat="28.512855" lon="-16.349735">
        <ele>484.6</ele>
        <time>1970-01-01T12:03:30.000Z</time>
      </trkpt>
      <trkpt lat="28.512864" lon="-16.349711">
        <ele>484.6</ele>
        <time>1970-01-01T12:03:31.000Z</time>
      </trkpt>
      <trkpt lat="28.512884" lon="-16.349655">
        <ele>485.0</ele>
        <time>1970-01-01T12:03:34.000Z</time>
      </trkpt>
      <trkpt lat="28.512884" lon="-16.349631">
        <ele>487.0</ele>
        <time>1970-01-01T12:04:24.000Z</time>
      </trkpt>
      <trkpt lat="28.512976" lon="-16.349426">
        <ele>486.2</ele>
        <time>1970-01-01T12:04:32.000Z</time>
      </trkpt>
      <trkpt lat="28.51301" lon="-16.349316">
        <ele>486.0</ele>
        <time>1970-01-01T12:04:35.000Z</time>
      </trkpt>
      <trkpt lat="28.51303" lon="-16.349241">
        <ele>486.0</ele>
        <time>1970-01-01T12:04:37.000Z</time>
      </trkpt>
      <trkpt lat="28.513043" lon="-16.349166">
        <ele>485.6</ele>
        <time>1970-01-01T12:04:39.000Z</time>
      </trkpt>
      <trkpt lat="28.513066" lon="-16.349016">
        <ele>485.2</ele>
        <time>1970-01-01T12:04:43.000Z</time>
      </trkpt>
      <trkpt lat="28.513078" lon="-16.348947">
        <ele>485.2</ele>
        <time>1970-01-01T12:04:45.000Z</time>
      </trkpt>
      <trkpt lat="28.513096" lon="-16.348737">
        <ele>485.2</ele>
        <time>1970-01-01T12:04:51.000Z</time>
      </trkpt>
      <trkpt lat="28.513133" lon="-16.348533">
        <ele>485.2</ele>
        <time>1970-01-01T12:04:57.000Z</time>
      </trkpt>
      <trkpt lat="28.513149" lon="-16.348354">
        <ele>485.4</ele>
        <time>1970-01-01T12:05:02.000Z</time>
      </trkpt>
      <trkpt lat="28.513165" lon="-16.348282">
        <ele>485.6</ele>
        <time>1970-01-01T12:05:04.000Z</time>
      </trkpt>
      <trkpt lat="28.513198" lon="-16.348136">
        <ele>485.6</ele>
        <time>1970-01-01T12:05:08.000Z</time>
      </trkpt>
      <trkpt lat="28.513212" lon="-16.347989">
        <ele>485.4</ele>
        <time>1970-01-01T12:05:12.000Z</time>
      </trkpt>
      <trkpt lat="28.513191" lon="-16.347774">
        <ele>485.4</ele>
        <time>1970-01-01T12:05:19.000Z</time>
      </trkpt>
      <trkpt lat="28.513181" lon="-16.347722">
        <ele>485.4</ele>
        <time>1970-01-01T12:05:21.000Z</time>
      </trkpt>
      <trkpt lat="28.513173" lon="-16.347697">
        <ele>485.4</ele>
        <time>1970-01-01T12:05:22.000Z</time>
      </trkpt>
      <trkpt lat="28.513156" lon="-16.347652">
        <ele>485.6</ele>
        <time>1970-01-01T12:05:24.000Z</time>
      </trkpt>
      <trkpt lat="28.513144" lon="-16.347611">
        <ele>485.8</ele>
        <time>1970-01-01T12:05:26.000Z</time>
      </trkpt>
      <trkpt lat="28.51309" lon="-16.347496">
        <ele>486.8</ele>
        <time>1970-01-01T12:05:32.000Z</time>
      </trkpt>
      <trkpt lat="28.513072" lon="-16.347463">
        <ele>487.4</ele>
        <time>1970-01-01T12:05:34.000Z</time>
      </trkpt>
      <trkpt lat="28.513055" lon="-16.34743">
        <ele>488.2</ele>
        <time>1970-01-01T12:05:36.000Z</time>
      </trkpt>
      <trkpt lat="28.513018" lon="-16.347358">
        <ele>489.2</ele>
        <time>1970-01-01T12:05:40.000Z</time>
      </trkpt>
      <trkpt lat="28.512981" lon="-16.347291">
        <ele>490.4</ele>
        <time>1970-01-01T12:05:44.000Z</time>
      </trkpt>
      <trkpt lat="28.512941" lon="-16.347215">
        <ele>491.6</ele>
        <time>1970-01-01T12:05:48.000Z</time>
      </trkpt>
      <trkpt lat="28.512885" lon="-16.347148">
        <ele>492.6</ele>
        <time>1970-01-01T12:05:52.000Z</time>
      </trkpt>
      <trkpt lat="28.512843" lon="-16.347103">
        <ele>493.6</ele>
        <time>1970-01-01T12:05:55.000Z</time>
      </trkpt>
      <trkpt lat="28.512775" lon="-16.347031">
        <ele>494.8</ele>
        <time>1970-01-01T12:05:59.000Z</time>
      </trkpt>
      <trkpt lat="28.512738" lon="-16.34693">
        <ele>495.8</ele>
        <time>1970-01-01T12:06:03.000Z</time>
      </trkpt>
      <trkpt lat="28.512736" lon="-16.346836">
        <ele>496.4</ele>
        <time>1970-01-01T12:06:06.000Z</time>
      </trkpt>
      <trkpt lat="28.512762" lon="-16.346659">
        <ele>497.0</ele>
        <time>1970-01-01T12:06:12.000Z</time>
      </trkpt>
      <trkpt lat="28.512904" lon="-16.34655">
        <ele>497.6</ele>
        <time>1970-01-01T12:06:19.000Z</time>
      </trkpt>
      <trkpt lat="28.513099" lon="-16.346535">
        <ele>498.0</ele>
        <time>1970-01-01T12:06:27.000Z</time>
      </trkpt>
      <trkpt lat="28.513148" lon="-16.346525">
        <ele>498.2</ele>
        <time>1970-01-01T12:06:29.000Z</time>
      </trkpt>
      <trkpt lat="28.513169" lon="-16.346522">
        <ele>498.4</ele>
        <time>1970-01-01T12:06:30.000Z</time>
      </trkpt>
      <trkpt lat="28.513266" lon="-16.346534">
        <ele>499.2</ele>
        <time>1970-01-01T12:06:34.000Z</time>
      </trkpt>
      <trkpt lat="28.513307" lon="-16.34656">
        <ele>499.6</ele>
        <time>1970-01-01T12:06:36.000Z</time>
      </trkpt>
      <trkpt lat="28.513326" lon="-16.346575">
        <ele>500.0</ele>
        <time>1970-01-01T12:06:37.000Z</time>
      </trkpt>
      <trkpt lat="28.513344" lon="-16.346589">
        <ele>500.2</ele>
        <time>1970-01-01T12:06:38.000Z</time>
      </trkpt>
      <trkpt lat="28.513468" lon="-16.346705">
        <ele>500.6</ele>
        <time>1970-01-01T12:06:44.000Z</time>
      </trkpt>
      <trkpt lat="28.51351" lon="-16.34673">
        <ele>500.8</ele>
        <time>1970-01-01T12:06:46.000Z</time>
      </trkpt>
      <trkpt lat="28.513566" lon="-16.346761">
        <ele>501.0</ele>
        <time>1970-01-01T12:06:49.000Z</time>
      </trkpt>
      <trkpt lat="28.513637" lon="-16.346801">
        <ele>501.4</ele>
        <time>1970-01-01T12:06:53.000Z</time>
      </trkpt>
      <trkpt lat="28.513658" lon="-16.346801">
        <ele>501.6</ele>
        <time>1970-01-01T12:06:54.000Z</time>
      </trkpt>
      <trkpt lat="28.513677" lon="-16.346778">
        <ele>502.2</ele>
        <time>1970-01-01T12:06:56.000Z</time>
      </trkpt>
      <trkpt lat="28.513669" lon="-16.346759">
        <ele>502.4</ele>
        <time>1970-01-01T12:06:57.000Z</time>
      </trkpt>
      <trkpt lat="28.513627" lon="-16.346675">
        <ele>503.6</ele>
        <time>1970-01-01T12:07:01.000Z</time>
      </trkpt>
      <trkpt lat="28.513583" lon="-16.346598">
        <ele>504.8</ele>
        <time>1970-01-01T12:07:05.000Z</time>
      </trkpt>
      <trkpt lat="28.513532" lon="-16.346528">
        <ele>506.0</ele>
        <time>1970-01-01T12:07:09.000Z</time>
      </trkpt>
      <trkpt lat="28.51352" lon="-16.346511">
        <ele>506.2</ele>
        <time>1970-01-01T12:07:10.000Z</time>
      </trkpt>
      <trkpt lat="28.513478" lon="-16.346454">
        <ele>507.2</ele>
        <time>1970-01-01T12:07:13.000Z</time>
      </trkpt>
      <trkpt lat="28.513434" lon="-16.346371">
        <ele>508.4</ele>
        <time>1970-01-01T12:07:17.000Z</time>
      </trkpt>
      <trkpt lat="28.51337" lon="-16.346261">
        <ele>509.4</ele>
        <time>1970-01-01T12:07:23.000Z</time>
      </trkpt>
      <trkpt lat="28.513322" lon="-16.34616">
        <ele>510.6</ele>
        <time>1970-01-01T12:07:29.000Z</time>
      </trkpt>
      <trkpt lat="28.5133" lon="-16.346102">
        <ele>511.8</ele>
        <time>1970-01-01T12:07:32.000Z</time>
      </trkpt>
      <trkpt lat="28.513277" lon="-16.346036">
        <ele>513.0</ele>
        <time>1970-01-01T12:07:36.000Z</time>
      </trkpt>
      <trkpt lat="28.513246" lon="-16.345962">
        <ele>514.0</ele>
        <time>1970-01-01T12:07:41.000Z</time>
      </trkpt>
      <trkpt lat="28.513224" lon="-16.345916">
        <ele>515.0</ele>
        <time>1970-01-01T12:07:44.000Z</time>
      </trkpt>
      <trkpt lat="28.513181" lon="-16.345857">
        <ele>516.4</ele>
        <time>1970-01-01T12:07:48.000Z</time>
      </trkpt>
      <trkpt lat="28.513145" lon="-16.345814">
        <ele>517.4</ele>
        <time>1970-01-01T12:07:52.000Z</time>
      </trkpt>
      <trkpt lat="28.513104" lon="-16.345769">
        <ele>518.6</ele>
        <time>1970-01-01T12:07:57.000Z</time>
      </trkpt>
      <trkpt lat="28.513064" lon="-16.345715">
        <ele>519.8</ele>
        <time>1970-01-01T12:08:02.000Z</time>
      </trkpt>
      <trkpt lat="28.513032" lon="-16.345675">
        <ele>521.0</ele>
        <time>1970-01-01T12:08:06.000Z</time>
      </trkpt>
      <trkpt lat="28.513017" lon="-16.345655">
        <ele>522.0</ele>
        <time>1970-01-01T12:08:08.000Z</time>
      </trkpt>
      <trkpt lat="28.51301" lon="-16.345642">
        <ele>522.4</ele>
        <time>1970-01-01T12:08:09.000Z</time>
      </trkpt>
      <trkpt lat="28.512987" lon="-16.345611">
        <ele>522.8</ele>
        <time>1970-01-01T12:08:12.000Z</time>
      </trkpt>
      <trkpt lat="28.512968" lon="-16.345594">
        <ele>523.2</ele>
        <time>1970-01-01T12:08:14.000Z</time>
      </trkpt>
      <trkpt lat="28.512947" lon="-16.345575">
        <ele>523.4</ele>
        <time>1970-01-01T12:08:16.000Z</time>
      </trkpt>
      <trkpt lat="28.512894" lon="-16.345512">
        <ele>524.4</ele>
        <time>1970-01-01T12:08:22.000Z</time>
      </trkpt>
      <trkpt lat="28.51287" lon="-16.345496">
        <ele>525.2</ele>
        <time>1970-01-01T12:08:26.000Z</time>
      </trkpt>
      <trkpt lat="28.51287" lon="-16.345495">
        <ele>525.2</ele>
        <time>1970-01-01T12:08:27.000Z</time>
      </trkpt>
      <trkpt lat="28.512886" lon="-16.345498">
        <ele>525.6</ele>
        <time>1970-01-01T12:08:29.000Z</time>
      </trkpt>
      <trkpt lat="28.512912" lon="-16.345519">
        <ele>525.8</ele>
        <time>1970-01-01T12:08:32.000Z</time>
      </trkpt>
      <trkpt lat="28.512925" lon="-16.345522">
        <ele>525.8</ele>
        <time>1970-01-01T12:08:33.000Z</time>
      </trkpt>
      <trkpt lat="28.512996" lon="-16.345528">
        <ele>525.8</ele>
        <time>1970-01-01T12:08:37.000Z</time>
      </trkpt>
      <trkpt lat="28.513158" lon="-16.34562">
        <ele>526.2</ele>
        <time>1970-01-01T12:08:47.000Z</time>
      </trkpt>
      <trkpt lat="28.513187" lon="-16.345634">
        <ele>526.8</ele>
        <time>1970-01-01T12:08:49.000Z</time>
      </trkpt>
      <trkpt lat="28.513214" lon="-16.345653">
        <ele>527.0</ele>
        <time>1970-01-01T12:08:51.000Z</time>
      </trkpt>
      <trkpt lat="28.513259" lon="-16.345686">
        <ele>527.2</ele>
        <time>1970-01-01T12:08:54.000Z</time>
      </trkpt>
      <trkpt lat="28.513274" lon="-16.345695">
        <ele>527.8</ele>
        <time>1970-01-01T12:08:55.000Z</time>
      </trkpt>
      <trkpt lat="28.513354" lon="-16.345735">
        <ele>528.8</ele>
        <time>1970-01-01T12:09:00.000Z</time>
      </trkpt>
      <trkpt lat="28.513427" lon="-16.34578">
        <ele>529.4</ele>
        <time>1970-01-01T12:09:04.000Z</time>
      </trkpt>
      <trkpt lat="28.513468" lon="-16.345794">
        <ele>530.0</ele>
        <time>1970-01-01T12:09:06.000Z</time>
      </trkpt>
      <trkpt lat="28.513514" lon="-16.345794">
        <ele>530.2</ele>
        <time>1970-01-01T12:09:08.000Z</time>
      </trkpt>
      <trkpt lat="28.513556" lon="-16.345789">
        <ele>530.4</ele>
        <time>1970-01-01T12:09:10.000Z</time>
      </trkpt>
      <trkpt lat="28.513636" lon="-16.345809">
        <ele>530.6</ele>
        <time>1970-01-01T12:09:14.000Z</time>
      </trkpt>
      <trkpt lat="28.513679" lon="-16.345814">
        <ele>531.4</ele>
        <time>1970-01-01T12:09:16.000Z</time>
      </trkpt>
      <trkpt lat="28.513719" lon="-16.345792">
        <ele>532.0</ele>
        <time>1970-01-01T12:09:18.000Z</time>
      </trkpt>
      <trkpt lat="28.513738" lon="-16.345772">
        <ele>532.0</ele>
        <time>1970-01-01T12:09:19.000Z</time>
      </trkpt>
      <trkpt lat="28.513764" lon="-16.345728">
        <ele>532.4</ele>
        <time>1970-01-01T12:09:21.000Z</time>
      </trkpt>
      <trkpt lat="28.513774" lon="-16.345705">
        <ele>532.6</ele>
        <time>1970-01-01T12:09:22.000Z</time>
      </trkpt>
      <trkpt lat="28.513801" lon="-16.345611">
        <ele>533.6</ele>
        <time>1970-01-01T12:09:26.000Z</time>
      </trkpt>
      <trkpt lat="28.513837" lon="-16.345512">
        <ele>534.6</ele>
        <time>1970-01-01T12:09:30.000Z</time>
      </trkpt>
      <trkpt lat="28.513848" lon="-16.345486">
        <ele>534.6</ele>
        <time>1970-01-01T12:09:31.000Z</time>
      </trkpt>
      <trkpt lat="28.513905" lon="-16.345349">
        <ele>535.8</ele>
        <time>1970-01-01T12:09:36.000Z</time>
      </trkpt>
      <trkpt lat="28.513989" lon="-16.345169">
        <ele>536.0</ele>
        <time>1970-01-01T12:09:43.000Z</time>
      </trkpt>
      <trkpt lat="28.514017" lon="-16.345121">
        <ele>536.2</ele>
        <time>1970-01-01T12:09:45.000Z</time>
      </trkpt>
      <trkpt lat="28.514131" lon="-16.344945">
        <ele>536.2</ele>
        <time>1970-01-01T12:09:53.000Z</time>
      </trkpt>
      <trkpt lat="28.514234" lon="-16.344771">
        <ele>536.8</ele>
        <time>1970-01-01T12:10:02.000Z</time>
      </trkpt>
      <trkpt lat="28.514277" lon="-16.344715">
        <ele>537.6</ele>
        <time>1970-01-01T12:10:06.000Z</time>
      </trkpt>
      <trkpt lat="28.514314" lon="-16.344672">
        <ele>537.8</ele>
        <time>1970-01-01T12:10:09.000Z</time>
      </trkpt>
      <trkpt lat="28.514355" lon="-16.344639">
        <ele>539.0</ele>
        <time>1970-01-01T12:10:12.000Z</time>
      </trkpt>
      <trkpt lat="28.514379" lon="-16.344617">
        <ele>540.0</ele>
        <time>1970-01-01T12:10:14.000Z</time>
      </trkpt>
      <trkpt lat="28.514485" lon="-16.344557">
        <ele>541.0</ele>
        <time>1970-01-01T12:10:21.000Z</time>
      </trkpt>
      <trkpt lat="28.514611" lon="-16.344527">
        <ele>542.0</ele>
        <time>1970-01-01T12:10:27.000Z</time>
      </trkpt>
      <trkpt lat="28.514714" lon="-16.344502">
        <ele>543.2</ele>
        <time>1970-01-01T12:10:32.000Z</time>
      </trkpt>
      <trkpt lat="28.514838" lon="-16.344478">
        <ele>544.4</ele>
        <time>1970-01-01T12:10:37.000Z</time>
      </trkpt>
      <trkpt lat="28.515018" lon="-16.344449">
        <ele>545.2</ele>
        <time>1970-01-01T12:10:45.000Z</time>
      </trkpt>
      <trkpt lat="28.515078" lon="-16.344439">
        <ele>545.4</ele>
        <time>1970-01-01T12:10:48.000Z</time>
      </trkpt>
      <trkpt lat="28.515147" lon="-16.344413">
        <ele>546.4</ele>
        <time>1970-01-01T12:10:53.000Z</time>
      </trkpt>
      <trkpt lat="28.515208" lon="-16.344394">
        <ele>547.6</ele>
        <time>1970-01-01T12:10:58.000Z</time>
      </trkpt>
      <trkpt lat="28.515274" lon="-16.344376">
        <ele>548.6</ele>
        <time>1970-01-01T12:11:03.000Z</time>
      </trkpt>
      <trkpt lat="28.51532" lon="-16.344378">
        <ele>549.4</ele>
        <time>1970-01-01T12:11:06.000Z</time>
      </trkpt>
      <trkpt lat="28.515335" lon="-16.344377">
        <ele>549.8</ele>
        <time>1970-01-01T12:11:07.000Z</time>
      </trkpt>
      <trkpt lat="28.51538" lon="-16.344378">
        <ele>550.2</ele>
        <time>1970-01-01T12:11:10.000Z</time>
      </trkpt>
      <trkpt lat="28.51541" lon="-16.344376">
        <ele>551.0</ele>
        <time>1970-01-01T12:11:12.000Z</time>
      </trkpt>
      <trkpt lat="28.515479" lon="-16.344378">
        <ele>552.0</ele>
        <time>1970-01-01T12:11:16.000Z</time>
      </trkpt>
      <trkpt lat="28.515549" lon="-16.344378">
        <ele>553.2</ele>
        <time>1970-01-01T12:11:20.000Z</time>
      </trkpt>
      <trkpt lat="28.515565" lon="-16.344375">
        <ele>553.4</ele>
        <time>1970-01-01T12:11:21.000Z</time>
      </trkpt>
      <trkpt lat="28.515582" lon="-16.344373">
        <ele>553.6</ele>
        <time>1970-01-01T12:11:22.000Z</time>
      </trkpt>
      <trkpt lat="28.515597" lon="-16.34437">
        <ele>553.8</ele>
        <time>1970-01-01T12:11:23.000Z</time>
      </trkpt>
      <trkpt lat="28.515631" lon="-16.344371">
        <ele>554.2</ele>
        <time>1970-01-01T12:11:25.000Z</time>
      </trkpt>
      <trkpt lat="28.515714" lon="-16.344368">
        <ele>555.4</ele>
        <time>1970-01-01T12:11:29.000Z</time>
      </trkpt>
      <trkpt lat="28.515793" lon="-16.344384">
        <ele>556.6</ele>
        <time>1970-01-01T12:11:33.000Z</time>
      </trkpt>
      <trkpt lat="28.515889" lon="-16.344401">
        <ele>557.8</ele>
        <time>1970-01-01T12:11:38.000Z</time>
      </trkpt>
      <trkpt lat="28.515948" lon="-16.344363">
        <ele>558.4</ele>
        <time>1970-01-01T12:11:41.000Z</time>
      </trkpt>
      <trkpt lat="28.515982" lon="-16.34433">
        <ele>558.8</ele>
        <time>1970-01-01T12:11:43.000Z</time>
      </trkpt>
      <trkpt lat="28.516005" lon="-16.344272">
        <ele>559.2</ele>
        <time>1970-01-01T12:11:46.000Z</time>
      </trkpt>
      <trkpt lat="28.516042" lon="-16.344266">
        <ele>559.6</ele>
        <time>1970-01-01T12:11:48.000Z</time>
      </trkpt>
      <trkpt lat="28.516169" lon="-16.344289">
        <ele>559.6</ele>
        <time>1970-01-01T12:11:53.000Z</time>
      </trkpt>
      <trkpt lat="28.516291" lon="-16.344258">
        <ele>559.2</ele>
        <time>1970-01-01T12:11:59.000Z</time>
      </trkpt>
      <trkpt lat="28.516298" lon="-16.344255">
        <ele>559.0</ele>
        <time>1970-01-01T12:12:00.000Z</time>
      </trkpt>
      <trkpt lat="28.516301" lon="-16.344254">
        <ele>555.8</ele>
        <time>1970-01-01T12:12:43.000Z</time>
      </trkpt>
      <trkpt lat="28.516325" lon="-16.344254">
        <ele>555.8</ele>
        <time>1970-01-01T12:12:44.000Z</time>
      </trkpt>
      <trkpt lat="28.516433" lon="-16.344257">
        <ele>555.6</ele>
        <time>1970-01-01T12:12:48.000Z</time>
      </trkpt>
      <trkpt lat="28.516604" lon="-16.344361">
        <ele>554.6</ele>
        <time>1970-01-01T12:12:54.000Z</time>
      </trkpt>
      <trkpt lat="28.516634" lon="-16.34437">
        <ele>554.2</ele>
        <time>1970-01-01T12:12:55.000Z</time>
      </trkpt>
      <trkpt lat="28.516666" lon="-16.344372">
        <ele>553.8</ele>
        <time>1970-01-01T12:12:56.000Z</time>
      </trkpt>
      <trkpt lat="28.516702" lon="-16.344375">
        <ele>553.6</ele>
        <time>1970-01-01T12:12:57.000Z</time>
      </trkpt>
      <trkpt lat="28.516799" lon="-16.344379">
        <ele>552.2</ele>
        <time>1970-01-01T12:13:00.000Z</time>
      </trkpt>
      <trkpt lat="28.516864" lon="-16.34438">
        <ele>551.8</ele>
        <time>1970-01-01T12:13:02.000Z</time>
      </trkpt>
      <trkpt lat="28.516899" lon="-16.344384">
        <ele>551.8</ele>
        <time>1970-01-01T12:13:03.000Z</time>
      </trkpt>
      <trkpt lat="28.517008" lon="-16.344401">
        <ele>551.0</ele>
        <time>1970-01-01T12:13:06.000Z</time>
      </trkpt>
      <trkpt lat="28.517111" lon="-16.344456">
        <ele>550.0</ele>
        <time>1970-01-01T12:13:09.000Z</time>
      </trkpt>
      <trkpt lat="28.517211" lon="-16.344522">
        <ele>547.8</ele>
        <time>1970-01-01T12:13:12.000Z</time>
      </trkpt>
      <trkpt lat="28.517279" lon="-16.344557">
        <ele>546.4</ele>
        <time>1970-01-01T12:13:14.000Z</time>
      </trkpt>
      <trkpt lat="28.517397" lon="-16.344659">
        <ele>545.2</ele>
        <time>1970-01-01T12:13:18.000Z</time>
      </trkpt>
      <trkpt lat="28.517495" lon="-16.344767">
        <ele>544.0</ele>
        <time>1970-01-01T12:13:22.000Z</time>
      </trkpt>
      <trkpt lat="28.517618" lon="-16.344887">
        <ele>542.8</ele>
        <time>1970-01-01T12:13:27.000Z</time>
      </trkpt>
      <trkpt lat="28.517647" lon="-16.344894">
        <ele>542.4</ele>
        <time>1970-01-01T12:13:28.000Z</time>
      </trkpt>
      <trkpt lat="28.517724" lon="-16.344837">
        <ele>541.8</ele>
        <time>1970-01-01T12:13:31.000Z</time>
      </trkpt>
      <trkpt lat="28.5177" lon="-16.344721">
        <ele>540.4</ele>
        <time>1970-01-01T12:13:34.000Z</time>
      </trkpt>
      <trkpt lat="28.517685" lon="-16.344638">
        <ele>539.2</ele>
        <time>1970-01-01T12:13:36.000Z</time>
      </trkpt>
      <trkpt lat="28.517633" lon="-16.344496">
        <ele>537.6</ele>
        <time>1970-01-01T12:13:40.000Z</time>
      </trkpt>
      <trkpt lat="28.517597" lon="-16.344431">
        <ele>537.0</ele>
        <time>1970-01-01T12:13:42.000Z</time>
      </trkpt>
      <trkpt lat="28.517561" lon="-16.344362">
        <ele>535.6</ele>
        <time>1970-01-01T12:13:44.000Z</time>
      </trkpt>
      <trkpt lat="28.51752" lon="-16.34428">
        <ele>534.4</ele>
        <time>1970-01-01T12:13:46.000Z</time>
      </trkpt>
      <trkpt lat="28.517462" lon="-16.344209">
        <ele>533.4</ele>
        <time>1970-01-01T12:13:48.000Z</time>
      </trkpt>
      <trkpt lat="28.517429" lon="-16.344183">
        <ele>532.8</ele>
        <time>1970-01-01T12:13:49.000Z</time>
      </trkpt>
      <trkpt lat="28.517367" lon="-16.344143">
        <ele>531.6</ele>
        <time>1970-01-01T12:13:51.000Z</time>
      </trkpt>
      <trkpt lat="28.517281" lon="-16.344077">
        <ele>529.8</ele>
        <time>1970-01-01T12:13:54.000Z</time>
      </trkpt>
      <trkpt lat="28.51715" lon="-16.343946">
        <ele>528.8</ele>
        <time>1970-01-01T12:13:59.000Z</time>
      </trkpt>
      <trkpt lat="28.517032" lon="-16.343839">
        <ele>527.4</ele>
        <time>1970-01-01T12:14:03.000Z</time>
      </trkpt>
      <trkpt lat="28.516971" lon="-16.343796">
        <ele>526.2</ele>
        <time>1970-01-01T12:14:05.000Z</time>
      </trkpt>
      <trkpt lat="28.516886" lon="-16.343725">
        <ele>525.0</ele>
        <time>1970-01-01T12:14:08.000Z</time>
      </trkpt>
      <trkpt lat="28.516762" lon="-16.343645">
        <ele>523.8</ele>
        <time>1970-01-01T12:14:12.000Z</time>
      </trkpt>
      <trkpt lat="28.516698" lon="-16.343612">
        <ele>522.6</ele>
        <time>1970-01-01T12:14:14.000Z</time>
      </trkpt>
      <trkpt lat="28.51656" lon="-16.34356">
        <ele>521.4</ele>
        <time>1970-01-01T12:14:18.000Z</time>
      </trkpt>
      <trkpt lat="28.516374" lon="-16.343499">
        <ele>520.4</ele>
        <time>1970-01-01T12:14:24.000Z</time>
      </trkpt>
      <trkpt lat="28.51622" lon="-16.343423">
        <ele>519.4</ele>
        <time>1970-01-01T12:14:29.000Z</time>
      </trkpt>
      <trkpt lat="28.516103" lon="-16.343349">
        <ele>518.4</ele>
        <time>1970-01-01T12:14:33.000Z</time>
      </trkpt>
      <trkpt lat="28.516072" lon="-16.343326">
        <ele>518.2</ele>
        <time>1970-01-01T12:14:34.000Z</time>
      </trkpt>
      <trkpt lat="28.515981" lon="-16.343277">
        <ele>517.0</ele>
        <time>1970-01-01T12:14:37.000Z</time>
      </trkpt>
      <trkpt lat="28.51589" lon="-16.343221">
        <ele>515.6</ele>
        <time>1970-01-01T12:14:40.000Z</time>
      </trkpt>
      <trkpt lat="28.515826" lon="-16.343182">
        <ele>515.0</ele>
        <time>1970-01-01T12:14:42.000Z</time>
      </trkpt>
      <trkpt lat="28.515761" lon="-16.343143">
        <ele>514.4</ele>
        <time>1970-01-01T12:14:44.000Z</time>
      </trkpt>
      <trkpt lat="28.5157" lon="-16.343097">
        <ele>513.4</ele>
        <time>1970-01-01T12:14:46.000Z</time>
      </trkpt>
      <trkpt lat="28.515645" lon="-16.343034">
        <ele>512.2</ele>
        <time>1970-01-01T12:14:48.000Z</time>
      </trkpt>
      <trkpt lat="28.515516" lon="-16.34294">
        <ele>511.0</ele>
        <time>1970-01-01T12:14:52.000Z</time>
      </trkpt>
      <trkpt lat="28.515449" lon="-16.342899">
        <ele>510.2</ele>
        <time>1970-01-01T12:14:54.000Z</time>
      </trkpt>
      <trkpt lat="28.515383" lon="-16.342855">
        <ele>509.6</ele>
        <time>1970-01-01T12:14:56.000Z</time>
      </trkpt>
      <trkpt lat="28.515319" lon="-16.342819">
        <ele>508.6</ele>
        <time>1970-01-01T12:14:58.000Z</time>
      </trkpt>
      <trkpt lat="28.515252" lon="-16.342782">
        <ele>507.6</ele>
        <time>1970-01-01T12:15:00.000Z</time>
      </trkpt>
      <trkpt lat="28.515221" lon="-16.342759">
        <ele>507.4</ele>
        <time>1970-01-01T12:15:01.000Z</time>
      </trkpt>
      <trkpt lat="28.515152" lon="-16.342715">
        <ele>505.6</ele>
        <time>1970-01-01T12:15:03.000Z</time>
      </trkpt>
      <trkpt lat="28.51509" lon="-16.342675">
        <ele>504.6</ele>
        <time>1970-01-01T12:15:05.000Z</time>
      </trkpt>
      <trkpt lat="28.515001" lon="-16.342628">
        <ele>503.2</ele>
        <time>1970-01-01T12:15:08.000Z</time>
      </trkpt>
      <trkpt lat="28.514933" lon="-16.342628">
        <ele>501.6</ele>
        <time>1970-01-01T12:15:10.000Z</time>
      </trkpt>
      <trkpt lat="28.514885" lon="-16.342606">
        <ele>500.4</ele>
        <time>1970-01-01T12:15:12.000Z</time>
      </trkpt>
      <trkpt lat="28.514893" lon="-16.342556">
        <ele>499.2</ele>
        <time>1970-01-01T12:15:14.000Z</time>
      </trkpt>
      <trkpt lat="28.514982" lon="-16.342518">
        <ele>498.2</ele>
        <time>1970-01-01T12:15:17.000Z</time>
      </trkpt>
      <trkpt lat="28.515016" lon="-16.342504">
        <ele>498.0</ele>
        <time>1970-01-01T12:15:18.000Z</time>
      </trkpt>
      <trkpt lat="28.515137" lon="-16.342429">
        <ele>496.8</ele>
        <time>1970-01-01T12:15:22.000Z</time>
      </trkpt>
      <trkpt lat="28.515198" lon="-16.342385">
        <ele>495.2</ele>
        <time>1970-01-01T12:15:24.000Z</time>
      </trkpt>
      <trkpt lat="28.515264" lon="-16.342344">
        <ele>493.8</ele>
        <time>1970-01-01T12:15:26.000Z</time>
      </trkpt>
      <trkpt lat="28.515331" lon="-16.342306">
        <ele>492.6</ele>
        <time>1970-01-01T12:15:28.000Z</time>
      </trkpt>
      <trkpt lat="28.515386" lon="-16.342255">
        <ele>491.6</ele>
        <time>1970-01-01T12:15:30.000Z</time>
      </trkpt>
      <trkpt lat="28.515439" lon="-16.342199">
        <ele>490.4</ele>
        <time>1970-01-01T12:15:32.000Z</time>
      </trkpt>
      <trkpt lat="28.515498" lon="-16.342143">
        <ele>489.2</ele>
        <time>1970-01-01T12:15:34.000Z</time>
      </trkpt>
      <trkpt lat="28.515545" lon="-16.342077">
        <ele>487.8</ele>
        <time>1970-01-01T12:15:36.000Z</time>
      </trkpt>
      <trkpt lat="28.51558" lon="-16.342002">
        <ele>486.4</ele>
        <time>1970-01-01T12:15:38.000Z</time>
      </trkpt>
      <trkpt lat="28.515643" lon="-16.341907">
        <ele>485.2</ele>
        <time>1970-01-01T12:15:41.000Z</time>
      </trkpt>
      <trkpt lat="28.515696" lon="-16.34187">
        <ele>484.0</ele>
        <time>1970-01-01T12:15:43.000Z</time>
      </trkpt>
      <trkpt lat="28.515877" lon="-16.341836">
        <ele>483.2</ele>
        <time>1970-01-01T12:15:50.000Z</time>
      </trkpt>
      <trkpt lat="28.516068" lon="-16.341856">
        <ele>484.6</ele>
        <time>1970-01-01T12:15:57.000Z</time>
      </trkpt>
      <trkpt lat="28.516123" lon="-16.341858">
        <ele>485.0</ele>
        <time>1970-01-01T12:15:59.000Z</time>
      </trkpt>
      <trkpt lat="28.516217" lon="-16.34185">
        <ele>485.2</ele>
        <time>1970-01-01T12:16:02.000Z</time>
      </trkpt>
      <trkpt lat="28.516278" lon="-16.341839">
        <ele>486.2</ele>
        <time>1970-01-01T12:16:04.000Z</time>
      </trkpt>
      <trkpt lat="28.516468" lon="-16.341762">
        <ele>487.2</ele>
        <time>1970-01-01T12:16:12.000Z</time>
      </trkpt>
      <trkpt lat="28.516654" lon="-16.341695">
        <ele>488.2</ele>
        <time>1970-01-01T12:16:19.000Z</time>
      </trkpt>
      <trkpt lat="28.516791" lon="-16.341618">
        <ele>489.2</ele>
        <time>1970-01-01T12:16:25.000Z</time>
      </trkpt>
      <trkpt lat="28.516949" lon="-16.341561">
        <ele>490.4</ele>
        <time>1970-01-01T12:16:31.000Z</time>
      </trkpt>
      <trkpt lat="28.51713" lon="-16.341444">
        <ele>491.2</ele>
        <time>1970-01-01T12:16:38.000Z</time>
      </trkpt>
      <trkpt lat="28.517157" lon="-16.341399">
        <ele>491.4</ele>
        <time>1970-01-01T12:16:40.000Z</time>
      </trkpt>
      <trkpt lat="28.517155" lon="-16.341381">
        <ele>491.6</ele>
        <time>1970-01-01T12:16:41.000Z</time>
      </trkpt>
      <trkpt lat="28.517135" lon="-16.341382">
        <ele>491.6</ele>
        <time>1970-01-01T12:16:42.000Z</time>
      </trkpt>
      <trkpt lat="28.517088" lon="-16.341409">
        <ele>491.8</ele>
        <time>1970-01-01T12:16:44.000Z</time>
      </trkpt>
      <trkpt lat="28.517036" lon="-16.341439">
        <ele>492.0</ele>
        <time>1970-01-01T12:16:46.000Z</time>
      </trkpt>
      <trkpt lat="28.516899" lon="-16.341474">
        <ele>492.6</ele>
        <time>1970-01-01T12:16:53.000Z</time>
      </trkpt>
      <trkpt lat="28.516795" lon="-16.341485">
        <ele>493.8</ele>
        <time>1970-01-01T12:17:00.000Z</time>
      </trkpt>
      <trkpt lat="28.516781" lon="-16.341486">
        <ele>494.2</ele>
        <time>1970-01-01T12:17:01.000Z</time>
      </trkpt>
      <trkpt lat="28.516733" lon="-16.341491">
        <ele>495.0</ele>
        <time>1970-01-01T12:17:05.000Z</time>
      </trkpt>
      <trkpt lat="28.51667" lon="-16.341486">
        <ele>496.2</ele>
        <time>1970-01-01T12:17:11.000Z</time>
      </trkpt>
      <trkpt lat="28.516624" lon="-16.341474">
        <ele>497.6</ele>
        <time>1970-01-01T12:17:15.000Z</time>
      </trkpt>
      <trkpt lat="28.51658" lon="-16.341448">
        <ele>498.6</ele>
        <time>1970-01-01T12:17:20.000Z</time>
      </trkpt>
      <trkpt lat="28.516573" lon="-16.341437">
        <ele>498.6</ele>
        <time>1970-01-01T12:17:21.000Z</time>
      </trkpt>
      <trkpt lat="28.516547" lon="-16.341374">
        <ele>499.6</ele>
        <time>1970-01-01T12:17:26.000Z</time>
      </trkpt>
      <trkpt lat="28.516537" lon="-16.341312">
        <ele>500.8</ele>
        <time>1970-01-01T12:17:31.000Z</time>
      </trkpt>
      <trkpt lat="28.516538" lon="-16.341261">
        <ele>502.0</ele>
        <time>1970-01-01T12:17:35.000Z</time>
      </trkpt>
      <trkpt lat="28.516538" lon="-16.341179">
        <ele>503.0</ele>
        <time>1970-01-01T12:17:41.000Z</time>
      </trkpt>
      <trkpt lat="28.516543" lon="-16.34111">
        <ele>504.4</ele>
        <time>1970-01-01T12:17:46.000Z</time>
      </trkpt>
      <trkpt lat="28.516548" lon="-16.341037">
        <ele>505.4</ele>
        <time>1970-01-01T12:17:51.000Z</time>
      </trkpt>
      <trkpt lat="28.516552" lon="-16.341009">
        <ele>505.8</ele>
        <time>1970-01-01T12:17:53.000Z</time>
      </trkpt>
      <trkpt lat="28.516554" lon="-16.340996">
        <ele>506.4</ele>
        <time>1970-01-01T12:17:54.000Z</time>
      </trkpt>
      <trkpt lat="28.516556" lon="-16.340983">
        <ele>506.6</ele>
        <time>1970-01-01T12:17:55.000Z</time>
      </trkpt>
      <trkpt lat="28.516563" lon="-16.340903">
        <ele>507.8</ele>
        <time>1970-01-01T12:18:01.000Z</time>
      </trkpt>
      <trkpt lat="28.51657" lon="-16.340811">
        <ele>508.8</ele>
        <time>1970-01-01T12:18:07.000Z</time>
      </trkpt>
      <trkpt lat="28.516574" lon="-16.340717">
        <ele>510.0</ele>
        <time>1970-01-01T12:18:13.000Z</time>
      </trkpt>
      <trkpt lat="28.516577" lon="-16.340581">
        <ele>511.0</ele>
        <time>1970-01-01T12:18:20.000Z</time>
      </trkpt>
      <trkpt lat="28.516597" lon="-16.340368">
        <ele>512.0</ele>
        <time>1970-01-01T12:18:27.000Z</time>
      </trkpt>
      <trkpt lat="28.5166" lon="-16.340306">
        <ele>512.2</ele>
        <time>1970-01-01T12:18:29.000Z</time>
      </trkpt>
      <trkpt lat="28.516607" lon="-16.340159">
        <ele>513.0</ele>
        <time>1970-01-01T12:18:34.000Z</time>
      </trkpt>
      <trkpt lat="28.51661" lon="-16.340131">
        <ele>513.2</ele>
        <time>1970-01-01T12:18:35.000Z</time>
      </trkpt>
      <trkpt lat="28.516619" lon="-16.340019">
        <ele>513.8</ele>
        <time>1970-01-01T12:18:39.000Z</time>
      </trkpt>
      <trkpt lat="28.516631" lon="-16.339849">
        <ele>514.2</ele>
        <time>1970-01-01T12:18:45.000Z</time>
      </trkpt>
      <trkpt lat="28.516632" lon="-16.339659">
        <ele>514.8</ele>
        <time>1970-01-01T12:18:52.000Z</time>
      </trkpt>
      <trkpt lat="28.516629" lon="-16.339583">
        <ele>515.2</ele>
        <time>1970-01-01T12:18:55.000Z</time>
      </trkpt>
      <trkpt lat="28.516627" lon="-16.339557">
        <ele>515.4</ele>
        <time>1970-01-01T12:18:56.000Z</time>
      </trkpt>
      <trkpt lat="28.516627" lon="-16.339507">
        <ele>515.6</ele>
        <time>1970-01-01T12:18:58.000Z</time>
      </trkpt>
      <trkpt lat="28.516625" lon="-16.339458">
        <ele>516.2</ele>
        <time>1970-01-01T12:19:00.000Z</time>
      </trkpt>
      <trkpt lat="28.516628" lon="-16.339433">
        <ele>516.4</ele>
        <time>1970-01-01T12:19:01.000Z</time>
      </trkpt>
      <trkpt lat="28.51663" lon="-16.339408">
        <ele>516.6</ele>
        <time>1970-01-01T12:19:02.000Z</time>
      </trkpt>
      <trkpt lat="28.516634" lon="-16.339383">
        <ele>516.6</ele>
        <time>1970-01-01T12:19:03.000Z</time>
      </trkpt>
      <trkpt lat="28.516646" lon="-16.339235">
        <ele>517.8</ele>
        <time>1970-01-01T12:19:09.000Z</time>
      </trkpt>
      <trkpt lat="28.516654" lon="-16.33912">
        <ele>518.8</ele>
        <time>1970-01-01T12:19:14.000Z</time>
      </trkpt>
      <trkpt lat="28.516654" lon="-16.339099">
        <ele>518.8</ele>
        <time>1970-01-01T12:19:15.000Z</time>
      </trkpt>
      <trkpt lat="28.516654" lon="-16.339017">
        <ele>520.0</ele>
        <time>1970-01-01T12:19:19.000Z</time>
      </trkpt>
      <trkpt lat="28.516655" lon="-16.338879">
        <ele>521.2</ele>
        <time>1970-01-01T12:19:26.000Z</time>
      </trkpt>
      <trkpt lat="28.51666" lon="-16.33882">
        <ele>522.4</ele>
        <time>1970-01-01T12:19:29.000Z</time>
      </trkpt>
      <trkpt lat="28.516662" lon="-16.338759">
        <ele>523.4</ele>
        <time>1970-01-01T12:19:32.000Z</time>
      </trkpt>
      <trkpt lat="28.516668" lon="-16.338699">
        <ele>524.4</ele>
        <time>1970-01-01T12:19:35.000Z</time>
      </trkpt>
      <trkpt lat="28.516668" lon="-16.338657">
        <ele>525.0</ele>
        <time>1970-01-01T12:19:37.000Z</time>
      </trkpt>
      <trkpt lat="28.51667" lon="-16.338592">
        <ele>525.6</ele>
        <time>1970-01-01T12:19:40.000Z</time>
      </trkpt>
      <trkpt lat="28.516668" lon="-16.338502">
        <ele>526.6</ele>
        <time>1970-01-01T12:19:44.000Z</time>
      </trkpt>
      <trkpt lat="28.516663" lon="-16.338385">
        <ele>527.8</ele>
        <time>1970-01-01T12:19:49.000Z</time>
      </trkpt>
      <trkpt lat="28.516658" lon="-16.338247">
        <ele>528.8</ele>
        <time>1970-01-01T12:19:55.000Z</time>
      </trkpt>
      <trkpt lat="28.516642" lon="-16.33811">
        <ele>529.8</ele>
        <time>1970-01-01T12:20:01.000Z</time>
      </trkpt>
      <trkpt lat="28.516617" lon="-16.337998">
        <ele>531.0</ele>
        <time>1970-01-01T12:20:06.000Z</time>
      </trkpt>
      <trkpt lat="28.51654" lon="-16.337875">
        <ele>532.0</ele>
        <time>1970-01-01T12:20:13.000Z</time>
      </trkpt>
      <trkpt lat="28.516481" lon="-16.337847">
        <ele>533.2</ele>
        <time>1970-01-01T12:20:16.000Z</time>
      </trkpt>
      <trkpt lat="28.516387" lon="-16.337823">
        <ele>534.4</ele>
        <time>1970-01-01T12:20:21.000Z</time>
      </trkpt>
      <trkpt lat="28.516258" lon="-16.337819">
        <ele>535.6</ele>
        <time>1970-01-01T12:20:28.000Z</time>
      </trkpt>
      <trkpt lat="28.51618" lon="-16.33781">
        <ele>536.8</ele>
        <time>1970-01-01T12:20:32.000Z</time>
      </trkpt>
      <trkpt lat="28.516006" lon="-16.337789">
        <ele>537.8</ele>
        <time>1970-01-01T12:20:40.000Z</time>
      </trkpt>
      <trkpt lat="28.515802" lon="-16.337794">
        <ele>538.4</ele>
        <time>1970-01-01T12:20:48.000Z</time>
      </trkpt>
      <trkpt lat="28.515661" lon="-16.337802">
        <ele>538.8</ele>
        <time>1970-01-01T12:20:54.000Z</time>
      </trkpt>
      <trkpt lat="28.515496" lon="-16.337811">
        <ele>539.8</ele>
        <time>1970-01-01T12:21:01.000Z</time>
      </trkpt>
      <trkpt lat="28.515299" lon="-16.337819">
        <ele>540.6</ele>
        <time>1970-01-01T12:21:10.000Z</time>
      </trkpt>
      <trkpt lat="28.515256" lon="-16.337823">
        <ele>541.0</ele>
        <time>1970-01-01T12:21:12.000Z</time>
      </trkpt>
      <trkpt lat="28.515192" lon="-16.337822">
        <ele>541.2</ele>
        <time>1970-01-01T12:21:15.000Z</time>
      </trkpt>
      <trkpt lat="28.515148" lon="-16.337822">
        <ele>542.0</ele>
        <time>1970-01-01T12:21:17.000Z</time>
      </trkpt>
      <trkpt lat="28.514967" lon="-16.337826">
        <ele>543.0</ele>
        <time>1970-01-01T12:21:25.000Z</time>
      </trkpt>
      <trkpt lat="28.514792" lon="-16.337826">
        <ele>544.0</ele>
        <time>1970-01-01T12:21:32.000Z</time>
      </trkpt>
      <trkpt lat="28.514619" lon="-16.337782">
        <ele>544.6</ele>
        <time>1970-01-01T12:21:39.000Z</time>
      </trkpt>
      <trkpt lat="28.514434" lon="-16.337694">
        <ele>544.8</ele>
        <time>1970-01-01T12:21:46.000Z</time>
      </trkpt>
      <trkpt lat="28.514338" lon="-16.337606">
        <ele>544.4</ele>
        <time>1970-01-01T12:21:50.000Z</time>
      </trkpt>
      <trkpt lat="28.514338" lon="-16.337606">
        <ele>542.8</ele>
        <time>1970-01-01T12:21:56.000Z</time>
      </trkpt>
      <trkpt lat="28.514258" lon="-16.337303">
        <ele>541.8</ele>
        <time>1970-01-01T12:22:00.000Z</time>
      </trkpt>
      <trkpt lat="28.514243" lon="-16.337093">
        <ele>541.4</ele>
        <time>1970-01-01T12:22:09.000Z</time>
      </trkpt>
      <trkpt lat="28.514231" lon="-16.337072">
        <ele>541.6</ele>
        <time>1970-01-01T12:22:10.000Z</time>
      </trkpt>
      <trkpt lat="28.514214" lon="-16.337054">
        <ele>541.8</ele>
        <time>1970-01-01T12:22:11.000Z</time>
      </trkpt>
      <trkpt lat="28.514123" lon="-16.33698">
        <ele>542.8</ele>
        <time>1970-01-01T12:22:16.000Z</time>
      </trkpt>
      <trkpt lat="28.514067" lon="-16.336965">
        <ele>543.0</ele>
        <time>1970-01-01T12:22:20.000Z</time>
      </trkpt>
      <trkpt lat="28.514045" lon="-16.336961">
        <ele>543.2</ele>
        <time>1970-01-01T12:22:22.000Z</time>
      </trkpt>
      <trkpt lat="28.513952" lon="-16.336949">
        <ele>544.0</ele>
        <time>1970-01-01T12:22:31.000Z</time>
      </trkpt>
      <trkpt lat="28.513875" lon="-16.336952">
        <ele>545.4</ele>
        <time>1970-01-01T12:22:38.000Z</time>
      </trkpt>
      <trkpt lat="28.513788" lon="-16.33694">
        <ele>546.6</ele>
        <time>1970-01-01T12:22:45.000Z</time>
      </trkpt>
      <trkpt lat="28.513761" lon="-16.336908">
        <ele>547.6</ele>
        <time>1970-01-01T12:22:49.000Z</time>
      </trkpt>
      <trkpt lat="28.513748" lon="-16.336887">
        <ele>547.8</ele>
        <time>1970-01-01T12:22:51.000Z</time>
      </trkpt>
      <trkpt lat="28.513746" lon="-16.336853">
        <ele>548.8</ele>
        <time>1970-01-01T12:22:54.000Z</time>
      </trkpt>
      <trkpt lat="28.513732" lon="-16.336792">
        <ele>550.0</ele>
        <time>1970-01-01T12:23:00.000Z</time>
      </trkpt>
      <trkpt lat="28.513726" lon="-16.336722">
        <ele>551.2</ele>
        <time>1970-01-01T12:23:06.000Z</time>
      </trkpt>
      <trkpt lat="28.513716" lon="-16.336652">
        <ele>552.4</ele>
        <time>1970-01-01T12:23:12.000Z</time>
      </trkpt>
      <trkpt lat="28.513713" lon="-16.336605">
        <ele>553.6</ele>
        <time>1970-01-01T12:23:16.000Z</time>
      </trkpt>
      <trkpt lat="28.513716" lon="-16.336581">
        <ele>554.6</ele>
        <time>1970-01-01T12:23:19.000Z</time>
      </trkpt>
      <trkpt lat="28.51372" lon="-16.336539">
        <ele>555.8</ele>
        <time>1970-01-01T12:23:24.000Z</time>
      </trkpt>
      <trkpt lat="28.513706" lon="-16.3365">
        <ele>556.8</ele>
        <time>1970-01-01T12:23:35.000Z</time>
      </trkpt>
      <trkpt lat="28.513704" lon="-16.336499">
        <ele>557.2</ele>
        <time>1970-01-01T12:23:38.000Z</time>
      </trkpt>
      <trkpt lat="28.513701" lon="-16.336487">
        <ele>557.6</ele>
        <time>1970-01-01T12:23:42.000Z</time>
      </trkpt>
      <trkpt lat="28.513704" lon="-16.336452">
        <ele>557.8</ele>
        <time>1970-01-01T12:23:45.000Z</time>
      </trkpt>
      <trkpt lat="28.51371" lon="-16.336443">
        <ele>557.8</ele>
        <time>1970-01-01T12:23:46.000Z</time>
      </trkpt>
      <trkpt lat="28.513721" lon="-16.336412">
        <ele>558.0</ele>
        <time>1970-01-01T12:23:49.000Z</time>
      </trkpt>
      <trkpt lat="28.513702" lon="-16.336352">
        <ele>558.4</ele>
        <time>1970-01-01T12:23:55.000Z</time>
      </trkpt>
      <trkpt lat="28.513687" lon="-16.336333">
        <ele>559.0</ele>
        <time>1970-01-01T12:23:57.000Z</time>
      </trkpt>
      <trkpt lat="28.513668" lon="-16.336282">
        <ele>560.0</ele>
        <time>1970-01-01T12:24:02.000Z</time>
      </trkpt>
      <trkpt lat="28.513646" lon="-16.336239">
        <ele>561.0</ele>
        <time>1970-01-01T12:24:06.000Z</time>
      </trkpt>
      <trkpt lat="28.51363" lon="-16.336225">
        <ele>561.4</ele>
        <time>1970-01-01T12:24:08.000Z</time>
      </trkpt>
      <trkpt lat="28.513616" lon="-16.336212">
        <ele>562.0</ele>
        <time>1970-01-01T12:24:10.000Z</time>
      </trkpt>
      <trkpt lat="28.513597" lon="-16.336174">
        <ele>563.4</ele>
        <time>1970-01-01T12:24:15.000Z</time>
      </trkpt>
      <trkpt lat="28.513583" lon="-16.336159">
        <ele>564.4</ele>
        <time>1970-01-01T12:24:17.000Z</time>
      </trkpt>
      <trkpt lat="28.51357" lon="-16.336136">
        <ele>565.4</ele>
        <time>1970-01-01T12:24:20.000Z</time>
      </trkpt>
      <trkpt lat="28.513593" lon="-16.336114">
        <ele>566.4</ele>
        <time>1970-01-01T12:24:24.000Z</time>
      </trkpt>
      <trkpt lat="28.513614" lon="-16.336111">
        <ele>566.8</ele>
        <time>1970-01-01T12:24:26.000Z</time>
      </trkpt>
      <trkpt lat="28.513702" lon="-16.336108">
        <ele>567.8</ele>
        <time>1970-01-01T12:24:32.000Z</time>
      </trkpt>
      <trkpt lat="28.513719" lon="-16.336102">
        <ele>568.2</ele>
        <time>1970-01-01T12:24:33.000Z</time>
      </trkpt>
      <trkpt lat="28.513735" lon="-16.336102">
        <ele>568.2</ele>
        <time>1970-01-01T12:24:34.000Z</time>
      </trkpt>
      <trkpt lat="28.51377" lon="-16.336098">
        <ele>568.6</ele>
        <time>1970-01-01T12:24:36.000Z</time>
      </trkpt>
      <trkpt lat="28.513789" lon="-16.336092">
        <ele>568.8</ele>
        <time>1970-01-01T12:24:37.000Z</time>
      </trkpt>
      <trkpt lat="28.513825" lon="-16.336076">
        <ele>569.0</ele>
        <time>1970-01-01T12:24:39.000Z</time>
      </trkpt>
      <trkpt lat="28.513834" lon="-16.336061">
        <ele>569.2</ele>
        <time>1970-01-01T12:24:40.000Z</time>
      </trkpt>
      <trkpt lat="28.513842" lon="-16.33605">
        <ele>569.4</ele>
        <time>1970-01-01T12:24:41.000Z</time>
      </trkpt>
      <trkpt lat="28.513854" lon="-16.33602">
        <ele>570.0</ele>
        <time>1970-01-01T12:24:44.000Z</time>
      </trkpt>
      <trkpt lat="28.513857" lon="-16.336013">
        <ele>570.4</ele>
        <time>1970-01-01T12:24:45.000Z</time>
      </trkpt>
      <trkpt lat="28.513843" lon="-16.335987">
        <ele>571.8</ele>
        <time>1970-01-01T12:24:48.000Z</time>
      </trkpt>
      <trkpt lat="28.513803" lon="-16.335982">
        <ele>573.0</ele>
        <time>1970-01-01T12:24:51.000Z</time>
      </trkpt>
      <trkpt lat="28.513741" lon="-16.335981">
        <ele>574.2</ele>
        <time>1970-01-01T12:24:54.000Z</time>
      </trkpt>
      <trkpt lat="28.513652" lon="-16.335968">
        <ele>575.2</ele>
        <time>1970-01-01T12:24:58.000Z</time>
      </trkpt>
      <trkpt lat="28.513581" lon="-16.335929">
        <ele>575.8</ele>
        <time>1970-01-01T12:25:02.000Z</time>
      </trkpt>
      <trkpt lat="28.513576" lon="-16.335874">
        <ele>576.4</ele>
        <time>1970-01-01T12:25:06.000Z</time>
      </trkpt>
      <trkpt lat="28.513589" lon="-16.335822">
        <ele>577.4</ele>
        <time>1970-01-01T12:25:11.000Z</time>
      </trkpt>
      <trkpt lat="28.513589" lon="-16.335812">
        <ele>577.6</ele>
        <time>1970-01-01T12:25:12.000Z</time>
      </trkpt>
      <trkpt lat="28.513591" lon="-16.335784">
        <ele>578.2</ele>
        <time>1970-01-01T12:25:14.000Z</time>
      </trkpt>
      <trkpt lat="28.513592" lon="-16.335772">
        <ele>578.4</ele>
        <time>1970-01-01T12:25:15.000Z</time>
      </trkpt>
      <trkpt lat="28.513597" lon="-16.335752">
        <ele>578.8</ele>
        <time>1970-01-01T12:25:17.000Z</time>
      </trkpt>
      <trkpt lat="28.513615" lon="-16.335736">
        <ele>579.4</ele>
        <time>1970-01-01T12:25:19.000Z</time>
      </trkpt>
      <trkpt lat="28.513628" lon="-16.335729">
        <ele>579.8</ele>
        <time>1970-01-01T12:25:20.000Z</time>
      </trkpt>
      <trkpt lat="28.513676" lon="-16.335697">
        <ele>580.6</ele>
        <time>1970-01-01T12:25:24.000Z</time>
      </trkpt>
      <trkpt lat="28.513714" lon="-16.335676">
        <ele>581.8</ele>
        <time>1970-01-01T12:25:28.000Z</time>
      </trkpt>
      <trkpt lat="28.513746" lon="-16.335627">
        <ele>583.0</ele>
        <time>1970-01-01T12:25:33.000Z</time>
      </trkpt>
      <trkpt lat="28.51376" lon="-16.335563">
        <ele>584.2</ele>
        <time>1970-01-01T12:25:38.000Z</time>
      </trkpt>
      <trkpt lat="28.513746" lon="-16.33552">
        <ele>585.4</ele>
        <time>1970-01-01T12:25:43.000Z</time>
      </trkpt>
      <trkpt lat="28.513731" lon="-16.335485">
        <ele>585.6</ele>
        <time>1970-01-01T12:25:46.000Z</time>
      </trkpt>
      <trkpt lat="28.513702" lon="-16.335426">
        <ele>586.2</ele>
        <time>1970-01-01T12:25:51.000Z</time>
      </trkpt>
      <trkpt lat="28.513693" lon="-16.335415">
        <ele>586.6</ele>
        <time>1970-01-01T12:25:52.000Z</time>
      </trkpt>
      <trkpt lat="28.513667" lon="-16.335374">
        <ele>587.0</ele>
        <time>1970-01-01T12:25:56.000Z</time>
      </trkpt>
      <trkpt lat="28.513642" lon="-16.335347">
        <ele>587.6</ele>
        <time>1970-01-01T12:25:59.000Z</time>
      </trkpt>
      <trkpt lat="28.513591" lon="-16.335293">
        <ele>588.8</ele>
        <time>1970-01-01T12:26:04.000Z</time>
      </trkpt>
      <trkpt lat="28.513559" lon="-16.335296">
        <ele>589.2</ele>
        <time>1970-01-01T12:26:06.000Z</time>
      </trkpt>
      <trkpt lat="28.5135" lon="-16.335327">
        <ele>589.8</ele>
        <time>1970-01-01T12:26:10.000Z</time>
      </trkpt>
      <trkpt lat="28.51348" lon="-16.335336">
        <ele>590.0</ele>
        <time>1970-01-01T12:26:11.000Z</time>
      </trkpt>
      <trkpt lat="28.513397" lon="-16.335361">
        <ele>591.0</ele>
        <time>1970-01-01T12:26:15.000Z</time>
      </trkpt>
      <trkpt lat="28.513258" lon="-16.335343">
        <ele>592.0</ele>
        <time>1970-01-01T12:26:24.000Z</time>
      </trkpt>
      <trkpt lat="28.513192" lon="-16.335349">
        <ele>593.2</ele>
        <time>1970-01-01T12:26:28.000Z</time>
      </trkpt>
      <trkpt lat="28.513145" lon="-16.335344">
        <ele>594.2</ele>
        <time>1970-01-01T12:26:31.000Z</time>
      </trkpt>
      <trkpt lat="28.513075" lon="-16.335324">
        <ele>595.4</ele>
        <time>1970-01-01T12:26:35.000Z</time>
      </trkpt>
      <trkpt lat="28.513006" lon="-16.335313">
        <ele>596.4</ele>
        <time>1970-01-01T12:26:39.000Z</time>
      </trkpt>
      <trkpt lat="28.512976" lon="-16.335304">
        <ele>596.8</ele>
        <time>1970-01-01T12:26:41.000Z</time>
      </trkpt>
      <trkpt lat="28.512918" lon="-16.335298">
        <ele>597.6</ele>
        <time>1970-01-01T12:26:45.000Z</time>
      </trkpt>
      <trkpt lat="28.51288" lon="-16.335288">
        <ele>598.4</ele>
        <time>1970-01-01T12:26:48.000Z</time>
      </trkpt>
      <trkpt lat="28.512863" lon="-16.335282">
        <ele>598.8</ele>
        <time>1970-01-01T12:26:50.000Z</time>
      </trkpt>
      <trkpt lat="28.512847" lon="-16.335274">
        <ele>599.2</ele>
        <time>1970-01-01T12:26:52.000Z</time>
      </trkpt>
      <trkpt lat="28.512821" lon="-16.335268">
        <ele>600.0</ele>
        <time>1970-01-01T12:26:55.000Z</time>
      </trkpt>
      <trkpt lat="28.512782" lon="-16.335266">
        <ele>600.8</ele>
        <time>1970-01-01T12:26:59.000Z</time>
      </trkpt>
      <trkpt lat="28.512763" lon="-16.335264">
        <ele>601.0</ele>
        <time>1970-01-01T12:27:01.000Z</time>
      </trkpt>
      <trkpt lat="28.512714" lon="-16.335251">
        <ele>602.0</ele>
        <time>1970-01-01T12:27:06.000Z</time>
      </trkpt>
      <trkpt lat="28.512675" lon="-16.335244">
        <ele>603.4</ele>
        <time>1970-01-01T12:27:10.000Z</time>
      </trkpt>
      <trkpt lat="28.51263" lon="-16.335231">
        <ele>604.4</ele>
        <time>1970-01-01T12:27:14.000Z</time>
      </trkpt>
      <trkpt lat="28.51258" lon="-16.335227">
        <ele>605.4</ele>
        <time>1970-01-01T12:27:18.000Z</time>
      </trkpt>
      <trkpt lat="28.512546" lon="-16.335243">
        <ele>606.6</ele>
        <time>1970-01-01T12:27:21.000Z</time>
      </trkpt>
      <trkpt lat="28.512487" lon="-16.335264">
        <ele>607.6</ele>
        <time>1970-01-01T12:27:26.000Z</time>
      </trkpt>
      <trkpt lat="28.512419" lon="-16.33529">
        <ele>608.6</ele>
        <time>1970-01-01T12:27:31.000Z</time>
      </trkpt>
      <trkpt lat="28.512345" lon="-16.335325">
        <ele>609.8</ele>
        <time>1970-01-01T12:27:37.000Z</time>
      </trkpt>
      <trkpt lat="28.512294" lon="-16.335344">
        <ele>610.8</ele>
        <time>1970-01-01T12:27:41.000Z</time>
      </trkpt>
      <trkpt lat="28.512206" lon="-16.335368">
        <ele>612.0</ele>
        <time>1970-01-01T12:27:48.000Z</time>
      </trkpt>
      <trkpt lat="28.512113" lon="-16.335381">
        <ele>613.2</ele>
        <time>1970-01-01T12:27:55.000Z</time>
      </trkpt>
      <trkpt lat="28.512086" lon="-16.335383">
        <ele>614.0</ele>
        <time>1970-01-01T12:27:57.000Z</time>
      </trkpt>
      <trkpt lat="28.51206" lon="-16.335385">
        <ele>614.4</ele>
        <time>1970-01-01T12:27:59.000Z</time>
      </trkpt>
      <trkpt lat="28.511988" lon="-16.335401">
        <ele>615.4</ele>
        <time>1970-01-01T12:28:05.000Z</time>
      </trkpt>
      <trkpt lat="28.511931" lon="-16.335399">
        <ele>616.4</ele>
        <time>1970-01-01T12:28:10.000Z</time>
      </trkpt>
      <trkpt lat="28.511928" lon="-16.335375">
        <ele>617.4</ele>
        <time>1970-01-01T12:28:12.000Z</time>
      </trkpt>
      <trkpt lat="28.511948" lon="-16.335361">
        <ele>618.0</ele>
        <time>1970-01-01T12:28:14.000Z</time>
      </trkpt>
      <trkpt lat="28.511983" lon="-16.335352">
        <ele>618.4</ele>
        <time>1970-01-01T12:28:17.000Z</time>
      </trkpt>
      <trkpt lat="28.511995" lon="-16.335344">
        <ele>618.6</ele>
        <time>1970-01-01T12:28:18.000Z</time>
      </trkpt>
      <trkpt lat="28.512059" lon="-16.335287">
        <ele>619.6</ele>
        <time>1970-01-01T12:28:23.000Z</time>
      </trkpt>
      <trkpt lat="28.512068" lon="-16.335277">
        <ele>619.6</ele>
        <time>1970-01-01T12:28:24.000Z</time>
      </trkpt>
      <trkpt lat="28.512109" lon="-16.335231">
        <ele>620.8</ele>
        <time>1970-01-01T12:28:29.000Z</time>
      </trkpt>
      <trkpt lat="28.512186" lon="-16.335172">
        <ele>622.0</ele>
        <time>1970-01-01T12:28:35.000Z</time>
      </trkpt>
      <trkpt lat="28.512232" lon="-16.335073">
        <ele>623.2</ele>
        <time>1970-01-01T12:28:39.000Z</time>
      </trkpt>
      <trkpt lat="28.51223" lon="-16.334845">
        <ele>624.2</ele>
        <time>1970-01-01T12:28:47.000Z</time>
      </trkpt>
      <trkpt lat="28.512278" lon="-16.334698">
        <ele>624.6</ele>
        <time>1970-01-01T12:28:54.000Z</time>
      </trkpt>
      <trkpt lat="28.512313" lon="-16.334628">
        <ele>625.6</ele>
        <time>1970-01-01T12:29:00.000Z</time>
      </trkpt>
      <trkpt lat="28.512329" lon="-16.334595">
        <ele>626.4</ele>
        <time>1970-01-01T12:29:04.000Z</time>
      </trkpt>
      <trkpt lat="28.512339" lon="-16.334574">
        <ele>626.8</ele>
        <time>1970-01-01T12:29:07.000Z</time>
      </trkpt>
      <trkpt lat="28.512348" lon="-16.33453">
        <ele>628.0</ele>
        <time>1970-01-01T12:29:11.000Z</time>
      </trkpt>
      <trkpt lat="28.51235" lon="-16.334507">
        <ele>629.2</ele>
        <time>1970-01-01T12:29:13.000Z</time>
      </trkpt>
      <trkpt lat="28.51235" lon="-16.334483">
        <ele>629.4</ele>
        <time>1970-01-01T12:29:15.000Z</time>
      </trkpt>
      <trkpt lat="28.512358" lon="-16.33443">
        <ele>630.2</ele>
        <time>1970-01-01T12:29:19.000Z</time>
      </trkpt>
      <trkpt lat="28.512347" lon="-16.334383">
        <ele>631.6</ele>
        <time>1970-01-01T12:29:24.000Z</time>
      </trkpt>
      <trkpt lat="28.512352" lon="-16.334352">
        <ele>632.8</ele>
        <time>1970-01-01T12:29:28.000Z</time>
      </trkpt>
      <trkpt lat="28.51235" lon="-16.334329">
        <ele>633.6</ele>
        <time>1970-01-01T12:29:32.000Z</time>
      </trkpt>
      <trkpt lat="28.512348" lon="-16.334321">
        <ele>634.2</ele>
        <time>1970-01-01T12:29:35.000Z</time>
      </trkpt>
      <trkpt lat="28.512342" lon="-16.334292">
        <ele>634.8</ele>
        <time>1970-01-01T12:29:38.000Z</time>
      </trkpt>
      <trkpt lat="28.512339" lon="-16.334263">
        <ele>635.2</ele>
        <time>1970-01-01T12:29:41.000Z</time>
      </trkpt>
      <trkpt lat="28.512306" lon="-16.33419">
        <ele>636.6</ele>
        <time>1970-01-01T12:29:49.000Z</time>
      </trkpt>
      <trkpt lat="28.512293" lon="-16.334146">
        <ele>637.6</ele>
        <time>1970-01-01T12:29:54.000Z</time>
      </trkpt>
      <trkpt lat="28.512291" lon="-16.334133">
        <ele>638.2</ele>
        <time>1970-01-01T12:29:56.000Z</time>
      </trkpt>
      <trkpt lat="28.512285" lon="-16.334116">
        <ele>638.8</ele>
        <time>1970-01-01T12:29:58.000Z</time>
      </trkpt>
      <trkpt lat="28.51227" lon="-16.334087">
        <ele>639.8</ele>
        <time>1970-01-01T12:30:02.000Z</time>
      </trkpt>
      <trkpt lat="28.512254" lon="-16.33404">
        <ele>641.0</ele>
        <time>1970-01-01T12:30:08.000Z</time>
      </trkpt>
      <trkpt lat="28.512235" lon="-16.334004">
        <ele>642.0</ele>
        <time>1970-01-01T12:30:13.000Z</time>
      </trkpt>
      <trkpt lat="28.512214" lon="-16.333978">
        <ele>643.0</ele>
        <time>1970-01-01T12:30:16.000Z</time>
      </trkpt>
      <trkpt lat="28.512209" lon="-16.333966">
        <ele>643.2</ele>
        <time>1970-01-01T12:30:17.000Z</time>
      </trkpt>
      <trkpt lat="28.512173" lon="-16.33391">
        <ele>644.0</ele>
        <time>1970-01-01T12:30:21.000Z</time>
      </trkpt>
      <trkpt lat="28.512165" lon="-16.333894">
        <ele>644.0</ele>
        <time>1970-01-01T12:30:22.000Z</time>
      </trkpt>
      <trkpt lat="28.512135" lon="-16.333849">
        <ele>645.0</ele>
        <time>1970-01-01T12:30:26.000Z</time>
      </trkpt>
      <trkpt lat="28.512129" lon="-16.333841">
        <ele>645.2</ele>
        <time>1970-01-01T12:30:27.000Z</time>
      </trkpt>
      <trkpt lat="28.512116" lon="-16.333825">
        <ele>646.0</ele>
        <time>1970-01-01T12:30:29.000Z</time>
      </trkpt>
      <trkpt lat="28.51211" lon="-16.333819">
        <ele>646.4</ele>
        <time>1970-01-01T12:30:30.000Z</time>
      </trkpt>
      <trkpt lat="28.512086" lon="-16.333796">
        <ele>647.4</ele>
        <time>1970-01-01T12:30:33.000Z</time>
      </trkpt>
      <trkpt lat="28.512057" lon="-16.333773">
        <ele>648.6</ele>
        <time>1970-01-01T12:30:37.000Z</time>
      </trkpt>
      <trkpt lat="28.512032" lon="-16.333715">
        <ele>649.8</ele>
        <time>1970-01-01T12:30:43.000Z</time>
      </trkpt>
      <trkpt lat="28.512028" lon="-16.333698">
        <ele>650.2</ele>
        <time>1970-01-01T12:30:45.000Z</time>
      </trkpt>
      <trkpt lat="28.512024" lon="-16.333689">
        <ele>650.8</ele>
        <time>1970-01-01T12:30:46.000Z</time>
      </trkpt>
      <trkpt lat="28.512026" lon="-16.333679">
        <ele>651.2</ele>
        <time>1970-01-01T12:30:47.000Z</time>
      </trkpt>
      <trkpt lat="28.512028" lon="-16.333666">
        <ele>651.4</ele>
        <time>1970-01-01T12:30:48.000Z</time>
      </trkpt>
      <trkpt lat="28.512024" lon="-16.333638">
        <ele>652.0</ele>
        <time>1970-01-01T12:30:51.000Z</time>
      </trkpt>
      <trkpt lat="28.512008" lon="-16.333614">
        <ele>653.2</ele>
        <time>1970-01-01T12:30:54.000Z</time>
      </trkpt>
      <trkpt lat="28.511999" lon="-16.333593">
        <ele>653.6</ele>
        <time>1970-01-01T12:30:56.000Z</time>
      </trkpt>
      <trkpt lat="28.51199" lon="-16.333543">
        <ele>654.4</ele>
        <time>1970-01-01T12:31:00.000Z</time>
      </trkpt>
      <trkpt lat="28.511986" lon="-16.333532">
        <ele>654.6</ele>
        <time>1970-01-01T12:31:01.000Z</time>
      </trkpt>
      <trkpt lat="28.511982" lon="-16.333523">
        <ele>654.8</ele>
        <time>1970-01-01T12:31:02.000Z</time>
      </trkpt>
      <trkpt lat="28.51197" lon="-16.333506">
        <ele>655.8</ele>
        <time>1970-01-01T12:31:04.000Z</time>
      </trkpt>
      <trkpt lat="28.511959" lon="-16.33347">
        <ele>656.8</ele>
        <time>1970-01-01T12:31:08.000Z</time>
      </trkpt>
      <trkpt lat="28.511957" lon="-16.33346">
        <ele>657.0</ele>
        <time>1970-01-01T12:31:09.000Z</time>
      </trkpt>
      <trkpt lat="28.511946" lon="-16.333429">
        <ele>658.0</ele>
        <time>1970-01-01T12:31:12.000Z</time>
      </trkpt>
      <trkpt lat="28.51193" lon="-16.333388">
        <ele>659.2</ele>
        <time>1970-01-01T12:31:16.000Z</time>
      </trkpt>
      <trkpt lat="28.511904" lon="-16.333357">
        <ele>660.2</ele>
        <time>1970-01-01T12:31:20.000Z</time>
      </trkpt>
      <trkpt lat="28.511886" lon="-16.333323">
        <ele>661.4</ele>
        <time>1970-01-01T12:31:24.000Z</time>
      </trkpt>
      <trkpt lat="28.511868" lon="-16.3333">
        <ele>662.4</ele>
        <time>1970-01-01T12:31:28.000Z</time>
      </trkpt>
      <trkpt lat="28.511851" lon="-16.333282">
        <ele>663.4</ele>
        <time>1970-01-01T12:31:32.000Z</time>
      </trkpt>
      <trkpt lat="28.511823" lon="-16.333254">
        <ele>664.4</ele>
        <time>1970-01-01T12:31:36.000Z</time>
      </trkpt>
      <trkpt lat="28.511801" lon="-16.333224">
        <ele>665.4</ele>
        <time>1970-01-01T12:31:40.000Z</time>
      </trkpt>
      <trkpt lat="28.511793" lon="-16.333168">
        <ele>666.6</ele>
        <time>1970-01-01T12:31:45.000Z</time>
      </trkpt>
      <trkpt lat="28.511787" lon="-16.333121">
        <ele>667.4</ele>
        <time>1970-01-01T12:31:48.000Z</time>
      </trkpt>
      <trkpt lat="28.511771" lon="-16.333097">
        <ele>667.6</ele>
        <time>1970-01-01T12:31:50.000Z</time>
      </trkpt>
      <trkpt lat="28.511745" lon="-16.333017">
        <ele>669.2</ele>
        <time>1970-01-01T12:31:56.000Z</time>
      </trkpt>
      <trkpt lat="28.511723" lon="-16.33299">
        <ele>670.2</ele>
        <time>1970-01-01T12:32:00.000Z</time>
      </trkpt>
      <trkpt lat="28.511709" lon="-16.332977">
        <ele>670.8</ele>
        <time>1970-01-01T12:32:02.000Z</time>
      </trkpt>
      <trkpt lat="28.511702" lon="-16.33297">
        <ele>671.2</ele>
        <time>1970-01-01T12:32:03.000Z</time>
      </trkpt>
      <trkpt lat="28.511675" lon="-16.332944">
        <ele>672.2</ele>
        <time>1970-01-01T12:32:06.000Z</time>
      </trkpt>
      <trkpt lat="28.511643" lon="-16.332915">
        <ele>673.2</ele>
        <time>1970-01-01T12:32:09.000Z</time>
      </trkpt>
      <trkpt lat="28.511638" lon="-16.332906">
        <ele>673.4</ele>
        <time>1970-01-01T12:32:10.000Z</time>
      </trkpt>
      <trkpt lat="28.511629" lon="-16.332886">
        <ele>674.0</ele>
        <time>1970-01-01T12:32:12.000Z</time>
      </trkpt>
      <trkpt lat="28.511621" lon="-16.332875">
        <ele>674.2</ele>
        <time>1970-01-01T12:32:13.000Z</time>
      </trkpt>
      <trkpt lat="28.511611" lon="-16.332866">
        <ele>674.8</ele>
        <time>1970-01-01T12:32:14.000Z</time>
      </trkpt>
      <trkpt lat="28.511595" lon="-16.33285">
        <ele>675.4</ele>
        <time>1970-01-01T12:32:16.000Z</time>
      </trkpt>
      <trkpt lat="28.511589" lon="-16.332841">
        <ele>675.4</ele>
        <time>1970-01-01T12:32:17.000Z</time>
      </trkpt>
      <trkpt lat="28.51158" lon="-16.332822">
        <ele>676.0</ele>
        <time>1970-01-01T12:32:19.000Z</time>
      </trkpt>
      <trkpt lat="28.511566" lon="-16.332809">
        <ele>676.6</ele>
        <time>1970-01-01T12:32:21.000Z</time>
      </trkpt>
      <trkpt lat="28.511544" lon="-16.332797">
        <ele>677.0</ele>
        <time>1970-01-01T12:32:24.000Z</time>
      </trkpt>
      <trkpt lat="28.511536" lon="-16.332793">
        <ele>677.2</ele>
        <time>1970-01-01T12:32:25.000Z</time>
      </trkpt>
      <trkpt lat="28.511513" lon="-16.332784">
        <ele>678.2</ele>
        <time>1970-01-01T12:32:28.000Z</time>
      </trkpt>
      <trkpt lat="28.511478" lon="-16.332766">
        <ele>679.2</ele>
        <time>1970-01-01T12:32:33.000Z</time>
      </trkpt>
      <trkpt lat="28.511462" lon="-16.332753">
        <ele>679.8</ele>
        <time>1970-01-01T12:32:35.000Z</time>
      </trkpt>
      <trkpt lat="28.511453" lon="-16.332746">
        <ele>680.0</ele>
        <time>1970-01-01T12:32:36.000Z</time>
      </trkpt>
      <trkpt lat="28.511439" lon="-16.332733">
        <ele>680.2</ele>
        <time>1970-01-01T12:32:38.000Z</time>
      </trkpt>
      <trkpt lat="28.51143" lon="-16.332729">
        <ele>680.6</ele>
        <time>1970-01-01T12:32:39.000Z</time>
      </trkpt>
      <trkpt lat="28.511398" lon="-16.332707">
        <ele>681.8</ele>
        <time>1970-01-01T12:32:43.000Z</time>
      </trkpt>
      <trkpt lat="28.511378" lon="-16.332701">
        <ele>682.2</ele>
        <time>1970-01-01T12:32:46.000Z</time>
      </trkpt>
      <trkpt lat="28.511365" lon="-16.332701">
        <ele>682.8</ele>
        <time>1970-01-01T12:32:48.000Z</time>
      </trkpt>
      <trkpt lat="28.51133" lon="-16.332694">
        <ele>684.0</ele>
        <time>1970-01-01T12:32:52.000Z</time>
      </trkpt>
      <trkpt lat="28.511303" lon="-16.33268">
        <ele>685.2</ele>
        <time>1970-01-01T12:32:56.000Z</time>
      </trkpt>
      <trkpt lat="28.511291" lon="-16.332675">
        <ele>685.6</ele>
        <time>1970-01-01T12:32:58.000Z</time>
      </trkpt>
      <trkpt lat="28.511275" lon="-16.332665">
        <ele>686.2</ele>
        <time>1970-01-01T12:33:00.000Z</time>
      </trkpt>
      <trkpt lat="28.511252" lon="-16.33265">
        <ele>687.2</ele>
        <time>1970-01-01T12:33:03.000Z</time>
      </trkpt>
      <trkpt lat="28.511207" lon="-16.332626">
        <ele>688.2</ele>
        <time>1970-01-01T12:33:08.000Z</time>
      </trkpt>
      <trkpt lat="28.511173" lon="-16.332597">
        <ele>689.2</ele>
        <time>1970-01-01T12:33:12.000Z</time>
      </trkpt>
      <trkpt lat="28.511136" lon="-16.332569">
        <ele>690.4</ele>
        <time>1970-01-01T12:33:16.000Z</time>
      </trkpt>
      <trkpt lat="28.511084" lon="-16.332537">
        <ele>691.4</ele>
        <time>1970-01-01T12:33:22.000Z</time>
      </trkpt>
      <trkpt lat="28.511075" lon="-16.332534">
        <ele>691.6</ele>
        <time>1970-01-01T12:33:23.000Z</time>
      </trkpt>
      <trkpt lat="28.511042" lon="-16.33252">
        <ele>692.4</ele>
        <time>1970-01-01T12:33:27.000Z</time>
      </trkpt>
      <trkpt lat="28.511036" lon="-16.332517">
        <ele>692.8</ele>
        <time>1970-01-01T12:33:28.000Z</time>
      </trkpt>
      <trkpt lat="28.511" lon="-16.332497">
        <ele>694.0</ele>
        <time>1970-01-01T12:33:33.000Z</time>
      </trkpt>
      <trkpt lat="28.51096" lon="-16.332492">
        <ele>695.0</ele>
        <time>1970-01-01T12:33:38.000Z</time>
      </trkpt>
      <trkpt lat="28.510928" lon="-16.332483">
        <ele>696.2</ele>
        <time>1970-01-01T12:33:43.000Z</time>
      </trkpt>
      <trkpt lat="28.510874" lon="-16.332478">
        <ele>697.4</ele>
        <time>1970-01-01T12:33:49.000Z</time>
      </trkpt>
      <trkpt lat="28.510841" lon="-16.332475">
        <ele>698.2</ele>
        <time>1970-01-01T12:33:53.000Z</time>
      </trkpt>
      <trkpt lat="28.51083" lon="-16.332473">
        <ele>698.4</ele>
        <time>1970-01-01T12:33:54.000Z</time>
      </trkpt>
      <trkpt lat="28.510802" lon="-16.332465">
        <ele>699.6</ele>
        <time>1970-01-01T12:33:58.000Z</time>
      </trkpt>
      <trkpt lat="28.510769" lon="-16.332457">
        <ele>700.8</ele>
        <time>1970-01-01T12:34:02.000Z</time>
      </trkpt>
      <trkpt lat="28.510735" lon="-16.332445">
        <ele>701.8</ele>
        <time>1970-01-01T12:34:06.000Z</time>
      </trkpt>
      <trkpt lat="28.510727" lon="-16.332441">
        <ele>702.0</ele>
        <time>1970-01-01T12:34:07.000Z</time>
      </trkpt>
      <trkpt lat="28.510698" lon="-16.33243">
        <ele>702.6</ele>
        <time>1970-01-01T12:34:10.000Z</time>
      </trkpt>
      <trkpt lat="28.510681" lon="-16.332421">
        <ele>703.2</ele>
        <time>1970-01-01T12:34:12.000Z</time>
      </trkpt>
      <trkpt lat="28.510643" lon="-16.332399">
        <ele>704.6</ele>
        <time>1970-01-01T12:34:16.000Z</time>
      </trkpt>
      <trkpt lat="28.510592" lon="-16.332365">
        <ele>705.6</ele>
        <time>1970-01-01T12:34:21.000Z</time>
      </trkpt>
      <trkpt lat="28.510552" lon="-16.332329">
        <ele>706.6</ele>
        <time>1970-01-01T12:34:25.000Z</time>
      </trkpt>
      <trkpt lat="28.510492" lon="-16.33229">
        <ele>707.4</ele>
        <time>1970-01-01T12:34:30.000Z</time>
      </trkpt>
      <trkpt lat="28.510457" lon="-16.332279">
        <ele>707.8</ele>
        <time>1970-01-01T12:34:32.000Z</time>
      </trkpt>
      <trkpt lat="28.510438" lon="-16.332278">
        <ele>708.0</ele>
        <time>1970-01-01T12:34:33.000Z</time>
      </trkpt>
      <trkpt lat="28.510381" lon="-16.332288">
        <ele>709.2</ele>
        <time>1970-01-01T12:34:36.000Z</time>
      </trkpt>
      <trkpt lat="28.510307" lon="-16.332313">
        <ele>710.2</ele>
        <time>1970-01-01T12:34:40.000Z</time>
      </trkpt>
      <trkpt lat="28.510266" lon="-16.332376">
        <ele>711.2</ele>
        <time>1970-01-01T12:34:45.000Z</time>
      </trkpt>
      <trkpt lat="28.510263" lon="-16.332402">
        <ele>711.6</ele>
        <time>1970-01-01T12:34:47.000Z</time>
      </trkpt>
      <trkpt lat="28.510255" lon="-16.332439">
        <ele>712.8</ele>
        <time>1970-01-01T12:34:50.000Z</time>
      </trkpt>
      <trkpt lat="28.510257" lon="-16.332492">
        <ele>713.8</ele>
        <time>1970-01-01T12:34:54.000Z</time>
      </trkpt>
      <trkpt lat="28.510289" lon="-16.332575">
        <ele>714.8</ele>
        <time>1970-01-01T12:35:01.000Z</time>
      </trkpt>
      <trkpt lat="28.510344" lon="-16.332607">
        <ele>715.8</ele>
        <time>1970-01-01T12:35:05.000Z</time>
      </trkpt>
      <trkpt lat="28.510422" lon="-16.332668">
        <ele>717.0</ele>
        <time>1970-01-01T12:35:10.000Z</time>
      </trkpt>
      <trkpt lat="28.510478" lon="-16.332764">
        <ele>718.2</ele>
        <time>1970-01-01T12:35:15.000Z</time>
      </trkpt>
      <trkpt lat="28.510493" lon="-16.332781">
        <ele>718.6</ele>
        <time>1970-01-01T12:35:16.000Z</time>
      </trkpt>
      <trkpt lat="28.510526" lon="-16.332813">
        <ele>718.8</ele>
        <time>1970-01-01T12:35:18.000Z</time>
      </trkpt>
      <trkpt lat="28.510562" lon="-16.332848">
        <ele>719.2</ele>
        <time>1970-01-01T12:35:20.000Z</time>
      </trkpt>
      <trkpt lat="28.510605" lon="-16.332876">
        <ele>719.6</ele>
        <time>1970-01-01T12:35:22.000Z</time>
      </trkpt>
      <trkpt lat="28.510648" lon="-16.332904">
        <ele>719.8</ele>
        <time>1970-01-01T12:35:24.000Z</time>
      </trkpt>
      <trkpt lat="28.510744" lon="-16.332989">
        <ele>720.2</ele>
        <time>1970-01-01T12:35:29.000Z</time>
      </trkpt>
      <trkpt lat="28.510832" lon="-16.333186">
        <ele>720.8</ele>
        <time>1970-01-01T12:35:37.000Z</time>
      </trkpt>
      <trkpt lat="28.510854" lon="-16.333288">
        <ele>721.2</ele>
        <time>1970-01-01T12:35:41.000Z</time>
      </trkpt>
      <trkpt lat="28.510859" lon="-16.333311">
        <ele>721.4</ele>
        <time>1970-01-01T12:35:42.000Z</time>
      </trkpt>
      <trkpt lat="28.510885" lon="-16.333433">
        <ele>722.2</ele>
        <time>1970-01-01T12:35:48.000Z</time>
      </trkpt>
      <trkpt lat="28.510892" lon="-16.333474">
        <ele>722.4</ele>
        <time>1970-01-01T12:35:50.000Z</time>
      </trkpt>
      <trkpt lat="28.510886" lon="-16.333512">
        <ele>722.6</ele>
        <time>1970-01-01T12:35:52.000Z</time>
      </trkpt>
      <trkpt lat="28.510843" lon="-16.333624">
        <ele>723.4</ele>
        <time>1970-01-01T12:35:57.000Z</time>
      </trkpt>
      <trkpt lat="28.510816" lon="-16.333662">
        <ele>723.6</ele>
        <time>1970-01-01T12:35:59.000Z</time>
      </trkpt>
      <trkpt lat="28.510789" lon="-16.333699">
        <ele>724.0</ele>
        <time>1970-01-01T12:36:01.000Z</time>
      </trkpt>
      <trkpt lat="28.510775" lon="-16.333719">
        <ele>724.0</ele>
        <time>1970-01-01T12:36:02.000Z</time>
      </trkpt>
      <trkpt lat="28.510763" lon="-16.333739">
        <ele>724.4</ele>
        <time>1970-01-01T12:36:03.000Z</time>
      </trkpt>
      <trkpt lat="28.510753" lon="-16.33376">
        <ele>724.4</ele>
        <time>1970-01-01T12:36:04.000Z</time>
      </trkpt>
      <trkpt lat="28.510701" lon="-16.33387">
        <ele>725.6</ele>
        <time>1970-01-01T12:36:09.000Z</time>
      </trkpt>
      <trkpt lat="28.51067" lon="-16.333933">
        <ele>725.8</ele>
        <time>1970-01-01T12:36:12.000Z</time>
      </trkpt>
      <trkpt lat="28.510657" lon="-16.333953">
        <ele>726.0</ele>
        <time>1970-01-01T12:36:13.000Z</time>
      </trkpt>
      <trkpt lat="28.51062" lon="-16.334013">
        <ele>726.8</ele>
        <time>1970-01-01T12:36:16.000Z</time>
      </trkpt>
      <trkpt lat="28.510606" lon="-16.334033">
        <ele>727.0</ele>
        <time>1970-01-01T12:36:17.000Z</time>
      </trkpt>
      <trkpt lat="28.510535" lon="-16.33421">
        <ele>728.0</ele>
        <time>1970-01-01T12:36:25.000Z</time>
      </trkpt>
      <trkpt lat="28.510484" lon="-16.334281">
        <ele>728.6</ele>
        <time>1970-01-01T12:36:29.000Z</time>
      </trkpt>
      <trkpt lat="28.510436" lon="-16.334342">
        <ele>729.0</ele>
        <time>1970-01-01T12:36:33.000Z</time>
      </trkpt>
      <trkpt lat="28.510379" lon="-16.334427">
        <ele>730.2</ele>
        <time>1970-01-01T12:36:39.000Z</time>
      </trkpt>
      <trkpt lat="28.510341" lon="-16.33449">
        <ele>731.2</ele>
        <time>1970-01-01T12:36:44.000Z</time>
      </trkpt>
      <trkpt lat="28.510323" lon="-16.33454">
        <ele>732.2</ele>
        <time>1970-01-01T12:36:48.000Z</time>
      </trkpt>
      <trkpt lat="28.510289" lon="-16.334586">
        <ele>733.2</ele>
        <time>1970-01-01T12:36:52.000Z</time>
      </trkpt>
      <trkpt lat="28.510281" lon="-16.334599">
        <ele>733.4</ele>
        <time>1970-01-01T12:36:53.000Z</time>
      </trkpt>
      <trkpt lat="28.51026" lon="-16.334636">
        <ele>734.0</ele>
        <time>1970-01-01T12:36:56.000Z</time>
      </trkpt>
      <trkpt lat="28.510229" lon="-16.334686">
        <ele>734.6</ele>
        <time>1970-01-01T12:37:00.000Z</time>
      </trkpt>
      <trkpt lat="28.510212" lon="-16.334782">
        <ele>735.6</ele>
        <time>1970-01-01T12:37:06.000Z</time>
      </trkpt>
      <trkpt lat="28.510185" lon="-16.334856">
        <ele>736.8</ele>
        <time>1970-01-01T12:37:11.000Z</time>
      </trkpt>
      <trkpt lat="28.510161" lon="-16.334912">
        <ele>737.8</ele>
        <time>1970-01-01T12:37:15.000Z</time>
      </trkpt>
      <trkpt lat="28.510108" lon="-16.335075">
        <ele>738.4</ele>
        <time>1970-01-01T12:37:24.000Z</time>
      </trkpt>
      <trkpt lat="28.510077" lon="-16.335148">
        <ele>739.0</ele>
        <time>1970-01-01T12:37:28.000Z</time>
      </trkpt>
      <trkpt lat="28.51003" lon="-16.335226">
        <ele>740.0</ele>
        <time>1970-01-01T12:37:33.000Z</time>
      </trkpt>
      <trkpt lat="28.510009" lon="-16.335276">
        <ele>741.2</ele>
        <time>1970-01-01T12:37:36.000Z</time>
      </trkpt>
      <trkpt lat="28.50998" lon="-16.335341">
        <ele>742.2</ele>
        <time>1970-01-01T12:37:40.000Z</time>
      </trkpt>
      <trkpt lat="28.509949" lon="-16.335401">
        <ele>743.4</ele>
        <time>1970-01-01T12:37:44.000Z</time>
      </trkpt>
      <trkpt lat="28.509932" lon="-16.335471">
        <ele>744.4</ele>
        <time>1970-01-01T12:37:49.000Z</time>
      </trkpt>
      <trkpt lat="28.509911" lon="-16.3355">
        <ele>745.0</ele>
        <time>1970-01-01T12:37:52.000Z</time>
      </trkpt>
      <trkpt lat="28.509893" lon="-16.335518">
        <ele>745.6</ele>
        <time>1970-01-01T12:37:54.000Z</time>
      </trkpt>
      <trkpt lat="28.509853" lon="-16.335573">
        <ele>746.6</ele>
        <time>1970-01-01T12:37:59.000Z</time>
      </trkpt>
      <trkpt lat="28.509848" lon="-16.335584">
        <ele>746.6</ele>
        <time>1970-01-01T12:38:00.000Z</time>
      </trkpt>
      <trkpt lat="28.509802" lon="-16.33564">
        <ele>747.6</ele>
        <time>1970-01-01T12:38:05.000Z</time>
      </trkpt>
      <trkpt lat="28.509759" lon="-16.335687">
        <ele>748.6</ele>
        <time>1970-01-01T12:38:09.000Z</time>
      </trkpt>
      <trkpt lat="28.509749" lon="-16.335697">
        <ele>748.8</ele>
        <time>1970-01-01T12:38:10.000Z</time>
      </trkpt>
      <trkpt lat="28.509713" lon="-16.335744">
        <ele>750.2</ele>
        <time>1970-01-01T12:38:14.000Z</time>
      </trkpt>
      <trkpt lat="28.5097" lon="-16.335781">
        <ele>751.2</ele>
        <time>1970-01-01T12:38:17.000Z</time>
      </trkpt>
      <trkpt lat="28.509684" lon="-16.335811">
        <ele>752.2</ele>
        <time>1970-01-01T12:38:20.000Z</time>
      </trkpt>
      <trkpt lat="28.509677" lon="-16.335817">
        <ele>752.6</ele>
        <time>1970-01-01T12:38:21.000Z</time>
      </trkpt>
      <trkpt lat="28.509662" lon="-16.335832">
        <ele>752.6</ele>
        <time>1970-01-01T12:38:23.000Z</time>
      </trkpt>
      <trkpt lat="28.509653" lon="-16.335862">
        <ele>753.6</ele>
        <time>1970-01-01T12:38:26.000Z</time>
      </trkpt>
      <trkpt lat="28.509613" lon="-16.335905">
        <ele>754.8</ele>
        <time>1970-01-01T12:38:31.000Z</time>
      </trkpt>
      <trkpt lat="28.509578" lon="-16.335935">
        <ele>755.8</ele>
        <time>1970-01-01T12:38:35.000Z</time>
      </trkpt>
      <trkpt lat="28.509559" lon="-16.335951">
        <ele>756.2</ele>
        <time>1970-01-01T12:38:37.000Z</time>
      </trkpt>
      <trkpt lat="28.509521" lon="-16.335982">
        <ele>756.8</ele>
        <time>1970-01-01T12:38:41.000Z</time>
      </trkpt>
      <trkpt lat="28.50948" lon="-16.336013">
        <ele>757.8</ele>
        <time>1970-01-01T12:38:44.000Z</time>
      </trkpt>
      <trkpt lat="28.509467" lon="-16.336025">
        <ele>758.0</ele>
        <time>1970-01-01T12:38:45.000Z</time>
      </trkpt>
      <trkpt lat="28.509405" lon="-16.336078">
        <ele>759.0</ele>
        <time>1970-01-01T12:38:50.000Z</time>
      </trkpt>
      <trkpt lat="28.509371" lon="-16.336117">
        <ele>760.4</ele>
        <time>1970-01-01T12:38:54.000Z</time>
      </trkpt>
      <trkpt lat="28.509343" lon="-16.33614">
        <ele>761.2</ele>
        <time>1970-01-01T12:38:57.000Z</time>
      </trkpt>
      <trkpt lat="28.509336" lon="-16.33615">
        <ele>761.4</ele>
        <time>1970-01-01T12:38:58.000Z</time>
      </trkpt>
      <trkpt lat="28.509324" lon="-16.33617">
        <ele>761.8</ele>
        <time>1970-01-01T12:39:00.000Z</time>
      </trkpt>
      <trkpt lat="28.509305" lon="-16.336191">
        <ele>762.4</ele>
        <time>1970-01-01T12:39:03.000Z</time>
      </trkpt>
      <trkpt lat="28.509278" lon="-16.336218">
        <ele>763.6</ele>
        <time>1970-01-01T12:39:08.000Z</time>
      </trkpt>
      <trkpt lat="28.509239" lon="-16.336239">
        <ele>764.6</ele>
        <time>1970-01-01T12:39:12.000Z</time>
      </trkpt>
      <trkpt lat="28.509171" lon="-16.336267">
        <ele>765.8</ele>
        <time>1970-01-01T12:39:18.000Z</time>
      </trkpt>
      <trkpt lat="28.509161" lon="-16.336269">
        <ele>765.8</ele>
        <time>1970-01-01T12:39:19.000Z</time>
      </trkpt>
      <trkpt lat="28.509121" lon="-16.336274">
        <ele>766.0</ele>
        <time>1970-01-01T12:39:22.000Z</time>
      </trkpt>
      <trkpt lat="28.50909" lon="-16.33628">
        <ele>766.2</ele>
        <time>1970-01-01T12:39:24.000Z</time>
      </trkpt>
      <trkpt lat="28.509056" lon="-16.336294">
        <ele>766.8</ele>
        <time>1970-01-01T12:39:27.000Z</time>
      </trkpt>
      <trkpt lat="28.509022" lon="-16.33636">
        <ele>767.8</ele>
        <time>1970-01-01T12:39:33.000Z</time>
      </trkpt>
      <trkpt lat="28.509074" lon="-16.336435">
        <ele>768.8</ele>
        <time>1970-01-01T12:39:40.000Z</time>
      </trkpt>
      <trkpt lat="28.509118" lon="-16.336474">
        <ele>769.8</ele>
        <time>1970-01-01T12:39:45.000Z</time>
      </trkpt>
      <trkpt lat="28.509151" lon="-16.336492">
        <ele>771.0</ele>
        <time>1970-01-01T12:39:48.000Z</time>
      </trkpt>
      <trkpt lat="28.509232" lon="-16.336538">
        <ele>772.0</ele>
        <time>1970-01-01T12:39:54.000Z</time>
      </trkpt>
      <trkpt lat="28.509313" lon="-16.336605">
        <ele>773.2</ele>
        <time>1970-01-01T12:39:59.000Z</time>
      </trkpt>
      <trkpt lat="28.509348" lon="-16.336648">
        <ele>774.0</ele>
        <time>1970-01-01T12:40:03.000Z</time>
      </trkpt>
      <trkpt lat="28.509354" lon="-16.336656">
        <ele>774.6</ele>
        <time>1970-01-01T12:40:04.000Z</time>
      </trkpt>
      <trkpt lat="28.50937" lon="-16.33668">
        <ele>775.6</ele>
        <time>1970-01-01T12:40:07.000Z</time>
      </trkpt>
      <trkpt lat="28.509375" lon="-16.336688">
        <ele>776.0</ele>
        <time>1970-01-01T12:40:08.000Z</time>
      </trkpt>
      <trkpt lat="28.50938" lon="-16.336697">
        <ele>776.2</ele>
        <time>1970-01-01T12:40:09.000Z</time>
      </trkpt>
      <trkpt lat="28.509381" lon="-16.336708">
        <ele>776.4</ele>
        <time>1970-01-01T12:40:10.000Z</time>
      </trkpt>
      <trkpt lat="28.509387" lon="-16.336739">
        <ele>777.2</ele>
        <time>1970-01-01T12:40:13.000Z</time>
      </trkpt>
      <trkpt lat="28.509392" lon="-16.336789">
        <ele>778.2</ele>
        <time>1970-01-01T12:40:17.000Z</time>
      </trkpt>
      <trkpt lat="28.509382" lon="-16.336833">
        <ele>779.4</ele>
        <time>1970-01-01T12:40:20.000Z</time>
      </trkpt>
      <trkpt lat="28.509374" lon="-16.336871">
        <ele>779.8</ele>
        <time>1970-01-01T12:40:23.000Z</time>
      </trkpt>
      <trkpt lat="28.509355" lon="-16.336907">
        <ele>780.4</ele>
        <time>1970-01-01T12:40:26.000Z</time>
      </trkpt>
      <trkpt lat="28.509276" lon="-16.33698">
        <ele>781.4</ele>
        <time>1970-01-01T12:40:32.000Z</time>
      </trkpt>
      <trkpt lat="28.509211" lon="-16.337025">
        <ele>782.6</ele>
        <time>1970-01-01T12:40:36.000Z</time>
      </trkpt>
      <trkpt lat="28.509139" lon="-16.33709">
        <ele>783.8</ele>
        <time>1970-01-01T12:40:41.000Z</time>
      </trkpt>
      <trkpt lat="28.509049" lon="-16.337149">
        <ele>784.8</ele>
        <time>1970-01-01T12:40:45.000Z</time>
      </trkpt>
      <trkpt lat="28.508945" lon="-16.337262">
        <ele>785.6</ele>
        <time>1970-01-01T12:40:50.000Z</time>
      </trkpt>
      <trkpt lat="28.508924" lon="-16.337289">
        <ele>785.6</ele>
        <time>1970-01-01T12:40:51.000Z</time>
      </trkpt>
      <trkpt lat="28.508904" lon="-16.337313">
        <ele>785.6</ele>
        <time>1970-01-01T12:40:52.000Z</time>
      </trkpt>
      <trkpt lat="28.508861" lon="-16.337338">
        <ele>785.8</ele>
        <time>1970-01-01T12:40:54.000Z</time>
      </trkpt>
      <trkpt lat="28.508675" lon="-16.337322">
        <ele>785.2</ele>
        <time>1970-01-01T12:41:02.000Z</time>
      </trkpt>
      <trkpt lat="28.508578" lon="-16.337328">
        <ele>783.8</ele>
        <time>1970-01-01T12:41:07.000Z</time>
      </trkpt>
      <trkpt lat="28.508545" lon="-16.337336">
        <ele>782.2</ele>
        <time>1970-01-01T12:41:09.000Z</time>
      </trkpt>
      <trkpt lat="28.508512" lon="-16.337341">
        <ele>781.0</ele>
        <time>1970-01-01T12:41:11.000Z</time>
      </trkpt>
      <trkpt lat="28.508475" lon="-16.337357">
        <ele>779.4</ele>
        <time>1970-01-01T12:41:13.000Z</time>
      </trkpt>
      <trkpt lat="28.50844" lon="-16.337382">
        <ele>778.0</ele>
        <time>1970-01-01T12:41:15.000Z</time>
      </trkpt>
      <trkpt lat="28.508406" lon="-16.337401">
        <ele>776.6</ele>
        <time>1970-01-01T12:41:17.000Z</time>
      </trkpt>
      <trkpt lat="28.508367" lon="-16.337432">
        <ele>775.0</ele>
        <time>1970-01-01T12:41:19.000Z</time>
      </trkpt>
      <trkpt lat="28.50834" lon="-16.337487">
        <ele>773.2</ele>
        <time>1970-01-01T12:41:21.000Z</time>
      </trkpt>
      <trkpt lat="28.508308" lon="-16.337582">
        <ele>771.8</ele>
        <time>1970-01-01T12:41:24.000Z</time>
      </trkpt>
      <trkpt lat="28.508285" lon="-16.337656">
        <ele>770.2</ele>
        <time>1970-01-01T12:41:26.000Z</time>
      </trkpt>
      <trkpt lat="28.508259" lon="-16.337724">
        <ele>768.8</ele>
        <time>1970-01-01T12:41:28.000Z</time>
      </trkpt>
      <trkpt lat="28.508238" lon="-16.33779">
        <ele>767.8</ele>
        <time>1970-01-01T12:41:30.000Z</time>
      </trkpt>
      <trkpt lat="28.508219" lon="-16.337882">
        <ele>766.6</ele>
        <time>1970-01-01T12:41:33.000Z</time>
      </trkpt>
      <trkpt lat="28.508141" lon="-16.338042">
        <ele>765.4</ele>
        <time>1970-01-01T12:41:39.000Z</time>
      </trkpt>
      <trkpt lat="28.508076" lon="-16.3382">
        <ele>764.4</ele>
        <time>1970-01-01T12:41:44.000Z</time>
      </trkpt>
      <trkpt lat="28.508061" lon="-16.338227">
        <ele>764.2</ele>
        <time>1970-01-01T12:41:45.000Z</time>
      </trkpt>
      <trkpt lat="28.508027" lon="-16.338284">
        <ele>763.4</ele>
        <time>1970-01-01T12:41:47.000Z</time>
      </trkpt>
      <trkpt lat="28.50802" lon="-16.338317">
        <ele>762.8</ele>
        <time>1970-01-01T12:41:48.000Z</time>
      </trkpt>
      <trkpt lat="28.508" lon="-16.338368">
        <ele>762.2</ele>
        <time>1970-01-01T12:41:50.000Z</time>
      </trkpt>
      <trkpt lat="28.507982" lon="-16.338387">
        <ele>761.8</ele>
        <time>1970-01-01T12:41:51.000Z</time>
      </trkpt>
      <trkpt lat="28.507967" lon="-16.33841">
        <ele>761.6</ele>
        <time>1970-01-01T12:41:52.000Z</time>
      </trkpt>
      <trkpt lat="28.507943" lon="-16.338464">
        <ele>760.8</ele>
        <time>1970-01-01T12:41:54.000Z</time>
      </trkpt>
      <trkpt lat="28.507911" lon="-16.338569">
        <ele>759.8</ele>
        <time>1970-01-01T12:41:57.000Z</time>
      </trkpt>
      <trkpt lat="28.507894" lon="-16.338633">
        <ele>758.4</ele>
        <time>1970-01-01T12:41:59.000Z</time>
      </trkpt>
      <trkpt lat="28.507863" lon="-16.338681">
        <ele>756.0</ele>
        <time>1970-01-01T12:42:01.000Z</time>
      </trkpt>
      <trkpt lat="28.507838" lon="-16.338735">
        <ele>754.6</ele>
        <time>1970-01-01T12:42:03.000Z</time>
      </trkpt>
      <trkpt lat="28.507799" lon="-16.338778">
        <ele>753.4</ele>
        <time>1970-01-01T12:42:05.000Z</time>
      </trkpt>
      <trkpt lat="28.507751" lon="-16.338854">
        <ele>752.0</ele>
        <time>1970-01-01T12:42:08.000Z</time>
      </trkpt>
      <trkpt lat="28.507698" lon="-16.338923">
        <ele>750.4</ele>
        <time>1970-01-01T12:42:11.000Z</time>
      </trkpt>
      <trkpt lat="28.50766" lon="-16.33896">
        <ele>749.0</ele>
        <time>1970-01-01T12:42:13.000Z</time>
      </trkpt>
      <trkpt lat="28.507617" lon="-16.338995">
        <ele>747.2</ele>
        <time>1970-01-01T12:42:15.000Z</time>
      </trkpt>
      <trkpt lat="28.507595" lon="-16.339009">
        <ele>746.2</ele>
        <time>1970-01-01T12:42:16.000Z</time>
      </trkpt>
      <trkpt lat="28.507553" lon="-16.339039">
        <ele>744.8</ele>
        <time>1970-01-01T12:42:18.000Z</time>
      </trkpt>
      <trkpt lat="28.507519" lon="-16.339075">
        <ele>743.6</ele>
        <time>1970-01-01T12:42:20.000Z</time>
      </trkpt>
      <trkpt lat="28.507486" lon="-16.339114">
        <ele>743.0</ele>
        <time>1970-01-01T12:42:22.000Z</time>
      </trkpt>
      <trkpt lat="28.507445" lon="-16.339152">
        <ele>741.8</ele>
        <time>1970-01-01T12:42:24.000Z</time>
      </trkpt>
      <trkpt lat="28.507424" lon="-16.339172">
        <ele>740.6</ele>
        <time>1970-01-01T12:42:25.000Z</time>
      </trkpt>
      <trkpt lat="28.507382" lon="-16.339209">
        <ele>739.4</ele>
        <time>1970-01-01T12:42:27.000Z</time>
      </trkpt>
      <trkpt lat="28.507337" lon="-16.339254">
        <ele>737.4</ele>
        <time>1970-01-01T12:42:29.000Z</time>
      </trkpt>
      <trkpt lat="28.507287" lon="-16.339306">
        <ele>736.2</ele>
        <time>1970-01-01T12:42:31.000Z</time>
      </trkpt>
      <trkpt lat="28.50726" lon="-16.339331">
        <ele>735.0</ele>
        <time>1970-01-01T12:42:32.000Z</time>
      </trkpt>
      <trkpt lat="28.507215" lon="-16.33937">
        <ele>733.8</ele>
        <time>1970-01-01T12:42:34.000Z</time>
      </trkpt>
      <trkpt lat="28.507176" lon="-16.339397">
        <ele>732.4</ele>
        <time>1970-01-01T12:42:36.000Z</time>
      </trkpt>
      <trkpt lat="28.507135" lon="-16.339425">
        <ele>731.0</ele>
        <time>1970-01-01T12:42:38.000Z</time>
      </trkpt>
      <trkpt lat="28.507071" lon="-16.339468">
        <ele>730.0</ele>
        <time>1970-01-01T12:42:41.000Z</time>
      </trkpt>
      <trkpt lat="28.507004" lon="-16.339514">
        <ele>728.6</ele>
        <time>1970-01-01T12:42:44.000Z</time>
      </trkpt>
      <trkpt lat="28.506932" lon="-16.339561">
        <ele>727.4</ele>
        <time>1970-01-01T12:42:47.000Z</time>
      </trkpt>
      <trkpt lat="28.506858" lon="-16.339587">
        <ele>725.6</ele>
        <time>1970-01-01T12:42:50.000Z</time>
      </trkpt>
      <trkpt lat="28.506788" lon="-16.339615">
        <ele>724.4</ele>
        <time>1970-01-01T12:42:53.000Z</time>
      </trkpt>
      <trkpt lat="28.506658" lon="-16.339678">
        <ele>723.4</ele>
        <time>1970-01-01T12:42:58.000Z</time>
      </trkpt>
      <trkpt lat="28.50658" lon="-16.339727">
        <ele>722.0</ele>
        <time>1970-01-01T12:43:01.000Z</time>
      </trkpt>
      <trkpt lat="28.506528" lon="-16.339755">
        <ele>720.8</ele>
        <time>1970-01-01T12:43:03.000Z</time>
      </trkpt>
      <trkpt lat="28.506471" lon="-16.339784">
        <ele>719.6</ele>
        <time>1970-01-01T12:43:05.000Z</time>
      </trkpt>
      <trkpt lat="28.506441" lon="-16.339798">
        <ele>718.4</ele>
        <time>1970-01-01T12:43:06.000Z</time>
      </trkpt>
      <trkpt lat="28.506387" lon="-16.339825">
        <ele>717.0</ele>
        <time>1970-01-01T12:43:08.000Z</time>
      </trkpt>
      <trkpt lat="28.506333" lon="-16.339848">
        <ele>715.8</ele>
        <time>1970-01-01T12:43:10.000Z</time>
      </trkpt>
      <trkpt lat="28.506276" lon="-16.339869">
        <ele>714.0</ele>
        <time>1970-01-01T12:43:12.000Z</time>
      </trkpt>
      <trkpt lat="28.506248" lon="-16.339879">
        <ele>712.4</ele>
        <time>1970-01-01T12:43:13.000Z</time>
      </trkpt>
      <trkpt lat="28.506219" lon="-16.339891">
        <ele>712.2</ele>
        <time>1970-01-01T12:43:14.000Z</time>
      </trkpt>
      <trkpt lat="28.50619" lon="-16.339905">
        <ele>711.4</ele>
        <time>1970-01-01T12:43:15.000Z</time>
      </trkpt>
      <trkpt lat="28.5061" lon="-16.339945">
        <ele>710.2</ele>
        <time>1970-01-01T12:43:18.000Z</time>
      </trkpt>
      <trkpt lat="28.50604" lon="-16.339973">
        <ele>709.2</ele>
        <time>1970-01-01T12:43:20.000Z</time>
      </trkpt>
      <trkpt lat="28.506007" lon="-16.339989">
        <ele>708.0</ele>
        <time>1970-01-01T12:43:21.000Z</time>
      </trkpt>
      <trkpt lat="28.505944" lon="-16.340014">
        <ele>707.0</ele>
        <time>1970-01-01T12:43:23.000Z</time>
      </trkpt>
      <trkpt lat="28.505829" lon="-16.340067">
        <ele>705.8</ele>
        <time>1970-01-01T12:43:27.000Z</time>
      </trkpt>
      <trkpt lat="28.505777" lon="-16.340097">
        <ele>704.8</ele>
        <time>1970-01-01T12:43:29.000Z</time>
      </trkpt>
      <trkpt lat="28.50569" lon="-16.34013">
        <ele>703.4</ele>
        <time>1970-01-01T12:43:32.000Z</time>
      </trkpt>
      <trkpt lat="28.505565" lon="-16.340147">
        <ele>702.4</ele>
        <time>1970-01-01T12:43:36.000Z</time>
      </trkpt>
      <trkpt lat="28.505509" lon="-16.340153">
        <ele>701.2</ele>
        <time>1970-01-01T12:43:38.000Z</time>
      </trkpt>
      <trkpt lat="28.505478" lon="-16.340155">
        <ele>700.0</ele>
        <time>1970-01-01T12:43:39.000Z</time>
      </trkpt>
      <trkpt lat="28.50543" lon="-16.340143">
        <ele>698.8</ele>
        <time>1970-01-01T12:43:41.000Z</time>
      </trkpt>
      <trkpt lat="28.505417" lon="-16.340123">
        <ele>697.8</ele>
        <time>1970-01-01T12:43:42.000Z</time>
      </trkpt>
      <trkpt lat="28.505402" lon="-16.340102">
        <ele>696.8</ele>
        <time>1970-01-01T12:43:43.000Z</time>
      </trkpt>
      <trkpt lat="28.505364" lon="-16.340061">
        <ele>695.6</ele>
        <time>1970-01-01T12:43:45.000Z</time>
      </trkpt>
      <trkpt lat="28.50532" lon="-16.339992">
        <ele>694.4</ele>
        <time>1970-01-01T12:43:48.000Z</time>
      </trkpt>
      <trkpt lat="28.505281" lon="-16.339939">
        <ele>693.0</ele>
        <time>1970-01-01T12:43:50.000Z</time>
      </trkpt>
      <trkpt lat="28.505273" lon="-16.339834">
        <ele>691.2</ele>
        <time>1970-01-01T12:43:53.000Z</time>
      </trkpt>
      <trkpt lat="28.505288" lon="-16.339759">
        <ele>690.2</ele>
        <time>1970-01-01T12:43:55.000Z</time>
      </trkpt>
      <trkpt lat="28.505291" lon="-16.339696">
        <ele>688.8</ele>
        <time>1970-01-01T12:43:57.000Z</time>
      </trkpt>
      <trkpt lat="28.505278" lon="-16.339678">
        <ele>688.2</ele>
        <time>1970-01-01T12:43:58.000Z</time>
      </trkpt>
      <trkpt lat="28.505261" lon="-16.339671">
        <ele>687.8</ele>
        <time>1970-01-01T12:43:59.000Z</time>
      </trkpt>
      <trkpt lat="28.505248" lon="-16.339675">
        <ele>687.4</ele>
        <time>1970-01-01T12:44:00.000Z</time>
      </trkpt>
      <trkpt lat="28.505207" lon="-16.339697">
        <ele>686.4</ele>
        <time>1970-01-01T12:44:02.000Z</time>
      </trkpt>
      <trkpt lat="28.505105" lon="-16.339759">
        <ele>685.4</ele>
        <time>1970-01-01T12:44:07.000Z</time>
      </trkpt>
      <trkpt lat="28.505085" lon="-16.339764">
        <ele>684.4</ele>
        <time>1970-01-01T12:44:10.000Z</time>
      </trkpt>
      <trkpt lat="28.50508" lon="-16.339754">
        <ele>684.2</ele>
        <time>1970-01-01T12:44:11.000Z</time>
      </trkpt>
      <trkpt lat="28.505068" lon="-16.33975">
        <ele>683.6</ele>
        <time>1970-01-01T12:44:12.000Z</time>
      </trkpt>
      <trkpt lat="28.505052" lon="-16.339757">
        <ele>683.0</ele>
        <time>1970-01-01T12:44:13.000Z</time>
      </trkpt>
      <trkpt lat="28.505014" lon="-16.33977">
        <ele>681.8</ele>
        <time>1970-01-01T12:44:16.000Z</time>
      </trkpt>
      <trkpt lat="28.504991" lon="-16.339773">
        <ele>681.2</ele>
        <time>1970-01-01T12:44:18.000Z</time>
      </trkpt>
      <trkpt lat="28.504979" lon="-16.339786">
        <ele>680.6</ele>
        <time>1970-01-01T12:44:20.000Z</time>
      </trkpt>
      <trkpt lat="28.504975" lon="-16.339769">
        <ele>679.8</ele>
        <time>1970-01-01T12:44:22.000Z</time>
      </trkpt>
      <trkpt lat="28.504976" lon="-16.339751">
        <ele>679.4</ele>
        <time>1970-01-01T12:44:23.000Z</time>
      </trkpt>
      <trkpt lat="28.504984" lon="-16.339713">
        <ele>678.0</ele>
        <time>1970-01-01T12:44:25.000Z</time>
      </trkpt>
      <trkpt lat="28.504977" lon="-16.33969">
        <ele>677.4</ele>
        <time>1970-01-01T12:44:26.000Z</time>
      </trkpt>
      <trkpt lat="28.504934" lon="-16.339675">
        <ele>677.0</ele>
        <time>1970-01-01T12:44:28.000Z</time>
      </trkpt>
      <trkpt lat="28.50491" lon="-16.339686">
        <ele>676.4</ele>
        <time>1970-01-01T12:44:29.000Z</time>
      </trkpt>
      <trkpt lat="28.504859" lon="-16.339709">
        <ele>675.8</ele>
        <time>1970-01-01T12:44:31.000Z</time>
      </trkpt>
      <trkpt lat="28.504763" lon="-16.339723">
        <ele>675.0</ele>
        <time>1970-01-01T12:44:36.000Z</time>
      </trkpt>
      <trkpt lat="28.504709" lon="-16.339736">
        <ele>675.0</ele>
        <time>1970-01-01T12:44:39.000Z</time>
      </trkpt>
      <trkpt lat="28.50469" lon="-16.339715">
        <ele>675.0</ele>
        <time>1970-01-01T12:44:41.000Z</time>
      </trkpt>
      <trkpt lat="28.504671" lon="-16.339659">
        <ele>675.0</ele>
        <time>1970-01-01T12:44:44.000Z</time>
      </trkpt>
      <trkpt lat="28.504643" lon="-16.339654">
        <ele>675.0</ele>
        <time>1970-01-01T12:44:46.000Z</time>
      </trkpt>
      <trkpt lat="28.504579" lon="-16.33971">
        <ele>675.0</ele>
        <time>1970-01-01T12:44:49.000Z</time>
      </trkpt>
      <trkpt lat="28.50454" lon="-16.339753">
        <ele>674.4</ele>
        <time>1970-01-01T12:44:51.000Z</time>
      </trkpt>
      <trkpt lat="28.504478" lon="-16.339782">
        <ele>673.4</ele>
        <time>1970-01-01T12:44:54.000Z</time>
      </trkpt>
      <trkpt lat="28.504442" lon="-16.339773">
        <ele>671.8</ele>
        <time>1970-01-01T12:44:56.000Z</time>
      </trkpt>
      <trkpt lat="28.504418" lon="-16.339767">
        <ele>670.2</ele>
        <time>1970-01-01T12:44:58.000Z</time>
      </trkpt>
      <trkpt lat="28.504377" lon="-16.339765">
        <ele>668.8</ele>
        <time>1970-01-01T12:45:01.000Z</time>
      </trkpt>
      <trkpt lat="28.504368" lon="-16.339777">
        <ele>667.6</ele>
        <time>1970-01-01T12:45:03.000Z</time>
      </trkpt>
      <trkpt lat="28.504368" lon="-16.33979">
        <ele>667.4</ele>
        <time>1970-01-01T12:45:04.000Z</time>
      </trkpt>
      <trkpt lat="28.504375" lon="-16.339803">
        <ele>667.2</ele>
        <time>1970-01-01T12:45:05.000Z</time>
      </trkpt>
      <trkpt lat="28.504393" lon="-16.339825">
        <ele>666.2</ele>
        <time>1970-01-01T12:45:07.000Z</time>
      </trkpt>
      <trkpt lat="28.504409" lon="-16.339843">
        <ele>664.8</ele>
        <time>1970-01-01T12:45:10.000Z</time>
      </trkpt>
      <trkpt lat="28.504407" lon="-16.339857">
        <ele>664.2</ele>
        <time>1970-01-01T12:45:11.000Z</time>
      </trkpt>
      <trkpt lat="28.504402" lon="-16.339871">
        <ele>663.4</ele>
        <time>1970-01-01T12:45:12.000Z</time>
      </trkpt>
      <trkpt lat="28.504375" lon="-16.339895">
        <ele>662.4</ele>
        <time>1970-01-01T12:45:14.000Z</time>
      </trkpt>
      <trkpt lat="28.504318" lon="-16.339907">
        <ele>661.4</ele>
        <time>1970-01-01T12:45:16.000Z</time>
      </trkpt>
      <trkpt lat="28.504232" lon="-16.339906">
        <ele>660.0</ele>
        <time>1970-01-01T12:45:19.000Z</time>
      </trkpt>
      <trkpt lat="28.504201" lon="-16.339906">
        <ele>659.6</ele>
        <time>1970-01-01T12:45:20.000Z</time>
      </trkpt>
      <trkpt lat="28.504167" lon="-16.339904">
        <ele>659.0</ele>
        <time>1970-01-01T12:45:21.000Z</time>
      </trkpt>
      <trkpt lat="28.504037" lon="-16.33988">
        <ele>657.8</ele>
        <time>1970-01-01T12:45:25.000Z</time>
      </trkpt>
      <trkpt lat="28.503872" lon="-16.339927">
        <ele>657.2</ele>
        <time>1970-01-01T12:45:30.000Z</time>
      </trkpt>
      <trkpt lat="28.503756" lon="-16.339981">
        <ele>656.8</ele>
        <time>1970-01-01T12:45:34.000Z</time>
      </trkpt>
      <trkpt lat="28.503588" lon="-16.340064">
        <ele>656.4</ele>
        <time>1970-01-01T12:45:40.000Z</time>
      </trkpt>
      <trkpt lat="28.503491" lon="-16.340156">
        <ele>656.4</ele>
        <time>1970-01-01T12:45:46.000Z</time>
      </trkpt>
      <trkpt lat="28.503467" lon="-16.34021">
        <ele>657.8</ele>
        <time>1970-01-01T12:45:57.000Z</time>
      </trkpt>
      <trkpt lat="28.503493" lon="-16.340242">
        <ele>659.2</ele>
        <time>1970-01-01T12:46:01.000Z</time>
      </trkpt>
      <trkpt lat="28.503509" lon="-16.34028">
        <ele>660.6</ele>
        <time>1970-01-01T12:46:05.000Z</time>
      </trkpt>
      <trkpt lat="28.503526" lon="-16.340314">
        <ele>661.2</ele>
        <time>1970-01-01T12:46:09.000Z</time>
      </trkpt>
      <trkpt lat="28.503531" lon="-16.340332">
        <ele>661.6</ele>
        <time>1970-01-01T12:46:11.000Z</time>
      </trkpt>
      <trkpt lat="28.503564" lon="-16.340367">
        <ele>662.6</ele>
        <time>1970-01-01T12:46:15.000Z</time>
      </trkpt>
      <trkpt lat="28.50358" lon="-16.340382">
        <ele>663.8</ele>
        <time>1970-01-01T12:46:18.000Z</time>
      </trkpt>
      <trkpt lat="28.503585" lon="-16.340387">
        <ele>664.2</ele>
        <time>1970-01-01T12:46:19.000Z</time>
      </trkpt>
      <trkpt lat="28.503614" lon="-16.340428">
        <ele>665.4</ele>
        <time>1970-01-01T12:46:24.000Z</time>
      </trkpt>
      <trkpt lat="28.503612" lon="-16.340488">
        <ele>666.6</ele>
        <time>1970-01-01T12:46:28.000Z</time>
      </trkpt>
      <trkpt lat="28.503573" lon="-16.340548">
        <ele>667.4</ele>
        <time>1970-01-01T12:46:35.000Z</time>
      </trkpt>
      <trkpt lat="28.503564" lon="-16.340558">
        <ele>667.6</ele>
        <time>1970-01-01T12:46:36.000Z</time>
      </trkpt>
      <trkpt lat="28.503524" lon="-16.340599">
        <ele>668.2</ele>
        <time>1970-01-01T12:46:40.000Z</time>
      </trkpt>
      <trkpt lat="28.503487" lon="-16.340642">
        <ele>669.0</ele>
        <time>1970-01-01T12:46:44.000Z</time>
      </trkpt>
      <trkpt lat="28.503451" lon="-16.340674">
        <ele>669.6</ele>
        <time>1970-01-01T12:46:48.000Z</time>
      </trkpt>
      <trkpt lat="28.503427" lon="-16.34067">
        <ele>670.0</ele>
        <time>1970-01-01T12:46:50.000Z</time>
      </trkpt>
      <trkpt lat="28.50342" lon="-16.340661">
        <ele>670.4</ele>
        <time>1970-01-01T12:46:51.000Z</time>
      </trkpt>
      <trkpt lat="28.503407" lon="-16.340622">
        <ele>671.2</ele>
        <time>1970-01-01T12:46:54.000Z</time>
      </trkpt>
      <trkpt lat="28.503379" lon="-16.340565">
        <ele>672.4</ele>
        <time>1970-01-01T12:46:59.000Z</time>
      </trkpt>
      <trkpt lat="28.503367" lon="-16.340497">
        <ele>673.4</ele>
        <time>1970-01-01T12:47:03.000Z</time>
      </trkpt>
      <trkpt lat="28.503356" lon="-16.340455">
        <ele>674.0</ele>
        <time>1970-01-01T12:47:05.000Z</time>
      </trkpt>
      <trkpt lat="28.503348" lon="-16.340437">
        <ele>674.2</ele>
        <time>1970-01-01T12:47:06.000Z</time>
      </trkpt>
      <trkpt lat="28.503338" lon="-16.340421">
        <ele>674.4</ele>
        <time>1970-01-01T12:47:07.000Z</time>
      </trkpt>
      <trkpt lat="28.503327" lon="-16.340405">
        <ele>674.6</ele>
        <time>1970-01-01T12:47:08.000Z</time>
      </trkpt>
      <trkpt lat="28.503307" lon="-16.34037">
        <ele>675.6</ele>
        <time>1970-01-01T12:47:10.000Z</time>
      </trkpt>
      <trkpt lat="28.503293" lon="-16.340359">
        <ele>676.0</ele>
        <time>1970-01-01T12:47:11.000Z</time>
      </trkpt>
      <trkpt lat="28.503278" lon="-16.34035">
        <ele>676.4</ele>
        <time>1970-01-01T12:47:12.000Z</time>
      </trkpt>
      <trkpt lat="28.503264" lon="-16.34034">
        <ele>676.6</ele>
        <time>1970-01-01T12:47:13.000Z</time>
      </trkpt>
      <trkpt lat="28.50325" lon="-16.340332">
        <ele>677.2</ele>
        <time>1970-01-01T12:47:14.000Z</time>
      </trkpt>
      <trkpt lat="28.503237" lon="-16.340323">
        <ele>678.0</ele>
        <time>1970-01-01T12:47:15.000Z</time>
      </trkpt>
      <trkpt lat="28.503207" lon="-16.340295">
        <ele>678.4</ele>
        <time>1970-01-01T12:47:17.000Z</time>
      </trkpt>
      <trkpt lat="28.503191" lon="-16.340281">
        <ele>678.6</ele>
        <time>1970-01-01T12:47:18.000Z</time>
      </trkpt>
      <trkpt lat="28.503172" lon="-16.340268">
        <ele>679.6</ele>
        <time>1970-01-01T12:47:19.000Z</time>
      </trkpt>
      <trkpt lat="28.503122" lon="-16.34023">
        <ele>680.6</ele>
        <time>1970-01-01T12:47:22.000Z</time>
      </trkpt>
      <trkpt lat="28.503061" lon="-16.340125">
        <ele>682.0</ele>
        <time>1970-01-01T12:47:27.000Z</time>
      </trkpt>
      <trkpt lat="28.50303" lon="-16.340051">
        <ele>683.2</ele>
        <time>1970-01-01T12:47:30.000Z</time>
      </trkpt>
      <trkpt lat="28.502964" lon="-16.339846">
        <ele>684.4</ele>
        <time>1970-01-01T12:47:38.000Z</time>
      </trkpt>
      <trkpt lat="28.502999" lon="-16.339643">
        <ele>685.0</ele>
        <time>1970-01-01T12:47:47.000Z</time>
      </trkpt>
      <trkpt lat="28.503014" lon="-16.339615">
        <ele>685.4</ele>
        <time>1970-01-01T12:47:49.000Z</time>
      </trkpt>
      <trkpt lat="28.503031" lon="-16.339563">
        <ele>686.6</ele>
        <time>1970-01-01T12:47:54.000Z</time>
      </trkpt>
      <trkpt lat="28.503021" lon="-16.339548">
        <ele>687.0</ele>
        <time>1970-01-01T12:47:56.000Z</time>
      </trkpt>
      <trkpt lat="28.503012" lon="-16.339545">
        <ele>687.4</ele>
        <time>1970-01-01T12:47:57.000Z</time>
      </trkpt>
      <trkpt lat="28.503002" lon="-16.339542">
        <ele>687.6</ele>
        <time>1970-01-01T12:47:58.000Z</time>
      </trkpt>
      <trkpt lat="28.502957" lon="-16.339547">
        <ele>688.2</ele>
        <time>1970-01-01T12:48:01.000Z</time>
      </trkpt>
      <trkpt lat="28.502933" lon="-16.339562">
        <ele>688.6</ele>
        <time>1970-01-01T12:48:03.000Z</time>
      </trkpt>
      <trkpt lat="28.502858" lon="-16.339631">
        <ele>689.8</ele>
        <time>1970-01-01T12:48:08.000Z</time>
      </trkpt>
      <trkpt lat="28.502825" lon="-16.339654">
        <ele>690.2</ele>
        <time>1970-01-01T12:48:10.000Z</time>
      </trkpt>
      <trkpt lat="28.502808" lon="-16.339657">
        <ele>690.2</ele>
        <time>1970-01-01T12:48:11.000Z</time>
      </trkpt>
      <trkpt lat="28.502774" lon="-16.339638">
        <ele>690.6</ele>
        <time>1970-01-01T12:48:13.000Z</time>
      </trkpt>
      <trkpt lat="28.502763" lon="-16.339619">
        <ele>691.0</ele>
        <time>1970-01-01T12:48:14.000Z</time>
      </trkpt>
      <trkpt lat="28.502766" lon="-16.339535">
        <ele>691.8</ele>
        <time>1970-01-01T12:48:18.000Z</time>
      </trkpt>
      <trkpt lat="28.502773" lon="-16.339515">
        <ele>692.0</ele>
        <time>1970-01-01T12:48:19.000Z</time>
      </trkpt>
      <trkpt lat="28.502803" lon="-16.339451">
        <ele>693.2</ele>
        <time>1970-01-01T12:48:24.000Z</time>
      </trkpt>
      <trkpt lat="28.502847" lon="-16.339432">
        <ele>693.6</ele>
        <time>1970-01-01T12:48:28.000Z</time>
      </trkpt>
      <trkpt lat="28.502879" lon="-16.339422">
        <ele>694.2</ele>
        <time>1970-01-01T12:48:30.000Z</time>
      </trkpt>
      <trkpt lat="28.502902" lon="-16.339412">
        <ele>694.6</ele>
        <time>1970-01-01T12:48:32.000Z</time>
      </trkpt>
      <trkpt lat="28.502919" lon="-16.339388">
        <ele>695.2</ele>
        <time>1970-01-01T12:48:35.000Z</time>
      </trkpt>
      <trkpt lat="28.502912" lon="-16.339364">
        <ele>696.0</ele>
        <time>1970-01-01T12:48:38.000Z</time>
      </trkpt>
      <trkpt lat="28.502898" lon="-16.339358">
        <ele>696.4</ele>
        <time>1970-01-01T12:48:40.000Z</time>
      </trkpt>
      <trkpt lat="28.502874" lon="-16.339354">
        <ele>697.6</ele>
        <time>1970-01-01T12:48:43.000Z</time>
      </trkpt>
      <trkpt lat="28.502834" lon="-16.339352">
        <ele>698.6</ele>
        <time>1970-01-01T12:48:47.000Z</time>
      </trkpt>
      <trkpt lat="28.502819" lon="-16.339352">
        <ele>699.0</ele>
        <time>1970-01-01T12:48:49.000Z</time>
      </trkpt>
      <trkpt lat="28.502808" lon="-16.339353">
        <ele>699.2</ele>
        <time>1970-01-01T12:48:50.000Z</time>
      </trkpt>
      <trkpt lat="28.50279" lon="-16.339343">
        <ele>699.2</ele>
        <time>1970-01-01T12:48:51.000Z</time>
      </trkpt>
      <trkpt lat="28.502762" lon="-16.339351">
        <ele>700.0</ele>
        <time>1970-01-01T12:48:54.000Z</time>
      </trkpt>
      <trkpt lat="28.502744" lon="-16.339361">
        <ele>700.8</ele>
        <time>1970-01-01T12:48:56.000Z</time>
      </trkpt>
      <trkpt lat="28.502725" lon="-16.339376">
        <ele>701.2</ele>
        <time>1970-01-01T12:48:58.000Z</time>
      </trkpt>
      <trkpt lat="28.502677" lon="-16.339405">
        <ele>702.2</ele>
        <time>1970-01-01T12:49:02.000Z</time>
      </trkpt>
      <trkpt lat="28.502637" lon="-16.339433">
        <ele>703.4</ele>
        <time>1970-01-01T12:49:06.000Z</time>
      </trkpt>
      <trkpt lat="28.502604" lon="-16.339484">
        <ele>704.6</ele>
        <time>1970-01-01T12:49:11.000Z</time>
      </trkpt>
      <trkpt lat="28.502561" lon="-16.339533">
        <ele>705.6</ele>
        <time>1970-01-01T12:49:17.000Z</time>
      </trkpt>
      <trkpt lat="28.502531" lon="-16.339548">
        <ele>707.0</ele>
        <time>1970-01-01T12:49:20.000Z</time>
      </trkpt>
      <trkpt lat="28.502521" lon="-16.339547">
        <ele>707.4</ele>
        <time>1970-01-01T12:49:21.000Z</time>
      </trkpt>
      <trkpt lat="28.502505" lon="-16.339509">
        <ele>708.0</ele>
        <time>1970-01-01T12:49:24.000Z</time>
      </trkpt>
      <trkpt lat="28.502533" lon="-16.339435">
        <ele>709.2</ele>
        <time>1970-01-01T12:49:29.000Z</time>
      </trkpt>
      <trkpt lat="28.502581" lon="-16.339327">
        <ele>710.4</ele>
        <time>1970-01-01T12:49:38.000Z</time>
      </trkpt>
      <trkpt lat="28.502586" lon="-16.339301">
        <ele>711.0</ele>
        <time>1970-01-01T12:49:40.000Z</time>
      </trkpt>
      <trkpt lat="28.502593" lon="-16.339277">
        <ele>711.6</ele>
        <time>1970-01-01T12:49:42.000Z</time>
      </trkpt>
      <trkpt lat="28.502593" lon="-16.339237">
        <ele>712.2</ele>
        <time>1970-01-01T12:49:45.000Z</time>
      </trkpt>
      <trkpt lat="28.502605" lon="-16.339186">
        <ele>712.6</ele>
        <time>1970-01-01T12:49:49.000Z</time>
      </trkpt>
      <trkpt lat="28.502625" lon="-16.339141">
        <ele>713.6</ele>
        <time>1970-01-01T12:49:52.000Z</time>
      </trkpt>
      <trkpt lat="28.502624" lon="-16.339116">
        <ele>714.2</ele>
        <time>1970-01-01T12:49:54.000Z</time>
      </trkpt>
      <trkpt lat="28.502619" lon="-16.339095">
        <ele>714.8</ele>
        <time>1970-01-01T12:49:56.000Z</time>
      </trkpt>
      <trkpt lat="28.502612" lon="-16.339084">
        <ele>715.2</ele>
        <time>1970-01-01T12:49:57.000Z</time>
      </trkpt>
      <trkpt lat="28.502598" lon="-16.339069">
        <ele>715.8</ele>
        <time>1970-01-01T12:49:59.000Z</time>
      </trkpt>
      <trkpt lat="28.502573" lon="-16.339068">
        <ele>717.0</ele>
        <time>1970-01-01T12:50:02.000Z</time>
      </trkpt>
      <trkpt lat="28.502537" lon="-16.339068">
        <ele>718.0</ele>
        <time>1970-01-01T12:50:06.000Z</time>
      </trkpt>
      <trkpt lat="28.502532" lon="-16.339074">
        <ele>718.4</ele>
        <time>1970-01-01T12:50:07.000Z</time>
      </trkpt>
      <trkpt lat="28.502501" lon="-16.339099">
        <ele>719.6</ele>
        <time>1970-01-01T12:50:11.000Z</time>
      </trkpt>
      <trkpt lat="28.502491" lon="-16.339104">
        <ele>719.8</ele>
        <time>1970-01-01T12:50:12.000Z</time>
      </trkpt>
      <trkpt lat="28.502469" lon="-16.339113">
        <ele>720.2</ele>
        <time>1970-01-01T12:50:14.000Z</time>
      </trkpt>
      <trkpt lat="28.502452" lon="-16.339133">
        <ele>720.6</ele>
        <time>1970-01-01T12:50:16.000Z</time>
      </trkpt>
      <trkpt lat="28.502422" lon="-16.339202">
        <ele>721.8</ele>
        <time>1970-01-01T12:50:21.000Z</time>
      </trkpt>
      <trkpt lat="28.502389" lon="-16.33925">
        <ele>723.0</ele>
        <time>1970-01-01T12:50:26.000Z</time>
      </trkpt>
      <trkpt lat="28.502355" lon="-16.339265">
        <ele>724.0</ele>
        <time>1970-01-01T12:50:30.000Z</time>
      </trkpt>
      <trkpt lat="28.502345" lon="-16.33926">
        <ele>724.4</ele>
        <time>1970-01-01T12:50:31.000Z</time>
      </trkpt>
      <trkpt lat="28.502337" lon="-16.33925">
        <ele>724.6</ele>
        <time>1970-01-01T12:50:32.000Z</time>
      </trkpt>
      <trkpt lat="28.502338" lon="-16.339217">
        <ele>725.4</ele>
        <time>1970-01-01T12:50:34.000Z</time>
      </trkpt>
      <trkpt lat="28.502343" lon="-16.339147">
        <ele>726.4</ele>
        <time>1970-01-01T12:50:39.000Z</time>
      </trkpt>
      <trkpt lat="28.502345" lon="-16.339132">
        <ele>726.6</ele>
        <time>1970-01-01T12:50:40.000Z</time>
      </trkpt>
      <trkpt lat="28.502366" lon="-16.339075">
        <ele>727.8</ele>
        <time>1970-01-01T12:50:44.000Z</time>
      </trkpt>
      <trkpt lat="28.502378" lon="-16.338986">
        <ele>728.8</ele>
        <time>1970-01-01T12:50:49.000Z</time>
      </trkpt>
      <trkpt lat="28.502367" lon="-16.338909">
        <ele>729.8</ele>
        <time>1970-01-01T12:50:54.000Z</time>
      </trkpt>
      <trkpt lat="28.502355" lon="-16.338887">
        <ele>730.4</ele>
        <time>1970-01-01T12:50:56.000Z</time>
      </trkpt>
      <trkpt lat="28.502341" lon="-16.338868">
        <ele>731.2</ele>
        <time>1970-01-01T12:50:58.000Z</time>
      </trkpt>
      <trkpt lat="28.502323" lon="-16.338858">
        <ele>732.2</ele>
        <time>1970-01-01T12:51:00.000Z</time>
      </trkpt>
      <trkpt lat="28.502313" lon="-16.338855">
        <ele>732.4</ele>
        <time>1970-01-01T12:51:01.000Z</time>
      </trkpt>
      <trkpt lat="28.502278" lon="-16.33885">
        <ele>733.6</ele>
        <time>1970-01-01T12:51:04.000Z</time>
      </trkpt>
      <trkpt lat="28.502222" lon="-16.338893">
        <ele>734.8</ele>
        <time>1970-01-01T12:51:10.000Z</time>
      </trkpt>
      <trkpt lat="28.502194" lon="-16.338973">
        <ele>736.0</ele>
        <time>1970-01-01T12:51:16.000Z</time>
      </trkpt>
      <trkpt lat="28.502166" lon="-16.339027">
        <ele>737.0</ele>
        <time>1970-01-01T12:51:20.000Z</time>
      </trkpt>
      <trkpt lat="28.502137" lon="-16.339071">
        <ele>738.2</ele>
        <time>1970-01-01T12:51:24.000Z</time>
      </trkpt>
      <trkpt lat="28.502122" lon="-16.339095">
        <ele>738.8</ele>
        <time>1970-01-01T12:51:26.000Z</time>
      </trkpt>
      <trkpt lat="28.502095" lon="-16.339154">
        <ele>739.4</ele>
        <time>1970-01-01T12:51:30.000Z</time>
      </trkpt>
      <trkpt lat="28.502034" lon="-16.339222">
        <ele>740.4</ele>
        <time>1970-01-01T12:51:35.000Z</time>
      </trkpt>
      <trkpt lat="28.502005" lon="-16.33927">
        <ele>741.4</ele>
        <time>1970-01-01T12:51:38.000Z</time>
      </trkpt>
      <trkpt lat="28.501986" lon="-16.339302">
        <ele>742.0</ele>
        <time>1970-01-01T12:51:40.000Z</time>
      </trkpt>
      <trkpt lat="28.501968" lon="-16.339331">
        <ele>742.8</ele>
        <time>1970-01-01T12:51:43.000Z</time>
      </trkpt>
      <trkpt lat="28.501953" lon="-16.339343">
        <ele>743.6</ele>
        <time>1970-01-01T12:51:45.000Z</time>
      </trkpt>
      <trkpt lat="28.50194" lon="-16.339359">
        <ele>743.8</ele>
        <time>1970-01-01T12:51:47.000Z</time>
      </trkpt>
      <trkpt lat="28.501936" lon="-16.339369">
        <ele>744.4</ele>
        <time>1970-01-01T12:51:48.000Z</time>
      </trkpt>
      <trkpt lat="28.501915" lon="-16.339409">
        <ele>745.2</ele>
        <time>1970-01-01T12:51:51.000Z</time>
      </trkpt>
      <trkpt lat="28.501903" lon="-16.339431">
        <ele>745.4</ele>
        <time>1970-01-01T12:51:52.000Z</time>
      </trkpt>
      <trkpt lat="28.50189" lon="-16.339454">
        <ele>745.6</ele>
        <time>1970-01-01T12:51:53.000Z</time>
      </trkpt>
      <trkpt lat="28.501863" lon="-16.339497">
        <ele>746.2</ele>
        <time>1970-01-01T12:51:55.000Z</time>
      </trkpt>
      <trkpt lat="28.501852" lon="-16.339547">
        <ele>746.4</ele>
        <time>1970-01-01T12:51:57.000Z</time>
      </trkpt>
      <trkpt lat="28.501828" lon="-16.339621">
        <ele>746.6</ele>
        <time>1970-01-01T12:52:00.000Z</time>
      </trkpt>
      <trkpt lat="28.501818" lon="-16.339645">
        <ele>746.8</ele>
        <time>1970-01-01T12:52:01.000Z</time>
      </trkpt>
      <trkpt lat="28.501779" lon="-16.339718">
        <ele>746.8</ele>
        <time>1970-01-01T12:52:04.000Z</time>
      </trkpt>
      <trkpt lat="28.50175" lon="-16.339791">
        <ele>747.0</ele>
        <time>1970-01-01T12:52:07.000Z</time>
      </trkpt>
      <trkpt lat="28.501709" lon="-16.339856">
        <ele>747.2</ele>
        <time>1970-01-01T12:52:10.000Z</time>
      </trkpt>
      <trkpt lat="28.501578" lon="-16.339959">
        <ele>747.8</ele>
        <time>1970-01-01T12:52:17.000Z</time>
      </trkpt>
      <trkpt lat="28.501448" lon="-16.340048">
        <ele>748.8</ele>
        <time>1970-01-01T12:52:25.000Z</time>
      </trkpt>
      <trkpt lat="28.501392" lon="-16.340089">
        <ele>749.2</ele>
        <time>1970-01-01T12:52:29.000Z</time>
      </trkpt>
      <trkpt lat="28.501351" lon="-16.340123">
        <ele>750.0</ele>
        <time>1970-01-01T12:52:32.000Z</time>
      </trkpt>
      <trkpt lat="28.501294" lon="-16.340147">
        <ele>751.0</ele>
        <time>1970-01-01T12:52:36.000Z</time>
      </trkpt>
      <trkpt lat="28.501239" lon="-16.340156">
        <ele>752.2</ele>
        <time>1970-01-01T12:52:40.000Z</time>
      </trkpt>
      <trkpt lat="28.501203" lon="-16.340172">
        <ele>753.2</ele>
        <time>1970-01-01T12:52:43.000Z</time>
      </trkpt>
      <trkpt lat="28.501153" lon="-16.340197">
        <ele>754.4</ele>
        <time>1970-01-01T12:52:47.000Z</time>
      </trkpt>
      <trkpt lat="28.501103" lon="-16.340218">
        <ele>755.6</ele>
        <time>1970-01-01T12:52:51.000Z</time>
      </trkpt>
      <trkpt lat="28.50109" lon="-16.340224">
        <ele>755.8</ele>
        <time>1970-01-01T12:52:52.000Z</time>
      </trkpt>
      <trkpt lat="28.50104" lon="-16.34024">
        <ele>756.8</ele>
        <time>1970-01-01T12:52:55.000Z</time>
      </trkpt>
      <trkpt lat="28.500984" lon="-16.340257">
        <ele>757.6</ele>
        <time>1970-01-01T12:52:59.000Z</time>
      </trkpt>
      <trkpt lat="28.500963" lon="-16.340274">
        <ele>757.8</ele>
        <time>1970-01-01T12:53:01.000Z</time>
      </trkpt>
      <trkpt lat="28.500899" lon="-16.340305">
        <ele>759.0</ele>
        <time>1970-01-01T12:53:06.000Z</time>
      </trkpt>
      <trkpt lat="28.500821" lon="-16.340365">
        <ele>760.0</ele>
        <time>1970-01-01T12:53:10.000Z</time>
      </trkpt>
      <trkpt lat="28.500789" lon="-16.340428">
        <ele>760.2</ele>
        <time>1970-01-01T12:53:12.000Z</time>
      </trkpt>
      <trkpt lat="28.500677" lon="-16.34055">
        <ele>760.4</ele>
        <time>1970-01-01T12:53:17.000Z</time>
      </trkpt>
      <trkpt lat="28.500572" lon="-16.340691">
        <ele>760.2</ele>
        <time>1970-01-01T12:53:23.000Z</time>
      </trkpt>
      <trkpt lat="28.500374" lon="-16.340689">
        <ele>759.0</ele>
        <time>1970-01-01T12:53:30.000Z</time>
      </trkpt>
      <trkpt lat="28.500316" lon="-16.340689">
        <ele>758.0</ele>
        <time>1970-01-01T12:53:32.000Z</time>
      </trkpt>
      <trkpt lat="28.500287" lon="-16.340691">
        <ele>757.6</ele>
        <time>1970-01-01T12:53:33.000Z</time>
      </trkpt>
      <trkpt lat="28.50023" lon="-16.340702">
        <ele>756.4</ele>
        <time>1970-01-01T12:53:35.000Z</time>
      </trkpt>
      <trkpt lat="28.500146" lon="-16.340731">
        <ele>756.0</ele>
        <time>1970-01-01T12:53:38.000Z</time>
      </trkpt>
      <trkpt lat="28.499954" lon="-16.340822">
        <ele>755.8</ele>
        <time>1970-01-01T12:53:45.000Z</time>
      </trkpt>
      <trkpt lat="28.499895" lon="-16.340849">
        <ele>755.8</ele>
        <time>1970-01-01T12:53:47.000Z</time>
      </trkpt>
      <trkpt lat="28.499865" lon="-16.340861">
        <ele>755.8</ele>
        <time>1970-01-01T12:53:48.000Z</time>
      </trkpt>
      <trkpt lat="28.499745" lon="-16.34091">
        <ele>755.6</ele>
        <time>1970-01-01T12:53:52.000Z</time>
      </trkpt>
      <trkpt lat="28.499553" lon="-16.34094">
        <ele>755.8</ele>
        <time>1970-01-01T12:53:59.000Z</time>
      </trkpt>
      <trkpt lat="28.499497" lon="-16.340947">
        <ele>756.0</ele>
        <time>1970-01-01T12:54:01.000Z</time>
      </trkpt>
      <trkpt lat="28.499332" lon="-16.341014">
        <ele>756.2</ele>
        <time>1970-01-01T12:54:07.000Z</time>
      </trkpt>
      <trkpt lat="28.499179" lon="-16.341171">
        <ele>756.0</ele>
        <time>1970-01-01T12:54:13.000Z</time>
      </trkpt>
      <trkpt lat="28.499157" lon="-16.3412">
        <ele>755.4</ele>
        <time>1970-01-01T12:54:14.000Z</time>
      </trkpt>
      <trkpt lat="28.499118" lon="-16.341256">
        <ele>754.2</ele>
        <time>1970-01-01T12:54:16.000Z</time>
      </trkpt>
      <trkpt lat="28.499067" lon="-16.341349">
        <ele>753.0</ele>
        <time>1970-01-01T12:54:19.000Z</time>
      </trkpt>
      <trkpt lat="28.499035" lon="-16.341408">
        <ele>751.8</ele>
        <time>1970-01-01T12:54:21.000Z</time>
      </trkpt>
      <trkpt lat="28.498989" lon="-16.341501">
        <ele>750.6</ele>
        <time>1970-01-01T12:54:24.000Z</time>
      </trkpt>
      <trkpt lat="28.49891" lon="-16.341662">
        <ele>749.6</ele>
        <time>1970-01-01T12:54:29.000Z</time>
      </trkpt>
      <trkpt lat="28.498893" lon="-16.341692">
        <ele>749.0</ele>
        <time>1970-01-01T12:54:30.000Z</time>
      </trkpt>
      <trkpt lat="28.498857" lon="-16.341759">
        <ele>747.6</ele>
        <time>1970-01-01T12:54:32.000Z</time>
      </trkpt>
      <trkpt lat="28.498839" lon="-16.341793">
        <ele>746.6</ele>
        <time>1970-01-01T12:54:33.000Z</time>
      </trkpt>
      <trkpt lat="28.498807" lon="-16.341858">
        <ele>745.4</ele>
        <time>1970-01-01T12:54:35.000Z</time>
      </trkpt>
      <trkpt lat="28.498759" lon="-16.341959">
        <ele>744.0</ele>
        <time>1970-01-01T12:54:38.000Z</time>
      </trkpt>
      <trkpt lat="28.498704" lon="-16.34206">
        <ele>742.8</ele>
        <time>1970-01-01T12:54:41.000Z</time>
      </trkpt>
      <trkpt lat="28.498645" lon="-16.342152">
        <ele>741.8</ele>
        <time>1970-01-01T12:54:44.000Z</time>
      </trkpt>
      <trkpt lat="28.4986" lon="-16.342242">
        <ele>740.6</ele>
        <time>1970-01-01T12:54:47.000Z</time>
      </trkpt>
      <trkpt lat="28.49849" lon="-16.34241">
        <ele>739.8</ele>
        <time>1970-01-01T12:54:54.000Z</time>
      </trkpt>
      <trkpt lat="28.498467" lon="-16.342452">
        <ele>739.6</ele>
        <time>1970-01-01T12:54:56.000Z</time>
      </trkpt>
      <trkpt lat="28.498447" lon="-16.342491">
        <ele>739.8</ele>
        <time>1970-01-01T12:54:58.000Z</time>
      </trkpt>
      <trkpt lat="28.498431" lon="-16.342538">
        <ele>739.8</ele>
        <time>1970-01-01T12:55:00.000Z</time>
      </trkpt>
      <trkpt lat="28.498375" lon="-16.342654">
        <ele>740.8</ele>
        <time>1970-01-01T12:55:06.000Z</time>
      </trkpt>
      <trkpt lat="28.498339" lon="-16.342707">
        <ele>741.8</ele>
        <time>1970-01-01T12:55:09.000Z</time>
      </trkpt>
      <trkpt lat="28.498298" lon="-16.342758">
        <ele>743.0</ele>
        <time>1970-01-01T12:55:12.000Z</time>
      </trkpt>
      <trkpt lat="28.498248" lon="-16.34284">
        <ele>744.2</ele>
        <time>1970-01-01T12:55:16.000Z</time>
      </trkpt>
      <trkpt lat="28.498195" lon="-16.342926">
        <ele>745.0</ele>
        <time>1970-01-01T12:55:20.000Z</time>
      </trkpt>
      <trkpt lat="28.498181" lon="-16.342946">
        <ele>745.2</ele>
        <time>1970-01-01T12:55:21.000Z</time>
      </trkpt>
      <trkpt lat="28.498085" lon="-16.343083">
        <ele>746.2</ele>
        <time>1970-01-01T12:55:27.000Z</time>
      </trkpt>
      <trkpt lat="28.498048" lon="-16.343159">
        <ele>746.6</ele>
        <time>1970-01-01T12:55:30.000Z</time>
      </trkpt>
      <trkpt lat="28.49794" lon="-16.343349">
        <ele>746.8</ele>
        <time>1970-01-01T12:55:38.000Z</time>
      </trkpt>
      <trkpt lat="28.497857" lon="-16.343552">
        <ele>745.4</ele>
        <time>1970-01-01T12:55:46.000Z</time>
      </trkpt>
      <trkpt lat="28.497844" lon="-16.343579">
        <ele>744.8</ele>
        <time>1970-01-01T12:55:47.000Z</time>
      </trkpt>
      <trkpt lat="28.497821" lon="-16.343635">
        <ele>744.0</ele>
        <time>1970-01-01T12:55:49.000Z</time>
      </trkpt>
      <trkpt lat="28.49781" lon="-16.343667">
        <ele>743.4</ele>
        <time>1970-01-01T12:55:50.000Z</time>
      </trkpt>
      <trkpt lat="28.497745" lon="-16.343789">
        <ele>742.2</ele>
        <time>1970-01-01T12:55:54.000Z</time>
      </trkpt>
      <trkpt lat="28.497684" lon="-16.343881">
        <ele>741.0</ele>
        <time>1970-01-01T12:55:57.000Z</time>
      </trkpt>
      <trkpt lat="28.497662" lon="-16.34399">
        <ele>739.8</ele>
        <time>1970-01-01T12:56:00.000Z</time>
      </trkpt>
      <trkpt lat="28.497637" lon="-16.344103">
        <ele>738.4</ele>
        <time>1970-01-01T12:56:03.000Z</time>
      </trkpt>
      <trkpt lat="28.49759" lon="-16.344213">
        <ele>737.8</ele>
        <time>1970-01-01T12:56:06.000Z</time>
      </trkpt>
      <trkpt lat="28.497551" lon="-16.344337">
        <ele>737.4</ele>
        <time>1970-01-01T12:56:09.000Z</time>
      </trkpt>
      <trkpt lat="28.497523" lon="-16.344455">
        <ele>737.0</ele>
        <time>1970-01-01T12:56:12.000Z</time>
      </trkpt>
      <trkpt lat="28.497492" lon="-16.344523">
        <ele>736.0</ele>
        <time>1970-01-01T12:56:14.000Z</time>
      </trkpt>
      <trkpt lat="28.497457" lon="-16.344588">
        <ele>735.0</ele>
        <time>1970-01-01T12:56:16.000Z</time>
      </trkpt>
      <trkpt lat="28.497442" lon="-16.344618">
        <ele>734.6</ele>
        <time>1970-01-01T12:56:17.000Z</time>
      </trkpt>
      <trkpt lat="28.497366" lon="-16.344757">
        <ele>733.6</ele>
        <time>1970-01-01T12:56:22.000Z</time>
      </trkpt>
      <trkpt lat="28.497347" lon="-16.344782">
        <ele>733.6</ele>
        <time>1970-01-01T12:56:23.000Z</time>
      </trkpt>
      <trkpt lat="28.497173" lon="-16.344855">
        <ele>733.0</ele>
        <time>1970-01-01T12:56:30.000Z</time>
      </trkpt>
      <trkpt lat="28.497001" lon="-16.344908">
        <ele>732.4</ele>
        <time>1970-01-01T12:56:36.000Z</time>
      </trkpt>
      <trkpt lat="28.496869" lon="-16.345045">
        <ele>731.0</ele>
        <time>1970-01-01T12:56:42.000Z</time>
      </trkpt>
      <trkpt lat="28.49683" lon="-16.345135">
        <ele>729.8</ele>
        <time>1970-01-01T12:56:45.000Z</time>
      </trkpt>
      <trkpt lat="28.496825" lon="-16.345202">
        <ele>728.6</ele>
        <time>1970-01-01T12:56:47.000Z</time>
      </trkpt>
      <trkpt lat="28.496828" lon="-16.345273">
        <ele>727.4</ele>
        <time>1970-01-01T12:56:49.000Z</time>
      </trkpt>
      <trkpt lat="28.496845" lon="-16.345385">
        <ele>726.4</ele>
        <time>1970-01-01T12:56:52.000Z</time>
      </trkpt>
      <trkpt lat="28.49682" lon="-16.345512">
        <ele>724.6</ele>
        <time>1970-01-01T12:56:56.000Z</time>
      </trkpt>
      <trkpt lat="28.496744" lon="-16.345563">
        <ele>723.4</ele>
        <time>1970-01-01T12:56:59.000Z</time>
      </trkpt>
      <trkpt lat="28.49667" lon="-16.345541">
        <ele>722.4</ele>
        <time>1970-01-01T12:57:02.000Z</time>
      </trkpt>
      <trkpt lat="28.496656" lon="-16.345516">
        <ele>722.0</ele>
        <time>1970-01-01T12:57:03.000Z</time>
      </trkpt>
      <trkpt lat="28.496651" lon="-16.345454">
        <ele>721.0</ele>
        <time>1970-01-01T12:57:05.000Z</time>
      </trkpt>
      <trkpt lat="28.496665" lon="-16.345326">
        <ele>719.8</ele>
        <time>1970-01-01T12:57:09.000Z</time>
      </trkpt>
      <trkpt lat="28.496649" lon="-16.345224">
        <ele>719.0</ele>
        <time>1970-01-01T12:57:12.000Z</time>
      </trkpt>
      <trkpt lat="28.496641" lon="-16.345189">
        <ele>718.6</ele>
        <time>1970-01-01T12:57:13.000Z</time>
      </trkpt>
      <trkpt lat="28.496636" lon="-16.345152">
        <ele>717.8</ele>
        <time>1970-01-01T12:57:14.000Z</time>
      </trkpt>
      <trkpt lat="28.496636" lon="-16.345114">
        <ele>717.6</ele>
        <time>1970-01-01T12:57:15.000Z</time>
      </trkpt>
      <trkpt lat="28.49664" lon="-16.345031">
        <ele>716.6</ele>
        <time>1970-01-01T12:57:17.000Z</time>
      </trkpt>
      <trkpt lat="28.496643" lon="-16.344991">
        <ele>715.8</ele>
        <time>1970-01-01T12:57:18.000Z</time>
      </trkpt>
      <trkpt lat="28.496649" lon="-16.344873">
        <ele>714.8</ele>
        <time>1970-01-01T12:57:21.000Z</time>
      </trkpt>
      <trkpt lat="28.496698" lon="-16.344716">
        <ele>714.0</ele>
        <time>1970-01-01T12:57:25.000Z</time>
      </trkpt>
      <trkpt lat="28.496717" lon="-16.344677">
        <ele>713.4</ele>
        <time>1970-01-01T12:57:26.000Z</time>
      </trkpt>
      <trkpt lat="28.496776" lon="-16.34452">
        <ele>712.2</ele>
        <time>1970-01-01T12:57:30.000Z</time>
      </trkpt>
      <trkpt lat="28.496822" lon="-16.344371">
        <ele>711.4</ele>
        <time>1970-01-01T12:57:34.000Z</time>
      </trkpt>
      <trkpt lat="28.496843" lon="-16.344303">
        <ele>711.2</ele>
        <time>1970-01-01T12:57:36.000Z</time>
      </trkpt>
      <trkpt lat="28.496894" lon="-16.344157">
        <ele>709.8</ele>
        <time>1970-01-01T12:57:41.000Z</time>
      </trkpt>
      <trkpt lat="28.496903" lon="-16.343998">
        <ele>708.4</ele>
        <time>1970-01-01T12:57:44.000Z</time>
      </trkpt>
      <trkpt lat="28.49689" lon="-16.34388">
        <ele>707.2</ele>
        <time>1970-01-01T12:57:47.000Z</time>
      </trkpt>
      <trkpt lat="28.496869" lon="-16.343761">
        <ele>706.2</ele>
        <time>1970-01-01T12:57:50.000Z</time>
      </trkpt>
      <trkpt lat="28.496838" lon="-16.343624">
        <ele>705.0</ele>
        <time>1970-01-01T12:57:54.000Z</time>
      </trkpt>
      <trkpt lat="28.49681" lon="-16.343491">
        <ele>703.8</ele>
        <time>1970-01-01T12:57:59.000Z</time>
      </trkpt>
      <trkpt lat="28.496794" lon="-16.343399">
        <ele>703.0</ele>
        <time>1970-01-01T12:58:02.000Z</time>
      </trkpt>
      <trkpt lat="28.496789" lon="-16.343367">
        <ele>702.6</ele>
        <time>1970-01-01T12:58:03.000Z</time>
      </trkpt>
      <trkpt lat="28.496778" lon="-16.343303">
        <ele>701.2</ele>
        <time>1970-01-01T12:58:05.000Z</time>
      </trkpt>
      <trkpt lat="28.496772" lon="-16.343268">
        <ele>700.2</ele>
        <time>1970-01-01T12:58:06.000Z</time>
      </trkpt>
      <trkpt lat="28.496759" lon="-16.343234">
        <ele>699.2</ele>
        <time>1970-01-01T12:58:07.000Z</time>
      </trkpt>
      <trkpt lat="28.496742" lon="-16.343203">
        <ele>698.8</ele>
        <time>1970-01-01T12:58:08.000Z</time>
      </trkpt>
      <trkpt lat="28.496726" lon="-16.343179">
        <ele>697.8</ele>
        <time>1970-01-01T12:58:09.000Z</time>
      </trkpt>
      <trkpt lat="28.496706" lon="-16.343156">
        <ele>697.0</ele>
        <time>1970-01-01T12:58:10.000Z</time>
      </trkpt>
      <trkpt lat="28.496683" lon="-16.34313">
        <ele>696.2</ele>
        <time>1970-01-01T12:58:11.000Z</time>
      </trkpt>
      <trkpt lat="28.496663" lon="-16.343104">
        <ele>695.0</ele>
        <time>1970-01-01T12:58:12.000Z</time>
      </trkpt>
      <trkpt lat="28.496641" lon="-16.343077">
        <ele>694.0</ele>
        <time>1970-01-01T12:58:13.000Z</time>
      </trkpt>
      <trkpt lat="28.496626" lon="-16.343049">
        <ele>692.8</ele>
        <time>1970-01-01T12:58:14.000Z</time>
      </trkpt>
      <trkpt lat="28.496586" lon="-16.342985">
        <ele>691.8</ele>
        <time>1970-01-01T12:58:16.000Z</time>
      </trkpt>
      <trkpt lat="28.496522" lon="-16.342888">
        <ele>689.6</ele>
        <time>1970-01-01T12:58:19.000Z</time>
      </trkpt>
      <trkpt lat="28.496487" lon="-16.342835">
        <ele>688.0</ele>
        <time>1970-01-01T12:58:21.000Z</time>
      </trkpt>
      <trkpt lat="28.496429" lon="-16.342762">
        <ele>686.8</ele>
        <time>1970-01-01T12:58:24.000Z</time>
      </trkpt>
      <trkpt lat="28.496387" lon="-16.342714">
        <ele>685.0</ele>
        <time>1970-01-01T12:58:26.000Z</time>
      </trkpt>
      <trkpt lat="28.496348" lon="-16.342666">
        <ele>683.8</ele>
        <time>1970-01-01T12:58:28.000Z</time>
      </trkpt>
      <trkpt lat="28.496282" lon="-16.342592">
        <ele>682.4</ele>
        <time>1970-01-01T12:58:31.000Z</time>
      </trkpt>
      <trkpt lat="28.49624" lon="-16.342533">
        <ele>680.8</ele>
        <time>1970-01-01T12:58:33.000Z</time>
      </trkpt>
      <trkpt lat="28.496199" lon="-16.342473">
        <ele>679.2</ele>
        <time>1970-01-01T12:58:35.000Z</time>
      </trkpt>
      <trkpt lat="28.496158" lon="-16.342417">
        <ele>678.0</ele>
        <time>1970-01-01T12:58:37.000Z</time>
      </trkpt>
      <trkpt lat="28.49609" lon="-16.342343">
        <ele>675.8</ele>
        <time>1970-01-01T12:58:40.000Z</time>
      </trkpt>
      <trkpt lat="28.496038" lon="-16.342303">
        <ele>674.2</ele>
        <time>1970-01-01T12:58:42.000Z</time>
      </trkpt>
      <trkpt lat="28.495954" lon="-16.342245">
        <ele>673.2</ele>
        <time>1970-01-01T12:58:45.000Z</time>
      </trkpt>
      <trkpt lat="28.495881" lon="-16.342165">
        <ele>672.0</ele>
        <time>1970-01-01T12:58:48.000Z</time>
      </trkpt>
      <trkpt lat="28.495844" lon="-16.342098">
        <ele>670.2</ele>
        <time>1970-01-01T12:58:50.000Z</time>
      </trkpt>
      <trkpt lat="28.495821" lon="-16.34198">
        <ele>668.8</ele>
        <time>1970-01-01T12:58:53.000Z</time>
      </trkpt>
      <trkpt lat="28.495828" lon="-16.341905">
        <ele>667.2</ele>
        <time>1970-01-01T12:58:55.000Z</time>
      </trkpt>
      <trkpt lat="28.495842" lon="-16.341827">
        <ele>666.4</ele>
        <time>1970-01-01T12:58:57.000Z</time>
      </trkpt>
      <trkpt lat="28.49585" lon="-16.341786">
        <ele>666.0</ele>
        <time>1970-01-01T12:58:58.000Z</time>
      </trkpt>
      <trkpt lat="28.495859" lon="-16.341662">
        <ele>664.0</ele>
        <time>1970-01-01T12:59:01.000Z</time>
      </trkpt>
      <trkpt lat="28.495851" lon="-16.341576">
        <ele>662.8</ele>
        <time>1970-01-01T12:59:03.000Z</time>
      </trkpt>
      <trkpt lat="28.495845" lon="-16.341487">
        <ele>660.8</ele>
        <time>1970-01-01T12:59:05.000Z</time>
      </trkpt>
      <trkpt lat="28.495829" lon="-16.341393">
        <ele>659.6</ele>
        <time>1970-01-01T12:59:07.000Z</time>
      </trkpt>
      <trkpt lat="28.495803" lon="-16.341256">
        <ele>658.2</ele>
        <time>1970-01-01T12:59:10.000Z</time>
      </trkpt>
      <trkpt lat="28.495792" lon="-16.341171">
        <ele>657.0</ele>
        <time>1970-01-01T12:59:12.000Z</time>
      </trkpt>
      <trkpt lat="28.495769" lon="-16.341087">
        <ele>655.6</ele>
        <time>1970-01-01T12:59:14.000Z</time>
      </trkpt>
      <trkpt lat="28.49574" lon="-16.340965">
        <ele>654.6</ele>
        <time>1970-01-01T12:59:17.000Z</time>
      </trkpt>
      <trkpt lat="28.495677" lon="-16.340764">
        <ele>653.6</ele>
        <time>1970-01-01T12:59:22.000Z</time>
      </trkpt>
      <trkpt lat="28.495665" lon="-16.340721">
        <ele>653.4</ele>
        <time>1970-01-01T12:59:23.000Z</time>
      </trkpt>
      <trkpt lat="28.495584" lon="-16.340549">
        <ele>652.2</ele>
        <time>1970-01-01T12:59:27.000Z</time>
      </trkpt>
      <trkpt lat="28.495564" lon="-16.340507">
        <ele>652.0</ele>
        <time>1970-01-01T12:59:28.000Z</time>
      </trkpt>
      <trkpt lat="28.495504" lon="-16.340392">
        <ele>651.2</ele>
        <time>1970-01-01T12:59:31.000Z</time>
      </trkpt>
      <trkpt lat="28.495439" lon="-16.340237">
        <ele>650.0</ele>
        <time>1970-01-01T12:59:35.000Z</time>
      </trkpt>
      <trkpt lat="28.495401" lon="-16.340162">
        <ele>649.0</ele>
        <time>1970-01-01T12:59:37.000Z</time>
      </trkpt>
      <trkpt lat="28.495347" lon="-16.340054">
        <ele>648.0</ele>
        <time>1970-01-01T12:59:40.000Z</time>
      </trkpt>
      <trkpt lat="28.495303" lon="-16.339979">
        <ele>647.6</ele>
        <time>1970-01-01T12:59:42.000Z</time>
      </trkpt>
      <trkpt lat="28.495225" lon="-16.339845">
        <ele>646.6</ele>
        <time>1970-01-01T12:59:46.000Z</time>
      </trkpt>
      <trkpt lat="28.495142" lon="-16.339719">
        <ele>645.6</ele>
        <time>1970-01-01T12:59:50.000Z</time>
      </trkpt>
      <trkpt lat="28.495055" lon="-16.339597">
        <ele>644.4</ele>
        <time>1970-01-01T12:59:54.000Z</time>
      </trkpt>
      <trkpt lat="28.494963" lon="-16.339478">
        <ele>643.4</ele>
        <time>1970-01-01T12:59:58.000Z</time>
      </trkpt>
      <trkpt lat="28.494842" lon="-16.339315">
        <ele>642.2</ele>
        <time>1970-01-01T01:00:03.000Z</time>
      </trkpt>
      <trkpt lat="28.494726" lon="-16.339142">
        <ele>641.6</ele>
        <time>1970-01-01T01:00:08.000Z</time>
      </trkpt>
      <trkpt lat="28.494641" lon="-16.339001">
        <ele>641.2</ele>
        <time>1970-01-01T01:00:12.000Z</time>
      </trkpt>
      <trkpt lat="28.494529" lon="-16.338797">
        <ele>640.4</ele>
        <time>1970-01-01T01:00:18.000Z</time>
      </trkpt>
      <trkpt lat="28.49448" lon="-16.338686">
        <ele>640.2</ele>
        <time>1970-01-01T01:00:21.000Z</time>
      </trkpt>
      <trkpt lat="28.494402" lon="-16.338464">
        <ele>640.0</ele>
        <time>1970-01-01T01:00:27.000Z</time>
      </trkpt>
      <trkpt lat="28.494354" lon="-16.338309">
        <ele>639.8</ele>
        <time>1970-01-01T01:00:31.000Z</time>
      </trkpt>
      <trkpt lat="28.494306" lon="-16.338095">
        <ele>639.2</ele>
        <time>1970-01-01T01:00:37.000Z</time>
      </trkpt>
      <trkpt lat="28.494308" lon="-16.338061">
        <ele>639.2</ele>
        <time>1970-01-01T01:00:38.000Z</time>
      </trkpt>
      <trkpt lat="28.494294" lon="-16.337834">
        <ele>638.4</ele>
        <time>1970-01-01T01:00:44.000Z</time>
      </trkpt>
      <trkpt lat="28.494292" lon="-16.337722">
        <ele>638.2</ele>
        <time>1970-01-01T01:00:47.000Z</time>
      </trkpt>
      <trkpt lat="28.494293" lon="-16.337684">
        <ele>638.0</ele>
        <time>1970-01-01T01:00:48.000Z</time>
      </trkpt>
      <trkpt lat="28.494295" lon="-16.337458">
        <ele>637.0</ele>
        <time>1970-01-01T01:00:54.000Z</time>
      </trkpt>
      <trkpt lat="28.494296" lon="-16.337421">
        <ele>636.8</ele>
        <time>1970-01-01T01:00:55.000Z</time>
      </trkpt>
      <trkpt lat="28.49432" lon="-16.337226">
        <ele>636.0</ele>
        <time>1970-01-01T01:01:00.000Z</time>
      </trkpt>
      <trkpt lat="28.494356" lon="-16.336989">
        <ele>635.6</ele>
        <time>1970-01-01T01:01:06.000Z</time>
      </trkpt>
      <trkpt lat="28.494368" lon="-16.336785">
        <ele>635.2</ele>
        <time>1970-01-01T01:01:11.000Z</time>
      </trkpt>
      <trkpt lat="28.494381" lon="-16.336634">
        <ele>635.0</ele>
        <time>1970-01-01T01:01:15.000Z</time>
      </trkpt>
      <trkpt lat="28.494382" lon="-16.336594">
        <ele>635.0</ele>
        <time>1970-01-01T01:01:16.000Z</time>
      </trkpt>
      <trkpt lat="28.494372" lon="-16.336361">
        <ele>634.4</ele>
        <time>1970-01-01T01:01:22.000Z</time>
      </trkpt>
      <trkpt lat="28.494373" lon="-16.336252">
        <ele>634.0</ele>
        <time>1970-01-01T01:01:25.000Z</time>
      </trkpt>
      <trkpt lat="28.494376" lon="-16.336023">
        <ele>633.0</ele>
        <time>1970-01-01T01:01:31.000Z</time>
      </trkpt>
      <trkpt lat="28.494372" lon="-16.33594">
        <ele>632.8</ele>
        <time>1970-01-01T01:01:33.000Z</time>
      </trkpt>
      <trkpt lat="28.494371" lon="-16.33579">
        <ele>631.6</ele>
        <time>1970-01-01T01:01:37.000Z</time>
      </trkpt>
      <trkpt lat="28.494371" lon="-16.335678">
        <ele>631.2</ele>
        <time>1970-01-01T01:01:40.000Z</time>
      </trkpt>
      <trkpt lat="28.494359" lon="-16.335485">
        <ele>630.6</ele>
        <time>1970-01-01T01:01:45.000Z</time>
      </trkpt>
      <trkpt lat="28.494352" lon="-16.335444">
        <ele>630.4</ele>
        <time>1970-01-01T01:01:46.000Z</time>
      </trkpt>
      <trkpt lat="28.494317" lon="-16.33521">
        <ele>629.8</ele>
        <time>1970-01-01T01:01:52.000Z</time>
      </trkpt>
      <trkpt lat="28.494287" lon="-16.335049">
        <ele>629.6</ele>
        <time>1970-01-01T01:01:56.000Z</time>
      </trkpt>
      <trkpt lat="28.494256" lon="-16.334833">
        <ele>629.2</ele>
        <time>1970-01-01T01:02:01.000Z</time>
      </trkpt>
      <trkpt lat="28.494233" lon="-16.334621">
        <ele>628.6</ele>
        <time>1970-01-01T01:02:06.000Z</time>
      </trkpt>
      <trkpt lat="28.494225" lon="-16.334577">
        <ele>628.4</ele>
        <time>1970-01-01T01:02:07.000Z</time>
      </trkpt>
      <trkpt lat="28.494201" lon="-16.334403">
        <ele>627.2</ele>
        <time>1970-01-01T01:02:11.000Z</time>
      </trkpt>
      <trkpt lat="28.494146" lon="-16.334231">
        <ele>625.8</ele>
        <time>1970-01-01T01:02:15.000Z</time>
      </trkpt>
      <trkpt lat="28.494101" lon="-16.334055">
        <ele>624.8</ele>
        <time>1970-01-01T01:02:19.000Z</time>
      </trkpt>
      <trkpt lat="28.494023" lon="-16.33386">
        <ele>624.2</ele>
        <time>1970-01-01T01:02:24.000Z</time>
      </trkpt>
      <trkpt lat="28.493973" lon="-16.333745">
        <ele>623.8</ele>
        <time>1970-01-01T01:02:27.000Z</time>
      </trkpt>
      <trkpt lat="28.493937" lon="-16.333671">
        <ele>623.8</ele>
        <time>1970-01-01T01:02:29.000Z</time>
      </trkpt>
      <trkpt lat="28.493907" lon="-16.333596">
        <ele>623.6</ele>
        <time>1970-01-01T01:02:31.000Z</time>
      </trkpt>
      <trkpt lat="28.493865" lon="-16.333347">
        <ele>623.2</ele>
        <time>1970-01-01T01:02:37.000Z</time>
      </trkpt>
      <trkpt lat="28.49389" lon="-16.333213">
        <ele>623.0</ele>
        <time>1970-01-01T01:02:40.000Z</time>
      </trkpt>
      <trkpt lat="28.493918" lon="-16.333127">
        <ele>622.8</ele>
        <time>1970-01-01T01:02:42.000Z</time>
      </trkpt>
      <trkpt lat="28.493969" lon="-16.332913">
        <ele>622.0</ele>
        <time>1970-01-01T01:02:47.000Z</time>
      </trkpt>
      <trkpt lat="28.493987" lon="-16.332747">
        <ele>621.6</ele>
        <time>1970-01-01T01:02:51.000Z</time>
      </trkpt>
      <trkpt lat="28.49399" lon="-16.332583">
        <ele>620.6</ele>
        <time>1970-01-01T01:02:55.000Z</time>
      </trkpt>
      <trkpt lat="28.493949" lon="-16.332387">
        <ele>619.4</ele>
        <time>1970-01-01T01:03:00.000Z</time>
      </trkpt>
      <trkpt lat="28.493924" lon="-16.332151">
        <ele>618.4</ele>
        <time>1970-01-01T01:03:06.000Z</time>
      </trkpt>
      <trkpt lat="28.49389" lon="-16.331912">
        <ele>617.6</ele>
        <time>1970-01-01T01:03:12.000Z</time>
      </trkpt>
      <trkpt lat="28.493885" lon="-16.331872">
        <ele>617.2</ele>
        <time>1970-01-01T01:03:13.000Z</time>
      </trkpt>
      <trkpt lat="28.493866" lon="-16.331702">
        <ele>616.2</ele>
        <time>1970-01-01T01:03:17.000Z</time>
      </trkpt>
      <trkpt lat="28.493843" lon="-16.331489">
        <ele>615.4</ele>
        <time>1970-01-01T01:03:22.000Z</time>
      </trkpt>
      <trkpt lat="28.493838" lon="-16.331449">
        <ele>615.2</ele>
        <time>1970-01-01T01:03:23.000Z</time>
      </trkpt>
      <trkpt lat="28.493814" lon="-16.331252">
        <ele>614.0</ele>
        <time>1970-01-01T01:03:28.000Z</time>
      </trkpt>
      <trkpt lat="28.493796" lon="-16.331055">
        <ele>613.0</ele>
        <time>1970-01-01T01:03:33.000Z</time>
      </trkpt>
      <trkpt lat="28.493786" lon="-16.331015">
        <ele>613.0</ele>
        <time>1970-01-01T01:03:34.000Z</time>
      </trkpt>
      <trkpt lat="28.493736" lon="-16.330915">
        <ele>611.8</ele>
        <time>1970-01-01T01:03:37.000Z</time>
      </trkpt>
      <trkpt lat="28.493684" lon="-16.330822">
        <ele>611.0</ele>
        <time>1970-01-01T01:03:40.000Z</time>
      </trkpt>
      <trkpt lat="28.493675" lon="-16.330792">
        <ele>610.8</ele>
        <time>1970-01-01T01:03:41.000Z</time>
      </trkpt>
      <trkpt lat="28.493518" lon="-16.330647">
        <ele>610.2</ele>
        <time>1970-01-01T01:03:47.000Z</time>
      </trkpt>
      <trkpt lat="28.493418" lon="-16.330579">
        <ele>609.8</ele>
        <time>1970-01-01T01:03:50.000Z</time>
      </trkpt>
      <trkpt lat="28.493244" lon="-16.330454">
        <ele>609.4</ele>
        <time>1970-01-01T01:03:55.000Z</time>
      </trkpt>
      <trkpt lat="28.493064" lon="-16.330332">
        <ele>609.2</ele>
        <time>1970-01-01T01:04:00.000Z</time>
      </trkpt>
      <trkpt lat="28.492919" lon="-16.33025">
        <ele>609.0</ele>
        <time>1970-01-01T01:04:04.000Z</time>
      </trkpt>
      <trkpt lat="28.492851" lon="-16.330212">
        <ele>608.8</ele>
        <time>1970-01-01T01:04:06.000Z</time>
      </trkpt>
      <trkpt lat="28.492698" lon="-16.330085">
        <ele>608.4</ele>
        <time>1970-01-01T01:04:11.000Z</time>
      </trkpt>
      <trkpt lat="28.492535" lon="-16.329936">
        <ele>608.2</ele>
        <time>1970-01-01T01:04:17.000Z</time>
      </trkpt>
      <trkpt lat="28.4924" lon="-16.329795">
        <ele>607.8</ele>
        <time>1970-01-01T01:04:22.000Z</time>
      </trkpt>
      <trkpt lat="28.492374" lon="-16.329766">
        <ele>607.8</ele>
        <time>1970-01-01T01:04:23.000Z</time>
      </trkpt>
      <trkpt lat="28.492222" lon="-16.329613">
        <ele>607.6</ele>
        <time>1970-01-01T01:04:29.000Z</time>
      </trkpt>
      <trkpt lat="28.49205" lon="-16.329476">
        <ele>607.2</ele>
        <time>1970-01-01T01:04:35.000Z</time>
      </trkpt>
      <trkpt lat="28.491907" lon="-16.329351">
        <ele>607.0</ele>
        <time>1970-01-01T01:04:40.000Z</time>
      </trkpt>
      <trkpt lat="28.491853" lon="-16.329306">
        <ele>607.0</ele>
        <time>1970-01-01T01:04:42.000Z</time>
      </trkpt>
      <trkpt lat="28.491775" lon="-16.329242">
        <ele>606.8</ele>
        <time>1970-01-01T01:04:45.000Z</time>
      </trkpt>
      <trkpt lat="28.491747" lon="-16.329223">
        <ele>606.6</ele>
        <time>1970-01-01T01:04:46.000Z</time>
      </trkpt>
      <trkpt lat="28.491581" lon="-16.329091">
        <ele>606.2</ele>
        <time>1970-01-01T01:04:52.000Z</time>
      </trkpt>
      <trkpt lat="28.49143" lon="-16.328933">
        <ele>605.8</ele>
        <time>1970-01-01T01:04:58.000Z</time>
      </trkpt>
      <trkpt lat="28.491351" lon="-16.328862">
        <ele>605.6</ele>
        <time>1970-01-01T01:05:01.000Z</time>
      </trkpt>
      <trkpt lat="28.491196" lon="-16.328737">
        <ele>605.2</ele>
        <time>1970-01-01T01:05:07.000Z</time>
      </trkpt>
      <trkpt lat="28.49101" lon="-16.328674">
        <ele>605.0</ele>
        <time>1970-01-01T01:05:13.000Z</time>
      </trkpt>
      <trkpt lat="28.490812" lon="-16.328614">
        <ele>605.0</ele>
        <time>1970-01-01T01:05:19.000Z</time>
      </trkpt>
      <trkpt lat="28.490655" lon="-16.328449">
        <ele>604.8</ele>
        <time>1970-01-01T01:05:25.000Z</time>
      </trkpt>
      <trkpt lat="28.490597" lon="-16.328373">
        <ele>604.8</ele>
        <time>1970-01-01T01:05:28.000Z</time>
      </trkpt>
      <trkpt lat="28.490578" lon="-16.328348">
        <ele>604.8</ele>
        <time>1970-01-01T01:05:29.000Z</time>
      </trkpt>
      <trkpt lat="28.490553" lon="-16.328325">
        <ele>604.8</ele>
        <time>1970-01-01T01:05:30.000Z</time>
      </trkpt>
      <trkpt lat="28.490527" lon="-16.328302">
        <ele>604.6</ele>
        <time>1970-01-01T01:05:31.000Z</time>
      </trkpt>
      <trkpt lat="28.490376" lon="-16.328165">
        <ele>604.6</ele>
        <time>1970-01-01T01:05:37.000Z</time>
      </trkpt>
      <trkpt lat="28.490185" lon="-16.328183">
        <ele>604.6</ele>
        <time>1970-01-01T01:05:43.000Z</time>
      </trkpt>
      <trkpt lat="28.490148" lon="-16.328394">
        <ele>605.0</ele>
        <time>1970-01-01T01:05:49.000Z</time>
      </trkpt>
      <trkpt lat="28.490152" lon="-16.328614">
        <ele>605.4</ele>
        <time>1970-01-01T01:05:56.000Z</time>
      </trkpt>
      <trkpt lat="28.490128" lon="-16.328831">
        <ele>605.6</ele>
        <time>1970-01-01T01:06:03.000Z</time>
      </trkpt>
      <trkpt lat="28.490146" lon="-16.328937">
        <ele>605.8</ele>
        <time>1970-01-01T01:06:06.000Z</time>
      </trkpt>
      <trkpt lat="28.490312" lon="-16.329084">
        <ele>605.8</ele>
        <time>1970-01-01T01:06:12.000Z</time>
      </trkpt>
      <trkpt lat="28.490449" lon="-16.329171">
        <ele>605.6</ele>
        <time>1970-01-01T01:06:17.000Z</time>
      </trkpt>
      <trkpt lat="28.490587" lon="-16.329276">
        <ele>605.6</ele>
        <time>1970-01-01T01:06:22.000Z</time>
      </trkpt>
      <trkpt lat="28.490732" lon="-16.329412">
        <ele>605.8</ele>
        <time>1970-01-01T01:06:28.000Z</time>
      </trkpt>
    </trkseg>
  </trk>
</gpx>
